[[{"header":{"parameterUnit":"m.s-1","parameterCategory":1,"la1":30.6,"la2":29.2853,"lo1":-89.7004,"lo2":-87.6739,"dy":0.0162,"dx":0.0183,"nx":112,"ny":82,"refTime":"2023-02-22T18:00:00:Z","depth":0,"parameterNumber":2,"parameterNumberName":"U-component_of_WINDS"},"data":[0.0,0.0,0.0,0.0,0.0,0.0,0.0,0.0,0.0,0.0,0.0,0.0,0.0,0.0,0.0,0.0,0.0,0.0,0.0,0.0,0.0,0.0,0.0,0.0,0.0,0.0,0.0,0.0,0.0,0.0,0.0,0.0,0.0,0.0,0.0,0.0,0.0,0.0,0.0,0.0,0.0,0.0,0.0,0.0,0.0,0.0,0.0,0.0,0.0,0.0,0.0,0.0,0.0,0.0,0.0,0.0,0.0,0.0,0.0,0.0,0.0,0.0,0.0,0.0,0.0,0.0,0.0,0.0,0.0,0.0,0.0,0.0,0.0,0.0,0.0,0.0,0.0,0.0,0.0,0.0,0.0,0.0,0.0,0.0,0.0,0.0,0.0,0.0,0.0,0.0,3.8013,3.8013,3.8523,3.9008,3.9481,3.9668,3.9976,4.0577,0.0,0.0,0.0,0.0,0.0,0.0,0.0,0.0,0.0,0.0,0.0,0.0,0.0,0.0,0.0,0.0,0.0,0.0,0.0,0.0,0.0,0.0,0.0,0.0,0.0,0.0,0.0,0.0,0.0,0.0,0.0,0.0,0.0,0.0,0.0,0.0,0.0,0.0,0.0,0.0,0.0,0.0,0.0,0.0,0.0,0.0,0.0,0.0,0.0,0.0,0.0,0.0,0.0,0.0,0.0,0.0,0.0,0.0,0.0,0.0,0.0,0.0,0.0,0.0,0.0,0.0,0.0,0.0,0.0,0.0,0.0,0.0,0.0,0.0,0.0,0.0,0.0,0.0,0.0,0.0,0.0,0.0,0.0,0.0,0.0,0.0,0.0,0.0,0.0,0.0,0.0,0.0,0.0,0.0,0.0,0.0,0.0,0.0,0.0,0.0,0.0,0.0,0.0,0.0,3.8578,3.8578,3.9109,3.9383,3.9186,3.9906,4.0308,4.0203,0.0,0.0,0.0,0.0,0.0,0.0,0.0,0.0,0.0,0.0,0.0,0.0,0.0,0.0,0.0,0.0,0.0,0.0,0.0,0.0,0.0,0.0,0.0,0.0,0.0,0.0,0.0,0.0,0.0,0.0,0.0,0.0,0.0,0.0,0.0,0.0,0.0,0.0,0.0,0.0,0.0,0.0,0.0,0.0,0.0,0.0,0.0,0.0,0.0,0.0,0.0,0.0,0.0,0.0,0.0,0.0,0.0,0.0,0.0,0.0,0.0,0.0,0.0,0.0,0.0,0.0,0.0,0.0,0.0,0.0,0.0,0.0,0.0,0.0,0.0,0.0,0.0,0.0,0.0,0.0,0.0,0.0,0.0,0.0,0.0,0.0,0.0,0.0,0.0,0.0,0.0,0.0,0.0,0.0,0.0,0.0,0.0,0.0,0.0,0.0,0.0,0.0,0.0,3.8099,3.8382,3.8658,3.896,3.9189,3.9358,3.9778,4.0102,4.0296,4.0429,0.0,0.0,0.0,0.0,0.0,0.0,0.0,0.0,0.0,0.0,0.0,0.0,0.0,0.0,0.0,0.0,0.0,0.0,0.0,0.0,0.0,0.0,0.0,0.0,0.0,0.0,0.0,0.0,0.0,0.0,0.0,0.0,0.0,0.0,0.0,0.0,0.0,0.0,0.0,0.0,0.0,0.0,0.0,0.0,0.0,0.0,0.0,0.0,0.0,0.0,0.0,0.0,0.0,0.0,0.0,0.0,0.0,0.0,0.0,0.0,0.0,0.0,0.0,0.0,0.0,0.0,0.0,0.0,0.0,0.0,0.0,0.0,0.0,0.0,0.0,0.0,0.0,0.0,0.0,0.0,0.0,0.0,0.0,0.0,0.0,0.0,0.0,0.0,0.0,0.0,0.0,0.0,0.0,0.0,0.0,0.0,0.0,0.0,0.0,0.0,0.0,0.0,3.798,3.8099,3.8627,3.8762,3.9008,3.9552,3.9668,3.9941,4.0466,4.0508,0.0,0.0,0.0,0.0,0.0,0.0,0.0,0.0,0.0,0.0,0.0,0.0,0.0,0.0,0.0,0.0,0.0,0.0,0.0,0.0,0.0,0.0,0.0,0.0,0.0,0.0,0.0,0.0,0.0,0.0,0.0,0.0,0.0,0.0,0.0,0.0,0.0,0.0,0.0,0.0,0.0,0.0,0.0,0.0,0.0,0.0,0.0,0.0,0.0,0.0,0.0,0.0,0.0,0.0,0.0,0.0,0.0,0.0,0.0,0.0,0.0,0.0,0.0,0.0,0.0,0.0,0.0,0.0,0.0,0.0,0.0,0.0,0.0,0.0,0.0,0.0,0.0,0.0,0.0,0.0,0.0,0.0,0.0,0.0,0.0,0.0,0.0,0.0,0.0,0.0,0.0,0.0,0.0,0.0,0.0,0.0,0.0,0.0,0.0,0.0,0.0,0.0,3.8216,3.8099,3.8627,3.8923,3.9231,3.9576,3.988,4.0188,4.0487,4.0508,0.0,0.0,0.0,0.0,0.0,0.0,0.0,0.0,0.0,0.0,0.0,0.0,0.0,0.0,0.0,0.0,0.0,0.0,0.0,0.0,0.0,0.0,0.0,0.0,0.0,0.0,0.0,0.0,0.0,0.0,0.0,0.0,0.0,0.0,0.0,0.0,0.0,0.0,0.0,0.0,0.0,0.0,0.0,0.0,0.0,0.0,0.0,0.0,0.0,0.0,0.0,0.0,0.0,0.0,0.0,0.0,0.0,0.0,0.0,0.0,0.0,0.0,0.0,0.0,0.0,0.0,0.0,0.0,0.0,0.0,0.0,0.0,0.0,0.0,0.0,0.0,0.0,0.0,0.0,0.0,0.0,0.0,0.0,0.0,0.0,0.0,0.0,0.0,0.0,0.0,0.0,0.0,0.0,0.0,0.0,0.0,0.0,0.0,0.0,0.0,0.0,0.0,3.8496,3.8554,3.8905,3.9036,3.9314,3.988,4.0022,4.0202,4.0487,0.0,0.0,0.0,0.0,0.0,0.0,0.0,0.0,0.0,0.0,0.0,0.0,0.0,0.0,0.0,0.0,0.0,0.0,0.0,0.0,0.0,0.0,0.0,0.0,0.0,0.0,0.0,0.0,0.0,0.0,0.0,0.0,0.0,0.0,0.0,0.0,0.0,0.0,0.0,0.0,0.0,0.0,0.0,0.0,0.0,0.0,0.0,0.0,0.0,0.0,0.0,0.0,0.0,0.0,0.0,0.0,0.0,0.0,0.0,0.0,0.0,0.0,0.0,0.0,0.0,0.0,0.0,0.0,0.0,0.0,0.0,0.0,0.0,0.0,0.0,0.0,0.0,0.0,0.0,0.0,0.0,0.0,0.0,0.0,0.0,0.0,0.0,0.0,0.0,0.0,0.0,0.0,0.0,0.0,0.0,0.0,0.0,0.0,0.0,0.0,0.0,0.0,3.8382,3.8465,3.8597,3.9044,3.9099,3.9364,4.0042,4.0101,4.0202,4.0487,0.0,0.0,0.0,0.0,0.0,0.0,0.0,0.0,0.0,0.0,0.0,0.0,0.0,0.0,0.0,0.0,0.0,0.0,0.0,0.0,0.0,0.0,0.0,0.0,0.0,0.0,0.0,0.0,0.0,0.0,0.0,0.0,0.0,0.0,0.0,0.0,0.0,0.0,0.0,0.0,0.0,0.0,0.0,0.0,0.0,0.0,0.0,0.0,0.0,0.0,0.0,0.0,0.0,0.0,0.0,0.0,0.0,0.0,0.0,0.0,0.0,0.0,0.0,0.0,0.0,0.0,0.0,0.0,0.0,0.0,0.0,0.0,0.0,0.0,0.0,0.0,0.0,0.0,0.0,0.0,0.0,0.0,0.0,0.0,0.0,0.0,0.0,0.0,0.0,0.0,0.0,0.0,0.0,0.0,0.0,0.0,0.0,0.0,0.0,0.0,0.0,0.0,3.7859,3.7893,3.819,3.9026,3.9125,3.9364,4.0061,4.0101,4.0221,0.0,0.0,0.0,0.0,0.0,0.0,0.0,0.0,0.0,0.0,0.0,0.0,0.0,0.0,0.0,0.0,0.0,0.0,0.0,0.0,0.0,0.0,0.0,0.0,0.0,0.0,0.0,0.0,0.0,0.0,0.0,0.0,0.0,0.0,0.0,0.0,0.0,0.0,0.0,0.0,0.0,0.0,0.0,0.0,0.0,0.0,0.0,0.0,0.0,0.0,0.0,0.0,0.0,0.0,0.0,0.0,0.0,0.0,0.0,0.0,0.0,0.0,0.0,0.0,0.0,0.0,0.0,0.0,0.0,0.0,0.0,0.0,0.0,0.0,0.0,0.0,0.0,0.0,0.0,0.0,0.0,0.0,0.0,0.0,0.0,0.0,0.0,0.0,0.0,0.0,0.0,0.0,0.0,0.0,0.0,0.0,0.0,0.0,0.0,0.0,0.0,0.0,0.0,3.835,3.8132,3.83,3.9339,3.9438,3.9694,4.0319,4.0485,4.0517,4.0506,0.0,0.0,0.0,0.0,0.0,0.0,0.0,0.0,0.0,0.0,0.0,0.0,0.0,0.0,0.0,0.0,0.0,0.0,0.0,0.0,0.0,0.0,0.0,0.0,0.0,0.0,0.0,0.0,0.0,0.0,0.0,0.0,0.0,0.0,0.0,0.0,0.0,0.0,0.0,0.0,0.0,0.0,0.0,0.0,0.0,0.0,0.0,0.0,0.0,0.0,0.0,0.0,0.0,0.0,0.0,0.0,0.0,0.0,0.0,0.0,0.0,0.0,0.0,0.0,0.0,0.0,0.0,0.0,0.0,0.0,0.0,0.0,0.0,0.0,0.0,0.0,0.0,0.0,0.0,0.0,0.0,0.0,0.0,0.0,0.0,0.0,0.0,0.0,0.0,0.0,0.0,0.0,0.0,0.0,0.0,0.0,0.0,0.0,0.0,0.0,0.0,0.0,3.8234,3.7929,3.8136,3.9462,3.9599,3.9842,4.0438,4.062,4.0665,4.0586,0.0,0.0,0.0,0.0,0.0,0.0,0.0,0.0,0.0,0.0,0.0,0.0,0.0,0.0,0.0,0.0,0.0,0.0,0.0,0.0,0.0,0.0,0.0,0.0,0.0,0.0,0.0,0.0,0.0,0.0,0.0,0.0,0.0,0.0,0.0,0.0,0.0,0.0,0.0,0.0,0.0,0.0,0.0,0.0,0.0,0.0,0.0,0.0,0.0,0.0,0.0,0.0,0.0,0.0,0.0,0.0,0.0,0.0,0.0,0.0,0.0,0.0,0.0,0.0,0.0,0.0,0.0,0.0,0.0,0.0,0.0,0.0,0.0,0.0,0.0,0.0,0.0,0.0,0.0,0.0,0.0,0.0,0.0,0.0,0.0,0.0,0.0,0.0,0.0,0.0,0.0,0.0,0.0,0.0,0.0,0.0,0.0,0.0,0.0,0.0,0.0,0.0,3.7825,3.7542,3.7853,3.9443,3.9599,3.9842,4.0476,4.0639,4.07,4.0713,0.0,0.0,0.0,0.0,0.0,0.0,0.0,0.0,0.0,0.0,0.0,0.0,0.0,0.0,0.0,0.0,0.0,0.0,0.0,0.0,0.0,0.0,0.0,0.0,0.0,0.0,0.0,0.0,0.0,0.0,0.0,0.0,0.0,0.0,0.0,0.0,0.0,0.0,0.0,0.0,0.0,0.0,0.0,0.0,0.0,0.0,0.0,0.0,0.0,0.0,0.0,0.0,0.0,0.0,0.0,0.0,0.0,0.0,0.0,0.0,0.745,0.8499,0.0,0.0,0.0,0.0,0.0,0.0,0.0,0.0,0.0,0.0,0.0,0.0,0.0,0.0,0.0,0.0,0.0,0.0,0.0,0.0,0.0,0.0,0.0,0.0,0.0,0.0,0.0,0.0,0.0,0.0,0.0,0.0,0.0,0.0,0.0,0.0,0.0,0.0,0.0,0.0,3.8401,3.8065,3.8218,3.9486,3.9599,3.988,4.0592,4.0735,4.0791,4.0789,4.0889,0.0,0.0,0.0,0.0,0.0,0.0,0.0,0.0,0.0,0.0,0.0,0.0,0.0,0.0,0.0,0.0,0.0,0.0,0.0,0.0,0.0,0.0,0.0,0.0,0.0,0.0,0.0,0.0,0.0,0.0,0.0,0.0,0.0,0.0,0.0,0.0,0.0,0.0,0.0,0.0,0.0,0.0,0.0,0.0,0.0,0.0,0.0,0.0,0.0,0.0,0.0,0.0,0.0,0.0,0.0,0.0,0.0,0.0,0.0,0.552,0.6939,0.0,0.0,0.0,0.0,0.0,0.0,0.0,0.0,0.0,0.0,0.0,0.0,0.0,0.0,0.0,0.0,0.0,0.0,0.0,0.0,0.0,0.0,0.0,0.0,0.0,0.0,0.0,0.0,0.0,0.0,0.0,0.0,0.0,0.0,0.0,0.0,0.0,0.0,0.0,0.0,3.8234,3.8065,3.8332,3.9486,3.9599,3.9899,4.0646,4.0758,4.0839,4.0889,4.0908,0.0,0.0,0.0,0.0,0.0,0.0,0.0,0.0,0.0,0.0,0.0,0.0,0.0,0.0,0.0,0.0,0.0,0.0,0.0,0.0,0.0,0.0,0.0,0.0,0.0,0.0,0.0,0.0,0.0,0.0,0.0,0.0,0.0,0.0,0.0,0.0,0.0,0.0,0.0,0.0,0.0,0.0,0.0,0.0,0.0,0.0,0.0,0.0,0.0,0.0,0.0,0.0,0.0,-0.6337,-0.5262,-0.357,-0.357,-0.1873,0.1251,0.3479,0.526,0.6511,0.6483,0.0,0.0,0.0,0.0,0.0,0.0,0.0,0.0,0.0,0.0,0.0,0.0,0.0,0.0,0.0,0.0,0.0,0.0,0.0,0.0,0.0,0.0,1.7334,1.8718,1.9036,1.9728,2.2392,0.0,0.0,0.0,0.0,0.0,0.0,0.0,0.0,0.0,0.0,0.0,3.7825,3.798,3.8444,3.9486,3.9632,3.9935,4.0649,4.0792,4.0888,4.1042,4.0915,4.0722,0.0,0.0,0.0,0.0,0.0,0.0,0.0,0.0,0.0,0.0,0.0,0.0,0.0,0.0,0.0,0.0,0.0,0.0,0.0,0.0,0.0,0.0,0.0,0.0,0.0,0.0,0.0,0.0,0.0,0.0,0.0,0.0,-0.1967,-0.3213,0.0,0.0,0.0,0.0,0.0,0.0,0.0,0.0,0.0,0.0,0.0,0.0,0.0,-0.7228,-0.7139,-0.5082,-0.4552,-0.5625,-0.3484,-0.286,-0.357,-0.357,-0.2763,-0.1245,0.0089,0.0,0.4103,0.4101,0.0,0.0,0.0,0.0,0.0,0.0,0.0,0.0,0.0,0.0,0.0,0.0,0.0,0.0,0.0,0.0,0.0,0.0,0.0,0.0,0.0,0.0,1.6429,1.855,1.9036,1.9353,2.0702,2.2414,2.4218,2.5933,2.7139,2.863,0.0,0.0,0.0,0.0,0.0,0.0,3.7825,3.83,3.8836,3.9529,3.9701,4.0046,4.0726,4.0896,4.102,4.1175,4.1049,4.0906,4.0752,4.0727,0.0,0.0,0.0,0.0,0.0,0.0,0.0,0.0,0.0,0.0,0.0,0.0,0.0,0.0,0.0,0.0,0.0,0.0,0.0,0.0,0.0,0.0,0.0,0.0,0.0,0.0,0.0,0.0,0.0,-0.4374,-0.4991,-0.551,-0.7099,-0.8603,0.0,0.0,0.0,0.0,0.0,0.0,0.0,0.0,0.0,-0.8193,-0.8105,-0.7753,-0.7139,-0.6065,-0.58,-0.6337,-0.5265,-0.4372,-0.3659,-0.4285,-0.3568,-0.1785,-0.125,-0.0446,0.0714,0.2054,0.2948,0.357,0.0,0.0,0.0,0.0,0.6926,0.7014,0.8257,0.8603,0.8674,0.8611,0.0,0.0,0.0,0.0,0.0,0.0,0.0,1.4334,1.5228,1.5144,1.5387,1.7496,1.8069,1.855,2.0235,2.1669,2.3051,2.4482,2.6697,2.8898,3.0306,3.1626,0.0,0.0,0.0,3.6819,3.7415,3.8201,3.8931,3.9529,3.9661,3.9979,4.075,4.0854,4.0988,4.1191,4.1006,4.0848,4.0808,4.0658,4.06,0.0,0.0,0.0,0.0,0.0,0.0,0.0,0.0,0.0,0.0,0.0,0.0,0.0,0.0,0.0,0.0,0.0,0.0,0.0,0.0,0.0,0.0,0.0,0.0,0.0,0.0,0.0,0.0,-0.5891,-0.6325,-0.6662,-0.7724,-0.8873,0.0,0.0,0.0,0.0,0.0,0.0,-1.0178,-1.0183,-0.9662,-0.8452,-0.8452,-0.8017,-0.7139,-0.6782,-0.6782,-0.7051,-0.6514,-0.5442,-0.4105,-0.4643,-0.3929,-0.2236,-0.1969,-0.179,-0.1611,0.0448,0.1879,0.2592,0.17,0.1879,0.286,0.402,0.4465,0.4643,0.58,0.6231,0.6216,0.6596,0.7467,0.8499,0.9135,0.0,0.0,0.0,0.0,1.4088,1.4088,1.4088,1.4664,1.6772,1.7342,1.7908,2.0157,2.1527,2.2627,2.3368,2.5933,2.8346,2.952,3.1098,0.0,3.412,3.5413,3.6429,3.7117,3.7982,3.8778,3.9529,3.9626,3.9948,4.0731,4.0836,4.0953,4.1191,4.0955,4.081,4.0808,4.062,4.0562,4.0696,0.0,0.0,0.0,0.0,0.0,0.0,0.0,0.0,0.0,0.0,0.0,0.0,0.0,0.0,0.0,0.0,0.0,0.0,0.0,0.0,0.0,0.0,0.0,0.0,0.0,0.0,0.0,0.0,0.0,-0.5356,-0.6489,0.0,0.0,0.0,0.0,-1.0611,-1.0611,-1.0096,-0.9065,-0.8978,-0.8452,-0.7228,-0.7228,-0.7139,-0.7139,-0.5983,-0.6071,-0.7051,-0.4816,-0.4285,-0.527,-0.4194,-0.3659,-0.3481,-0.2324,-0.179,-0.1701,-0.0449,0.009,0.018,0.009,0.009,0.0359,0.1522,0.1969,0.2148,0.3393,0.3748,0.3926,0.509,0.6248,0.7573,0.9831,1.0611,0.0,0.0,1.3203,1.4088,1.4088,1.4088,1.4664,1.6772,1.7342,1.7908,2.0157,2.2113,2.3441,2.3514,2.4397,2.6008,2.8593,0.0,3.1683,3.338,3.5227,3.6603,3.7152,3.7614,3.8363,3.9486,3.97,4.0043,4.0735,4.0922,4.1054,4.1191,4.0955,4.081,4.0808,4.062,4.0562,4.0696,4.0696,0.0,0.0,0.0,0.0,0.0,0.0,0.0,0.0,0.0,0.0,0.0,0.0,0.0,0.0,0.0,0.0,0.0,0.0,0.0,0.0,0.0,0.0,0.0,0.0,0.0,0.0,0.0,0.0,-0.6222,-0.6828,0.0,-0.9831,-0.9666,-0.9492,-0.9492,-0.9492,-0.8973,-0.7841,-0.8452,-0.8364,-0.7139,-0.7139,-0.7139,-0.7139,-0.6694,-0.6694,-0.7051,-0.5534,-0.4554,-0.4196,-0.3837,-0.3215,-0.2413,-0.1969,-0.179,-0.1701,-0.0539,0.0,0.0,0.0,0.0,0.018,0.1344,0.179,0.2057,0.4107,0.4283,0.3837,0.5001,0.616,0.7401,0.9056,1.0009,1.0869,1.198,1.3203,1.4088,1.4088,1.4566,1.5462,1.6927,1.7827,1.8798,2.0245,2.1603,2.2702,2.3368,2.5216,2.7245,2.8734,3.023,3.1749,3.336,3.4825,3.6104,3.7097,3.7614,3.8332,3.9486,3.9722,4.0084,4.0742,4.0912,4.1064,4.1191,4.0955,4.081,4.0808,4.062,4.0581,4.0754,4.0764,4.0742,0.0,0.0,0.0,0.0,0.0,0.0,0.0,0.0,0.0,0.0,0.0,0.0,0.0,0.0,0.0,0.0,0.0,0.0,0.0,0.0,0.0,0.0,0.0,0.0,0.0,0.0,-0.4188,-0.5772,-0.5948,-0.6653,-0.8682,-0.8173,-0.7918,-0.8277,-0.8277,-0.7929,-0.7139,-0.7841,-0.7929,-0.7139,-0.7139,-0.7139,-0.7139,-0.7139,-0.7139,-0.7051,-0.5534,-0.4374,-0.357,-0.2769,-0.1969,-0.1165,-0.1165,-0.1165,-0.1165,-0.0359,0.0,0.0,0.0,0.0,0.009,0.0897,0.1433,0.2057,0.4107,0.4552,0.4374,0.5179,0.6422,0.7753,0.8189,0.9662,1.1209,1.1638,1.2857,1.4166,1.4573,1.5137,1.6108,1.7496,1.847,1.9353,2.0769,2.1821,2.2776,2.3818,2.5775,2.7617,2.8812,3.0483,3.2072,3.3411,3.4669,3.5891,3.7041,3.756,3.8259,3.9467,3.9783,4.0152,4.0745,4.0881,4.1014,4.119,4.0955,4.081,4.0808,4.062,4.06,4.0793,4.0792,4.0813,4.084,0.0,0.0,0.0,0.0,0.0,0.0,0.0,0.0,0.0,0.0,0.0,0.0,0.0,0.0,0.0,0.0,0.0,0.0,0.0,0.0,0.0,0.0,0.0,-0.3126,-0.3481,-0.3481,-0.357,-0.357,-0.4016,-0.5267,-0.5359,-0.5802,-0.6962,-0.7051,-0.7139,-0.7139,-0.7139,-0.7139,-0.7139,-0.7139,-0.7051,-0.7051,-0.7051,-0.7051,-0.6962,-0.4639,-0.357,-0.3481,-0.1076,0.0,0.0,0.0,0.0,0.0,0.0,0.0,0.0,0.0,0.0,0.009,0.009,0.0807,0.2057,0.3215,0.4463,0.5447,0.5447,0.7034,0.8715,0.7577,0.9566,1.2072,1.1042,1.2345,1.4334,1.5462,1.5696,1.6273,1.847,1.9045,1.958,2.1573,2.2776,2.3818,2.4791,2.5775,2.6953,2.8721,3.0821,3.2569,3.3463,3.4704,0.0,3.7058,3.7417,3.8112,3.9467,3.9901,4.029,4.076,4.0801,4.092,4.1171,4.095,4.08,4.0808,4.062,4.06,4.0785,4.0781,4.0696,4.0517,0.0,0.0,0.0,0.0,0.0,0.0,0.0,0.0,0.0,0.0,0.0,0.0,0.0,0.0,0.0,0.0,0.0,0.0,0.0,0.0,0.0,0.0,-0.0269,-0.0897,-0.0986,-0.1344,-0.2147,-0.2325,-0.2771,-0.4016,-0.4105,-0.4552,-0.5802,-0.6672,-0.7115,-0.7139,-0.7929,-0.8017,-0.7139,-0.7139,-0.6694,-0.5891,-0.5894,-0.5445,-0.455,-0.3037,-0.2325,-0.2236,-0.0718,0.0,0.0,0.0,0.0,0.0,0.0,0.0,0.0,0.0,0.0539,0.1344,0.1344,0.2593,0.4465,0.4821,0.5622,0.6605,0.6605,0.7661,0.8978,0.9488,1.0864,1.2419,1.2954,1.3568,1.4334,1.5462,1.6273,1.7253,1.8638,1.9599,2.0459,2.1735,2.2776,2.3818,2.4791,2.6722,2.8387,2.8925,3.0424,3.2017,3.3411,3.4333,3.5442,3.7002,3.725,3.7899,3.9443,3.9781,4.0138,4.0737,4.089,4.1029,4.1191,4.1049,4.0949,4.0962,4.0793,4.075,4.0808,4.0609,4.0473,0.0,0.0,0.0,0.0,0.0,0.0,0.0,0.0,0.0,0.0,0.0,0.0,0.0,0.0,0.0,0.0,0.0,0.0,0.0,0.0,0.0,0.0,0.0,0.0,0.0,0.0,-0.0269,-0.0986,-0.1076,-0.1522,-0.2771,-0.2858,-0.3304,-0.4552,-0.525,-0.5604,-0.562,-0.6322,-0.6319,-0.562,-0.562,-0.5354,-0.4641,-0.4641,-0.4283,-0.357,-0.2415,-0.179,-0.179,-0.0539,0.0,0.0,0.0,0.0,0.0,0.0539,0.0718,0.0718,0.0,0.0,0.0,0.0,0.4198,0.5447,0.5983,0.6517,0.7139,0.7665,0.8623,0.9749,1.0438,1.1735,1.3112,1.3294,1.4055,1.5061,1.6116,1.7172,1.831,1.9441,2.045,2.1451,2.2403,2.3441,2.4409,2.5441,2.7432,0.0,2.9002,3.0778,3.2571,3.3479,3.4399,3.5548,3.7002,3.7288,3.7947,3.9443,3.9781,4.0158,4.0719,4.0852,0.0,0.0,0.0,4.0961,4.0867,4.0809,0.0,0.0,0.0,4.0091,3.9593,3.9398,0.0,0.0,3.5148,3.3745,0.0,0.0,0.0,0.0,0.0,0.0,0.0,0.0,0.0,0.0,0.0,0.0,0.0,0.0,0.0,0.0,0.009,0.009,0.018,0.009,0.0,0.0,0.0,-0.0449,-0.1522,-0.1612,-0.2057,-0.3303,-0.3392,-0.3481,-0.357,-0.357,0.0,0.0,0.0,-0.357,-0.3392,-0.3392,-0.3303,-0.3215,-0.2147,-0.1522,-0.1342,-0.0269,0.0269,0.0449,0.0449,0.0449,0.0449,0.1522,0.2057,0.2237,0.2237,0.2237,0.2504,0.4734,0.5625,0.5714,0.6782,0.0,0.0,0.854,0.9753,1.0778,1.0778,1.2425,1.4068,1.3014,1.426,1.6108,1.7172,1.823,1.9292,2.0381,2.1379,2.2424,2.3449,2.4438,2.5539,2.6628,2.812,2.9182,2.9226,3.1588,3.3479,3.3582,3.4657,3.5907,3.7058,3.7399,3.8099,3.9449,3.988,0.0,4.0662,4.0765,4.0857,4.0996,4.0998,4.0922,4.0732,4.0715,4.0545,4.0211,4.0098,3.9544,3.8489,3.8267,3.6821,3.4281,3.3429,3.2083,0.0,0.0,0.0,0.0,0.0,0.0,0.0,0.0,0.0,0.0,0.0,0.0,0.0,0.0,0.0,0.1254,0.0628,0.0359,0.1344,0.0628,0.0,0.0,0.0,-0.009,-0.0359,-0.0359,-0.0807,-0.2057,-0.2147,-0.2592,-0.357,-0.357,-0.357,-0.357,-0.357,-0.3126,-0.2147,-0.2147,-0.1701,-0.0718,-0.0449,0.0,0.1074,0.1343,0.1969,0.2948,0.2948,0.2948,0.2948,0.3126,0.384,0.4734,0.4734,0.4734,0.4912,0.6248,0.6782,0.6782,0.7051,0.7753,0.8627,0.8803,1.0265,1.1986,1.1986,1.3594,0.0,1.5108,1.6018,1.7253,1.839,1.8798,1.9366,2.0767,2.1934,2.3097,2.4393,2.5541,2.6809,2.8562,2.9713,3.0484,3.0748,3.1908,3.2986,3.3547,3.4284,3.5397,3.7002,3.7268,3.7884,3.9443,3.9645,3.9962,4.0646,4.0757,4.0859,4.0995,4.0993,4.0977,4.0945,4.079,4.054,4.0215,3.9444,3.8841,3.8405,3.7165,3.5786,3.4264,3.2756,3.0656,0.0,0.0,0.0,0.0,0.0,0.0,0.0,0.0,0.0,0.0,0.0,0.179,0.0,0.0,0.1969,0.2592,0.2236,0.1969,0.2592,0.2147,0.1344,0.018,0.0,0.0,0.0,0.0,-0.0269,-0.0897,-0.0897,-0.0896,-0.0893,-0.0893,-0.0624,0.0,0.0,0.0267,0.0893,0.0893,0.1161,0.179,0.179,0.2147,0.2681,0.2681,0.3037,0.357,0.357,0.357,0.3659,0.4283,0.5528,0.7126,0.7126,0.6773,0.6337,0.6871,0.7492,0.8017,0.8017,0.8798,0.9836,1.0438,1.1381,1.2492,1.3672,1.4768,1.5779,1.6355,1.7458,1.8589,1.9165,1.9903,2.0766,2.202,2.3166,2.4305,2.5555,2.6614,2.7815,2.924,3.0201,3.0968,3.1582,3.3044,3.4058,3.3642,3.4447,3.5593,3.702,3.719,3.7819,3.9419,3.9599,3.9861,4.0534,4.0698,4.08,4.089,4.0873,4.085,4.085,4.0564,4.0234,3.9908,3.9048,3.834,3.7803,3.6399,3.5121,3.3891,3.182,2.9956,0.0,0.0,0.0,0.0,0.0,0.0,0.0,0.0,0.2147,0.2147,0.2948,0.357,0.357,0.357,0.3659,0.3927,0.3748,0.3659,0.3927,0.3748,0.2858,0.0897,0.0718,0.0718,0.0718,0.0718,0.0718,0.0718,0.0718,0.1165,0.2057,0.2147,0.2592,0.357,0.357,0.357,0.357,0.357,0.357,0.357,0.357,0.3748,0.3927,0.3927,0.4192,0.4632,0.4896,0.4982,0.507,0.5965,0.7559,0.9235,0.9235,0.8623,0.7749,0.7749,0.836,0.9235,0.9235,1.0009,1.1123,1.2231,1.2741,1.3334,1.5357,1.6237,1.6613,1.7514,1.8857,2.0071,2.0298,2.1318,2.2523,2.3689,2.4735,2.5707,2.6647,2.7704,2.8778,2.9852,3.0677,3.1453,3.2486,3.4432,3.547,3.419,3.5066,3.6233,3.7288,3.7279,3.7785,3.9346,3.9576,3.9842,4.0495,4.0636,4.0729,4.081,4.0739,4.0665,4.0617,4.0272,3.9901,3.951,3.8672,3.7902,3.719,3.5736,3.446,3.3276,3.0923,2.9425,-0.0894,-0.0986,-0.018,0.0,0.0807,0.1612,0.0,0.0,0.3392,0.3392,0.3481,0.357,0.357,0.357,0.3927,0.5001,0.4283,0.4016,0.509,0.4283,0.3481,0.3215,0.3213,0.3213,0.3213,0.3213,0.3213,0.3213,0.3213,0.3215,0.3392,0.3392,0.3481,0.357,0.357,0.357,0.357,0.357,0.357,0.357,0.357,0.4194,0.5179,0.5179,0.6328,0.8352,0.9387,0.9812,0.9812,0.9995,1.0173,1.0438,1.0438,1.0351,1.0178,1.0178,1.0265,1.0438,1.0438,1.1128,1.2322,1.34,1.4504,1.5523,1.6764,1.8048,1.9217,1.9308,2.0447,2.1869,2.2787,2.321,2.3689,2.5223,2.6368,2.737,2.781,2.8844,3.0163,3.1915,3.2329,3.2792,3.4046,3.5543,3.631,3.5582,3.6158,3.7055,3.8038,3.7615,3.7683,3.9026,3.9414,3.988,4.0611,4.0688,4.0723,4.0795,4.0731,4.0584,4.027,4.0157,3.9797,3.9178,3.8199,3.754,3.7173,3.4885,3.3332,3.2377,3.0156,2.8589,-0.0179,-0.0359,0.0,0.0,0.1433,0.1969,0.2681,0.3749,0.4641,0.4641,0.5176,0.562,0.562,0.562,0.58,0.0,0.598,0.58,0.6337,0.5977,0.562,0.562,0.562,0.5085,0.3748,0.357,0.357,0.357,0.357,0.3926,0.4641,0.4641,0.491,0.562,0.562,0.5971,0.6669,0.6669,0.7014,0.7701,0.7701,0.7971,0.8424,0.8424,0.8952,0.9923,1.0351,1.0611,1.0611,1.0611,1.0956,1.1552,1.1552,1.1992,1.2431,1.1128,1.1042,1.1552,1.1552,1.2741,1.435,1.4844,1.5891,1.7234,1.8305,1.9232,2.0126,2.0743,2.1572,2.2488,2.3587,2.4103,2.4748,2.6668,2.7525,2.8083,2.89,2.9871,3.0983,3.2321,3.3031,3.3805,3.4907,3.6349,3.7278,3.6974,3.7199,3.7706,3.8397,3.8086,3.8169,3.9008,3.9576,4.0021,4.0326,4.0482,4.06,4.062,4.06,4.0449,4.0157,3.9939,3.9467,3.8718,3.7817,3.6955,3.6153,3.4445,3.3203,3.2408,3.0107,2.8771,0.0718,0.0,0.0,0.2057,0.2504,0.3038,0.3927,0.4999,0.5891,0.5891,0.6517,0.7139,0.7139,0.7139,0.7139,0.7139,0.7139,0.7139,0.7139,0.7404,0.7577,0.7577,0.7837,0.7379,0.5684,0.4987,0.455,0.455,0.49,0.5435,0.6331,0.6678,0.7207,0.8009,0.8097,0.8448,0.9318,0.9405,0.9749,1.0611,1.0611,1.0611,1.0611,1.095,1.1037,1.1128,1.1386,1.1563,1.1563,1.1563,1.2077,1.2851,1.3093,1.3782,1.4398,1.299,1.2565,1.2851,1.3171,1.4398,1.5997,1.657,1.7639,1.8783,1.988,2.0495,2.1062,2.2188,2.2838,2.3497,2.4873,2.5524,2.6191,2.8096,2.8597,2.8767,2.9624,3.0558,3.1462,3.2393,3.338,3.4312,3.5359,3.6784,3.7822,3.7822,3.8173,3.8571,3.8864,3.8837,3.8977,3.9398,3.9939,4.0229,4.012,4.0356,4.0473,4.0389,4.0389,4.0212,3.984,3.9467,3.8951,3.8295,3.7416,3.6452,3.5385,3.417,3.3114,3.221,3.0271,2.9149,0.0,0.0,0.3481,0.357,0.4463,0.527,0.5359,0.6248,0.7051,0.7051,0.7051,0.7139,0.7139,0.7139,0.7139,0.7139,0.7139,0.7139,0.7139,0.8105,0.8803,0.8803,0.9836,1.0438,0.0,0.8352,0.6962,0.6962,0.8101,0.8711,0.8803,0.9836,1.0438,1.0524,1.0524,1.0524,1.0524,1.0524,1.0611,1.0611,1.0611,1.0611,1.0611,1.1724,1.2242,1.2328,1.347,1.3997,1.3997,1.3997,1.3997,1.4166,1.5213,1.5613,1.5779,1.6756,1.5786,1.4166,1.5213,1.5898,1.6669,1.8759,1.9778,2.0364,2.1515,2.2074,2.265,2.3774,2.442,2.5262,2.7406,2.7992,2.8267,2.9456,2.9792,2.9792,2.9792,3.0558,3.1462,3.2393,3.338,3.4312,3.5359,3.6784,3.7822,3.7822,3.9069,3.9963,3.9681,3.9939,4.0161,4.0253,4.0565,4.0602,4.0138,4.0356,4.0389,4.012,4.012,3.9819,3.9178,3.867,3.8277,3.7928,3.6925,3.6113,3.5385,3.417,3.2839,3.1315,3.0585,2.961,0.0,0.0,0.3748,0.4552,0.509,0.5625,0.634,0.6782,0.7316,0.8101,0.7665,0.7316,0.8105,0.7665,0.7139,0.7139,0.7139,0.7139,0.7139,0.7489,0.8017,0.8803,0.9235,0.0,0.0,0.0,0.0,0.9396,0.9836,1.0009,1.0009,1.0351,1.0611,1.0611,1.0611,1.095,1.1724,1.1724,1.2163,1.2954,1.2954,1.2954,1.2954,1.33,1.347,1.3555,1.472,1.5137,1.522,1.5959,1.6198,1.6288,1.6609,1.6764,1.6878,1.7532,1.7282,1.6705,1.7115,1.7763,1.8654,1.9665,2.0801,2.1759,2.2211,2.2598,2.3179,2.4324,2.4672,2.5284,2.751,2.8096,2.8426,2.9534,2.9792,3.0011,3.0633,3.1476,3.2393,3.338,3.4327,3.5234,3.6102,3.71,3.8149,3.9172,3.9782,4.0161,4.0298,4.0389,4.054,4.0804,4.1146,4.1266,4.1116,4.0844,4.0656,4.0568,4.0056,3.9443,3.867,3.8474,3.7935,3.6925,3.6146,3.5239,3.4219,3.3375,3.2622,3.2049,3.1287,3.0609,0.0,0.455,0.4996,0.5802,0.5983,0.6337,0.7489,0.7753,0.8101,0.9231,0.8882,0.8444,0.8803,0.8623,0.8185,0.7841,0.8097,0.8356,0.8356,0.8703,0.9222,1.0005,1.0534,1.1052,0.0,0.0,0.0,1.0697,1.0956,1.1209,1.1209,1.1649,1.1826,1.1826,1.1826,1.2169,1.2942,1.2942,1.3535,1.465,1.465,1.4901,1.5228,1.5228,1.5228,1.5311,1.5951,1.6273,1.6355,1.7009,1.7342,1.735,1.789,1.8104,1.8228,1.912,1.9353,1.9344,1.8918,1.9331,2.0171,2.0772,2.176,2.2734,2.2734,2.3169,2.3973,2.5052,2.5703,2.6438,2.8267,2.8688,2.8858,2.9624,2.9792,3.0075,3.097,3.196,3.289,3.3808,3.4839,3.5668,3.6117,3.71,3.8318,3.985,4.007,4.0246,4.0648,4.0898,4.1052,4.1194,4.1699,4.192,4.1622,4.1372,4.118,4.1098,4.0609,3.9918,3.9071,3.8873,3.8312,3.7213,3.6614,3.5799,3.4732,3.4032,3.3588,3.3258,3.2418,3.1867,0.5447,0.6248,0.7139,0.7139,0.7228,0.7489,0.8715,0.8978,0.9323,1.0438,1.0611,1.0178,0.0,0.0,1.0178,0.9148,0.9923,1.0611,1.0611,1.1552,1.2242,0.0,0.0,0.0,0.0,0.0,0.0,1.0956,1.1815,1.2413,1.2413,1.347,1.4088,1.4088,1.4088,1.4173,1.4166,1.425,1.4734,1.5779,1.5779,1.6273,1.7342,1.7342,1.7342,1.7342,1.7334,1.7423,1.7423,1.744,1.7529,1.7644,1.9163,1.9734,1.9871,2.1409,2.1924,2.1748,2.0698,2.0589,2.1167,2.2178,2.2812,2.3135,2.3135,2.3963,2.5041,2.6224,2.7279,2.8347,2.9534,2.9792,2.9792,2.9792,2.9792,3.0075,3.1044,3.196,3.289,3.3876,3.4905,3.5569,3.5619,3.6829,3.8374,3.985,4.007,4.0286,4.0827,4.1446,4.1718,4.1481,4.2298,4.2512,4.176,4.19,4.189,4.1611,4.1545,4.1106,4.0166,3.9672,3.9147,3.8563,3.8057,3.7434,3.6734,3.5964,3.53,3.4694,3.3895,3.3435,0.6428,0.6874,0.7316,0.8189,0.8452,0.8711,0.9923,1.0183,1.0524,1.1638,1.0524,0.9753,0.0,0.0,0.0,1.0096,1.0438,0.0,1.0611,1.0869,0.0,1.2242,0.0,1.3118,1.3997,1.4088,0.0,0.0,1.347,1.3646,1.3646,1.3913,1.4088,1.4088,1.4088,1.4489,1.5296,1.6116,1.6609,1.6927,1.6927,1.7017,1.7342,1.7342,1.7342,1.7342,1.823,1.855,1.8656,1.9774,2.0235,2.0282,2.1034,2.1288,2.1418,2.2104,2.2353,2.2308,2.2351,2.2227,2.2207,2.2785,2.3057,2.3222,2.4135,2.4542,2.5199,2.7186,2.7936,2.8347,2.9534,2.9792,2.9792,2.9792,2.9792,3.0216,3.1901,3.2464,3.3101,3.4773,3.58,3.6508,3.7115,3.8019,3.8978,3.9952,4.007,4.0286,4.0827,4.1446,4.1949,4.2309,4.2957,4.3244,4.3041,4.2548,4.2014,4.1467,4.0886,4.0093,3.9045,3.8893,3.858,3.8091,3.6885,3.6194,3.5964,3.4701,3.4258,3.4575,3.4343,3.4085,0.844,0.8619,0.879,0.9492,0.9666,0.9923,1.1128,1.1381,1.1643,1.2857,1.2083,0.0,0.0,0.0,0.0,0.0,0.0,0.0,1.2174,1.2174,1.2345,0.0,1.3112,0.0,1.3997,1.4088,1.4088,0.0,1.4573,1.4817,1.4817,1.5228,1.547,1.547,1.547,1.5794,1.6437,1.7009,1.7577,1.8069,1.8069,1.831,1.8789,1.8789,1.8789,1.8789,1.9432,1.979,2.0066,2.0883,2.1348,2.1562,2.1992,2.2158,2.2207,2.2627,2.2783,2.2822,2.3057,2.2988,2.2822,2.3066,2.3474,2.3963,2.4628,2.5452,2.6521,2.7752,2.8438,2.9015,2.9624,2.9792,2.9792,2.9792,3.0139,3.0846,3.2321,3.289,3.3671,3.5213,3.6117,3.6859,3.7632,3.8414,3.9193,3.9952,4.007,4.0204,4.0497,4.1059,4.1621,4.2244,4.2808,4.3142,4.3142,4.2741,4.2213,4.1626,4.1135,4.0524,3.9638,3.9593,3.9353,3.8853,3.7722,3.7102,3.7102,3.5587,3.5048,3.5413,3.5097,3.4842,1.0611,1.0611,1.0611,1.0778,1.0869,1.1128,1.2242,1.2504,1.2851,1.3906,0.0,1.3555,1.2674,1.3294,1.3561,1.2674,0.0,1.4088,1.4088,1.4088,1.4088,1.4088,1.425,1.4328,1.4328,1.4412,1.4496,1.4496,1.5545,1.6026,1.5696,1.6683,1.7342,1.7342,1.7423,1.7496,1.7496,1.7658,1.8221,1.9195,1.9195,1.9678,2.0566,2.0566,2.0596,2.0654,2.0654,2.0908,2.1328,2.1377,2.1631,2.2012,2.2432,2.2598,2.2637,2.2998,2.3222,2.3299,2.3299,2.3387,2.356,2.3387,2.3963,2.4872,2.5115,2.6603,2.8096,2.8255,2.9028,2.9792,2.9792,2.9792,2.9792,2.9792,3.0622,3.1582,3.2503,3.3648,3.4709,3.5598,3.625,3.7002,3.7902,3.8513,3.9181,4.0104,4.0138,4.007,4.007,4.0577,4.1087,4.1621,4.2203,4.2577,4.2577,4.2577,4.2342,4.1707,4.1664,4.1402,4.0827,4.078,4.0577,4.0121,3.9315,3.8908,3.8908,3.735,3.6615,3.6615,3.5831,3.5504,1.0611,1.0611,1.0869,1.1815,1.1986,1.2328,1.3555,1.3822,0.0,0.0,0.0,1.2851,1.3646,1.3118,0.0,1.3646,0.0,0.0,0.0,0.0,1.4088,0.0,0.0,0.0,0.0,0.0,0.0,0.0,1.7819,1.7649,1.5779,1.6683,1.7342,1.7342,1.823,1.8718,1.8718,1.9599,2.0157,2.0323,2.0323,2.0401,2.0566,2.0566,2.0762,2.1123,2.1123,2.1367,2.1797,2.2148,2.2334,2.2441,2.2861,2.3027,2.3037,2.3105,2.3714,2.4542,2.4542,2.5136,2.5724,2.4798,2.4617,2.5115,2.693,2.7763,2.8267,2.9275,2.9624,2.9792,2.9792,2.9792,2.9792,2.9792,3.0932,3.2284,3.3207,3.5208,3.6856,3.7007,3.7196,3.775,3.9275,3.9113,3.9308,4.0776,4.0476,4.007,4.007,4.0577,4.0949,4.1041,4.1578,4.1937,4.1937,4.1937,4.1707,4.1087,4.1041,4.078,4.0237,4.0254,4.0221,4.007,3.9315,3.8908,3.8908,3.735,3.6615,3.6615,3.5831,3.5504,1.2431,1.2431,1.2516,1.3118,1.3203,1.3379,1.3997,0.0,0.0,0.0,0.0,1.3379,1.3997,0.0,0.0,0.0,0.0,0.0,0.0,0.0,0.0,0.0,0.0,0.0,0.0,0.0,1.7342,1.7342,1.839,1.855,1.7488,1.8461,1.9027,1.9027,1.952,1.9835,1.9835,2.0323,2.0566,2.0566,2.0566,2.0566,2.0576,2.081,2.1035,2.125,2.1475,2.1816,2.2227,2.2432,2.2646,2.2861,2.3057,2.3464,2.3963,2.3963,2.4713,2.5714,2.5714,2.6058,2.6472,2.6532,2.6521,2.6685,2.7763,2.8505,2.9106,2.9624,2.9792,2.9854,3.0143,3.0218,3.0438,3.1241,3.2836,3.443,3.5382,3.6516,3.7404,3.7404,3.7729,3.8415,3.9702,3.9914,4.0345,4.1586,4.1457,4.1102,4.0713,4.0915,4.1023,4.0908,4.1178,4.1313,4.1313,4.1313,4.1087,4.0546,4.0497,4.0368,4.0121,4.007,3.9901,3.9489,3.8707,3.8117,3.77,3.6569,3.6054,3.6006,3.5668,3.5504,1.4088,1.4088,1.4088,1.4088,1.4088,1.4088,1.4088,1.4088,0.0,0.0,0.0,1.4088,1.4088,0.0,0.0,0.0,0.0,0.0,0.0,0.0,0.0,0.0,0.0,0.0,0.0,0.0,0.0,1.798,1.8877,1.9362,1.9362,2.0157,2.0566,2.0566,2.0566,2.0566,2.0566,2.0566,2.0566,2.0566,2.0664,2.0713,2.0723,2.1172,2.1426,2.1523,2.1865,2.2256,2.2646,2.2646,2.2918,2.3474,2.3222,2.38,2.4787,2.4787,2.5546,2.6565,2.6801,2.6964,2.7383,2.8187,2.8267,2.8176,2.8426,2.9192,2.9967,2.9967,3.0043,3.0231,3.067,3.0783,3.1217,3.3066,3.4699,3.623,3.7585,3.7838,3.7838,3.7838,3.8356,3.9044,3.9898,4.0571,4.1255,4.2181,4.2281,4.2083,4.1508,4.1441,4.1376,4.1206,4.094,4.075,4.075,4.075,4.0528,4.0121,4.007,4.007,4.007,4.007,3.9782,3.9139,3.8596,3.7905,3.7068,3.6352,3.591,3.5718,3.5554,3.5504,1.4088,1.4088,1.4088,1.4088,1.4088,1.4088,1.4088,0.0,0.0,0.0,1.4088,1.4088,1.4088,0.0,0.0,0.0,0.0,0.0,0.0,0.0,0.0,0.0,0.0,0.0,0.0,1.9756,2.0323,2.0323,2.0401,2.0479,2.0479,2.0566,2.0566,2.0566,2.0566,2.0566,2.0566,2.0566,2.0566,2.0566,2.0977,2.1172,2.1182,2.1621,2.2031,2.2393,2.2441,2.2695,2.3076,2.3076,2.3684,2.4542,2.3464,2.38,2.4787,2.4787,2.5546,2.6648,2.7602,2.8609,2.9534,2.9624,2.8937,2.8267,2.9365,3.0052,3.0545,3.0545,3.0884,3.1248,3.1298,3.1323,3.2005,3.458,3.5335,3.6189,3.8633,3.923,3.923,3.923,3.9301,3.9612,4.0504,4.0767,4.1187,4.2104,4.2256,4.2269,4.2202,4.2185,4.2221,4.2189,4.0968,4.0154,4.0154,4.0154,4.0171,4.0121,4.007,4.007,4.007,4.007,4.007,4.0003,3.9901,3.9489,3.869,3.7978,3.7219,3.6492,3.5846,3.5504,1.4088,1.4088,1.425,1.4894,1.4573,1.425,1.4894,0.0,0.0,1.4088,1.4088,1.4088,1.4088,0.0,0.0,0.0,0.0,0.0,0.0,0.0,0.0,0.0,0.0,0.0,0.0,0.0,2.0566,2.0566,2.0566,2.0566,2.0566,2.0566,2.0566,2.0566,2.0566,2.0566,2.0566,2.0566,2.0703,2.0967,2.1152,2.1367,2.1641,2.207,2.2353,2.2519,2.2783,2.2988,2.3135,2.3135,2.38,2.4787,2.4296,2.5199,2.6767,2.6767,2.7533,2.8542,2.8949,2.9667,3.0281,3.0281,3.0152,3.0084,3.0211,3.0658,3.1085,3.1085,3.1235,3.1461,3.18,3.3053,3.454,3.5654,3.6897,3.8076,3.9205,3.9424,3.9424,3.9424,3.9424,3.9681,4.0554,4.1191,4.185,4.2742,4.3304,4.3504,4.3031,4.2963,4.2794,4.2337,4.1373,4.0747,4.0747,4.0341,4.007,4.007,4.007,4.007,4.007,3.961,3.9156,3.8707,3.823,3.76,3.6874,3.6538,3.6258,3.5943,3.5619,3.5504,1.4088,1.4328,1.4734,1.5538,1.5137,1.4734,0.0,0.0,0.0,1.4088,1.4088,1.4088,1.4088,0.0,0.0,0.0,0.0,0.0,0.0,0.0,0.0,0.0,0.0,2.0566,0.0,2.0566,2.0566,2.0566,2.0566,2.0566,2.0566,2.0566,2.0566,2.0566,2.0566,2.0566,2.0566,2.0703,2.0918,2.124,2.1494,2.1777,2.209,2.251,2.2705,2.2715,2.3008,2.3299,2.3637,2.3637,2.4457,2.5703,2.5031,2.6108,2.8084,2.7763,2.8359,2.939,2.9889,3.0281,3.0645,3.0796,3.1198,3.1574,3.1198,3.1348,3.1637,3.1637,3.1763,3.1976,3.2365,3.4088,3.5814,3.6132,3.7572,3.9017,3.9337,3.9424,3.9424,3.9424,3.9424,3.961,4.0185,4.1013,4.1933,4.2785,4.368,4.4125,4.377,4.3758,4.3555,4.3031,4.2303,4.1762,4.1542,4.1035,4.073,4.073,4.073,4.0629,4.0409,3.9876,3.9209,3.8486,3.7716,3.7013,3.6501,3.6262,3.611,3.6073,3.6073,3.6073,1.4088,1.4894,1.5703,1.5696,1.5696,1.5703,0.0,0.0,0.0,1.4088,1.4088,1.4088,1.4088,0.0,0.0,0.0,0.0,0.0,0.0,0.0,0.0,0.0,0.0,2.0566,2.0566,2.0566,2.0566,2.0566,2.0566,2.0566,2.0566,2.0566,2.0566,2.0566,2.0566,2.0566,2.0566,2.1006,2.123,2.125,2.209,2.25,2.2519,2.2939,2.3135,2.3135,2.3135,2.3714,2.4787,2.4787,2.6108,2.7844,2.5692,2.6108,2.7936,2.6883,2.7209,2.8339,2.9985,3.0608,3.0708,3.1223,3.175,3.2202,3.2202,3.2202,3.2202,3.2202,3.2616,3.3056,3.3068,3.3869,3.4979,3.5974,3.7021,3.8069,3.9177,3.9424,3.9424,3.9424,3.9424,3.9424,3.9409,4.0115,4.1013,4.1869,4.2785,4.3621,4.4497,4.457,4.4553,4.4553,4.3859,4.3098,4.2337,4.2269,4.2269,4.2269,4.2269,4.1948,4.1221,4.1187,4.0849,4.0087,3.9315,3.8811,3.8727,3.7981,3.7544,3.7389,3.7389,3.7389,1.4088,1.4334,1.4817,1.5538,1.5137,1.4817,1.5538,0.0,0.0,0.0,1.4088,1.4088,1.4088,1.4088,0.0,0.0,0.0,0.0,0.0,0.0,0.0,0.0,0.0,2.0566,0.0,0.0,2.0566,2.0566,2.0566,2.0566,2.0566,2.0566,2.0566,2.0566,2.0859,2.1025,2.1025,2.1455,2.1826,2.2109,2.2383,2.2656,2.2939,2.3076,2.3135,2.3135,2.3135,2.3299,2.3637,2.3637,2.4967,2.6964,2.6224,2.729,2.9246,2.9285,2.9499,2.9918,3.0866,3.1399,3.1738,3.1901,3.234,3.2805,3.2805,3.2805,3.2805,3.2805,3.293,3.3081,3.3081,3.3869,3.4979,3.5974,3.7021,3.8069,3.9177,3.9424,3.9424,3.9424,3.9424,3.9424,3.9424,4.0115,4.0811,4.108,4.2395,4.3366,4.3697,4.4253,4.4587,4.4587,4.435,4.3893,4.3132,4.2591,4.2286,4.2286,4.2286,4.1937,4.1122,4.0566,3.993,3.9109,3.8294,3.7861,3.7846,3.7597,3.7451,3.7404,3.7404,3.7659,0.0,1.4412,1.4894,1.5538,1.522,0.0,0.0,0.0,0.0,0.0,0.0,1.4088,1.4088,1.4088,1.4334,0.0,0.0,0.0,0.0,0.0,0.0,0.0,0.0,0.0,0.0,2.0566,2.0566,2.0566,2.0566,2.0566,2.0566,2.0723,2.082,2.082,2.1094,2.1318,2.1475,2.1904,2.2256,2.251,2.2676,2.3044,2.3714,2.3299,2.3299,2.3714,2.3309,2.3551,0.0,2.4392,2.5724,2.7718,2.729,2.8331,3.0065,2.9967,3.0388,3.0984,3.1524,3.1926,3.2252,3.2466,3.278,3.3081,3.3081,3.3081,3.3081,3.3081,3.3081,3.3081,3.3081,3.3869,3.4979,3.5974,3.7021,3.8069,3.9177,3.9424,3.9424,3.9424,3.9424,3.9424,3.9424,3.9864,4.0309,4.0622,4.1933,4.2909,4.3246,4.4064,4.4587,4.4587,4.4587,4.4384,4.391,4.342,4.3149,4.3149,4.3149,4.2651,4.1511,4.1026,4.0235,3.9061,3.8233,3.7985,3.8228,3.8172,3.8167,3.8167,3.8167,3.8392,0.0,0.0,0.0,0.0,0.0,0.0,0.0,0.0,0.0,0.0,0.0,1.4088,1.4088,1.4166,1.4901,0.0,0.0,0.0,0.0,0.0,0.0,0.0,2.0586,0.0,2.0605,2.0615,2.0615,2.0615,2.0635,2.0654,2.0654,2.1055,2.1289,2.1318,2.1328,2.1523,2.1924,2.2428,2.2634,2.2568,2.3036,2.3714,2.4617,2.3551,2.3714,2.4702,2.3714,2.4478,2.6483,2.6483,2.7799,2.9546,2.8554,2.9132,3.0448,2.9479,3.0147,3.1524,3.2089,3.2277,3.2365,3.2905,3.3081,3.3081,3.3081,3.3081,3.3081,3.3081,3.3081,3.3081,3.3081,3.3869,3.4979,3.5974,3.7021,3.8069,3.9177,3.9424,3.9424,3.9424,3.9424,3.9424,3.9424,3.9424,3.9666,4.05,4.1346,4.2189,4.2986,4.3931,4.4514,4.4514,4.457,4.4587,4.4587,4.4587,4.4587,4.4587,4.4514,4.382,4.2318,4.215,4.1406,3.9877,3.9074,3.8943,3.9591,3.9436,3.9424,3.9424,3.9424,3.9424,0.0,0.0,0.0,0.0,0.0,0.0,0.0,0.0,0.0,0.0,0.0,1.4088,1.4088,1.4734,0.0,0.0,0.0,0.0,0.0,0.0,0.0,0.0,2.0771,2.0703,2.1045,2.1074,2.1074,2.1074,2.1387,2.1572,2.1572,2.168,2.1885,2.2207,2.2207,2.2266,2.2363,2.3588,2.3811,2.2998,2.3912,2.4049,2.3464,2.3222,2.3714,2.4787,2.4542,2.5221,2.6483,2.6483,2.729,2.8474,2.8617,2.946,3.0628,3.1183,3.1639,3.2102,3.2667,3.2867,3.2893,3.3031,3.3081,3.3081,3.3081,3.3081,3.3081,3.3081,3.3081,3.3081,3.3081,3.3869,3.4979,3.5974,3.7021,3.8069,3.9177,3.9424,3.9424,3.9424,3.9424,3.9424,3.9424,3.9424,3.9481,3.9666,4.0432,4.108,4.128,4.2645,4.3621,4.3621,4.4196,4.4587,4.4587,4.4587,4.4587,4.4587,4.3989,4.342,4.3059,4.1741,4.0884,4.0478,3.9657,3.9289,3.944,3.9406,3.9424,3.9424,3.9424,3.9424,0.0,0.0,0.0,0.0,0.0,0.0,0.0,0.0,0.0,0.0,0.0,0.0,1.481,0.0,0.0,0.0,0.0,0.0,0.0,0.0,0.0,2.1201,2.1191,2.1191,2.123,2.1416,2.1533,2.1533,2.1748,2.1885,2.1885,2.207,2.2275,2.251,2.2705,2.2803,2.2803,2.3604,2.3714,2.3135,2.4296,2.4713,2.4638,2.4638,2.5305,2.6273,2.5797,2.6213,2.7197,2.7197,2.7997,2.9248,2.9541,3.0387,3.1424,3.2001,3.2378,3.2654,3.2968,3.3081,3.3081,3.3081,3.3081,3.3081,3.3081,3.3081,3.3081,3.3081,3.3081,3.3081,3.3081,3.3869,3.4979,3.5974,3.7021,3.8069,3.9177,3.9424,3.9424,3.9424,3.9424,3.9424,3.9424,3.9424,3.9424,3.9424,4.0115,4.069,4.069,4.1869,4.2847,4.3246,4.3739,4.4196,4.457,4.4587,4.4587,4.4587,4.4138,4.3562,4.2724,4.1804,4.0894,4.0115,3.961,3.9424,3.9424,3.9424,3.9424,3.9424,3.9424,3.9424,0.0,0.0,0.0,0.0,0.0,0.0,0.0,0.0,0.0,0.0,0.0,0.0,0.0,0.0,0.0,0.0,0.0,0.0,0.0,0.0,0.0,2.1318,2.1602,2.1699,2.1445,2.1768,2.1982,2.1982,2.2041,2.2154,2.231,2.2656,2.2928,2.3098,2.3448,2.3637,2.3637,2.3637,2.3637,2.3637,2.4787,2.5714,2.6483,2.6483,2.7128,2.8016,2.7128,2.7371,2.8347,2.8431,2.9328,3.0633,3.0796,3.1411,3.2227,3.2303,3.2654,3.3081,3.3081,3.3081,3.3081,3.3081,3.3081,3.3081,3.3081,3.3081,3.3081,3.3081,3.3081,3.3081,3.3081,3.3869,3.4979,3.5974,3.7021,3.8069,3.9177,3.9424,3.9424,3.9424,3.9424,3.9424,3.9424,3.9424,3.9424,3.9424,4.006,4.05,4.05,4.128,4.2062,4.2847,4.3047,4.3426,4.4121,4.4179,4.4253,4.4384,4.4253,4.341,4.1674,4.1739,4.1028,3.9424,3.9424,3.9424,3.9424,3.9424,3.9424,3.9424,3.9424,3.9424,1.4088,0.0,0.0,0.0,0.0,0.0,0.0,0.0,0.0,0.0,0.0,0.0,0.0,0.0,0.0,0.0,0.0,0.0,0.0,0.0,2.0947,2.1699,0.0,2.1592,2.2256,2.2373,2.2412,2.2412,2.2744,2.3361,2.4335,2.4397,2.4862,2.5865,2.5942,2.5975,2.5975,2.5975,2.5975,2.5975,2.7116,2.7197,2.6483,2.6483,2.7128,2.8096,2.7936,2.8518,2.9571,3.0032,3.0361,3.0708,3.1612,3.2077,3.2277,3.2767,3.3006,3.3081,3.3081,3.3081,3.3081,3.3081,3.3081,3.3081,3.3081,3.3081,3.3081,3.3081,3.3081,3.3081,3.3081,3.3869,3.4979,3.5974,3.7021,3.8069,3.9177,3.9424,3.9424,3.9424,3.9424,3.9424,3.9424,3.9424,3.9424,3.9424,3.9538,3.961,3.961,4.0378,4.0946,4.108,4.1739,4.2252,4.2379,4.2379,4.2707,4.3426,4.2785,4.1609,3.9864,4.05,4.0447,3.9409,3.9424,3.9424,3.9424,3.9424,3.9424,3.9424,3.9424,3.9424,1.4088,1.4088,0.0,0.0,0.0,0.0,0.0,0.0,0.0,0.0,0.0,0.0,0.0,0.0,0.0,0.0,0.0,2.0654,2.0889,2.1133,2.1435,0.0,2.2109,2.2324,2.249,2.2715,2.2852,2.2852,2.3614,2.4211,2.4787,2.5378,2.5975,2.6472,2.6483,2.6801,2.7371,2.736,2.7046,2.6472,2.7602,2.7844,2.7371,2.7959,2.8542,2.9028,2.9028,2.9448,3.0256,3.0507,3.0959,3.1524,3.2026,3.2403,3.2717,3.298,3.3081,3.3081,3.3081,3.3081,3.3081,3.3081,3.3081,3.3081,3.3081,3.3081,3.3081,3.3081,3.3081,3.3081,3.3081,3.3869,3.4979,3.5974,3.7021,3.8069,3.9177,3.9424,3.9424,3.9424,3.9424,3.9424,3.9424,3.9424,3.9424,3.9424,3.9424,3.9424,3.9424,3.9737,4.0185,4.0622,4.108,4.1478,4.1933,4.1997,4.2189,4.2583,4.2189,4.1412,4.0185,4.0045,3.9793,3.9424,3.9424,3.9424,3.9424,3.9424,3.9424,3.9424,3.9424,3.9424,1.4088,1.4088,1.4088,0.0,0.0,0.0,0.0,0.0,0.0,0.0,0.0,0.0,0.0,0.0,0.0,0.0,2.0566,2.0684,2.1025,2.1455,2.1777,2.1875,2.2539,2.2987,2.2998,2.3361,2.3637,2.3887,2.4713,2.5294,2.5535,2.6378,2.6964,2.7221,2.7302,2.7706,2.8518,2.8518,2.8108,2.7302,2.8108,2.8518,2.8518,2.9365,2.9792,2.9804,2.993,3.0231,3.0633,3.0884,3.1474,3.2227,3.2365,3.2692,3.3081,3.3081,3.3081,3.3081,3.3081,3.3081,3.3081,3.3081,3.3081,3.3081,3.3081,3.3081,3.3081,3.3081,3.3081,3.3081,3.3081,3.3713,3.4664,3.5894,3.6852,3.7814,3.9104,3.9424,3.9424,3.9424,3.9424,3.9424,3.9424,3.9424,3.9424,3.9424,3.9424,3.9424,3.9424,3.9424,3.9681,4.0309,4.0363,4.0706,4.1346,4.1609,4.1609,4.1412,4.1412,4.1147,4.0758,3.9864,3.9424,3.9424,3.9424,3.9424,3.9424,3.9424,3.9424,3.9424,3.9424,3.9424,1.4088,1.4088,0.0,0.0,0.0,0.0,0.0,0.0,0.0,0.0,0.0,0.0,0.0,0.0,0.0,0.0,2.0566,2.0576,2.0605,0.0,2.1426,2.1836,2.2285,2.3103,2.4544,2.4692,2.5126,2.6141,2.6307,2.6789,2.7844,2.7924,2.8438,2.9546,2.9546,2.9624,2.9702,2.9702,2.9624,2.9546,2.9624,2.9702,2.9702,2.9792,2.9792,2.9817,3.0331,3.0583,3.0696,3.1687,3.2139,3.2265,3.2805,3.3043,3.3081,3.3081,3.3081,3.3081,3.3081,3.3081,3.3081,3.3081,3.3081,3.3081,3.3081,3.3081,3.3081,3.3081,3.3081,3.3081,3.3081,3.3154,3.37,3.5734,3.6277,3.6838,3.8929,3.9424,3.9424,3.9424,3.9424,3.9424,3.9424,3.9424,3.9424,3.9424,3.9424,3.9424,3.9424,3.9424,3.9409,3.9481,3.9481,3.9553,3.961,4.0309,4.0432,3.961,3.961,3.992,4.069,3.9864,3.9424,3.9424,3.9424,3.9424,3.9424,3.9424,3.9424,3.9424,3.9424,3.9424,1.4088,1.4088,0.0,0.0,0.0,0.0,0.0,0.0,0.0,0.0,0.0,0.0,0.0,0.0,0.0,2.0566,2.0566,2.0664,2.0947,2.1357,2.2034,2.3176,2.3698,2.445,2.5703,2.5891,2.6058,2.6483,2.7128,2.7683,2.8096,2.8767,2.9365,2.9792,2.9792,2.9792,2.9792,2.9792,2.9792,2.9792,2.9792,2.9792,2.9792,2.9792,2.998,3.0319,3.052,3.0997,3.1637,3.2039,3.2428,3.2767,3.2993,3.3081,3.3081,3.3081,3.3081,3.3081,3.3081,3.3081,3.3081,3.3081,3.3081,3.3081,3.3081,3.3081,3.3081,3.3081,3.3081,3.3081,3.3081,3.3556,3.4415,3.5894,3.6682,3.7587,3.909,3.9424,3.9424,3.9424,3.9424,3.9424,3.9424,3.9424,3.9424,3.9424,3.9424,3.9424,3.9424,3.9424,3.9424,3.9424,3.9424,3.9424,3.9424,3.9666,3.999,4.0185,4.0185,4.0115,3.9935,3.961,3.9424,3.9424,3.9424,3.9424,3.9424,3.9424,3.9424,3.9424,3.9424,3.9424,1.4088,1.4334,0.0,0.0,0.0,0.0,0.0,0.0,0.0,0.0,0.0,0.0,0.0,0.0,0.0,0.0,2.0566,2.0723,2.1172,2.1917,2.2818,2.4063,2.4849,2.5797,2.6871,2.7046,2.7128,2.7545,2.8199,2.8597,2.8597,2.9365,2.9792,2.9792,2.9792,2.9792,2.9792,2.9792,2.9792,2.9792,2.9792,2.9792,2.9804,2.998,3.0256,3.0633,3.0972,3.1537,3.2227,3.2416,3.2717,3.3081,3.3081,3.3081,3.3081,3.3081,3.3081,3.3081,3.3081,3.3081,3.3081,3.3081,3.3081,3.3081,3.3081,3.3081,3.3081,3.3081,3.3081,3.3081,3.3081,3.3869,3.4979,3.5974,3.7021,3.8069,3.9177,3.9424,3.9424,3.9424,3.9424,3.9424,3.9424,3.9424,3.9424,3.9424,3.9424,3.9424,3.9424,3.9424,3.9424,3.9424,3.9424,3.9424,3.9424,3.9424,3.9666,4.0239,4.0309,4.0115,3.9793,3.9553,3.9424,3.9424,3.9424,3.9424,3.9424,3.9424,3.9424,3.9424,3.9424,3.9424,1.4088,0.0,0.0,0.0,0.0,0.0,0.0,0.0,0.0,0.0,0.0,0.0,0.0,0.0,0.0,2.0566,2.0644,2.0723,2.1182,2.2522,2.3671,2.4145,2.5607,2.6964,2.8016,2.8096,2.8597,2.9702,2.9792,2.9792,2.9792,2.9792,2.9792,2.9792,2.9792,2.9792,2.9792,2.9792,2.9792,2.9792,2.9804,2.9804,2.9817,3.0369,3.062,3.0683,3.175,3.2215,3.2265,3.2842,3.3081,3.3081,3.3081,3.3081,3.3081,3.3081,3.3081,3.3081,3.3081,3.3081,3.3081,3.3081,3.3081,3.3081,3.3081,3.3081,3.3081,3.3081,3.3081,3.3081,3.3081,3.3869,3.4979,3.5974,3.7021,3.8069,3.9177,3.9424,3.9424,3.9424,3.9424,3.9424,3.9424,3.9424,3.9424,3.9424,3.9424,3.9424,3.9424,3.9424,3.9424,3.9424,3.9424,3.9424,3.9424,3.9424,3.9424,3.9424,3.9424,3.9793,4.0622,3.9864,3.9424,3.9424,3.9424,3.9424,3.9424,3.9424,3.9424,3.9424,3.9424,3.9424,1.4088,0.0,0.0,0.0,0.0,0.0,0.0,0.0,0.0,0.0,0.0,0.0,0.0,0.0,0.0,2.0566,2.1504,2.2397,2.2773,2.4175,2.5608,2.6829,2.7348,2.8108,2.9197,2.9287,2.9456,2.9792,2.9792,2.9792,2.9792,2.9792,2.9792,2.9792,2.9792,2.9792,2.9792,2.9792,2.9792,2.9792,3.0181,3.0369,3.0382,3.0545,3.1022,3.1763,3.2077,3.2441,3.283,3.3006,3.3081,3.3081,3.3081,3.3081,3.3081,3.3081,3.3081,3.3081,3.3081,3.3081,3.3081,3.3081,3.3081,3.3081,3.3081,3.3081,3.3081,3.3081,3.3081,3.3081,3.3081,3.4415,3.5814,3.6132,3.7021,3.8069,3.9177,3.9424,3.9424,3.9424,3.9424,3.9424,3.9424,3.9424,3.9424,3.9424,3.9424,3.9424,3.9424,3.9424,3.9424,3.9424,3.9424,3.9424,3.9424,3.9424,3.9424,3.9424,3.9424,3.9553,3.9793,3.9553,3.9424,3.9424,3.9424,3.9424,3.9424,3.9424,3.9424,3.9424,3.9424,3.9424,1.5228,0.0,0.0,0.0,0.0,0.0,0.0,0.0,0.0,0.0,0.0,0.0,2.0566,2.0713,0.0,2.083,2.1809,2.2793,2.3633,2.4982,2.6394,2.7945,2.8518,2.9028,2.9702,2.9792,2.9792,2.9792,2.9792,2.9792,2.9792,2.9792,2.9792,2.9792,2.9792,2.9792,2.9792,2.9792,2.9905,3.0118,3.0457,3.0834,3.1248,3.1248,3.1599,3.2227,3.2453,3.2754,3.3081,3.3081,3.3081,3.3081,3.3081,3.3081,3.3081,3.3081,3.3081,3.3081,3.3081,3.3081,3.3081,3.3081,3.3081,3.3081,3.3081,3.3081,3.3081,3.3081,3.3081,3.3081,3.3081,3.4024,3.5197,3.596,3.7329,3.862,3.9265,3.9424,3.9424,3.9424,3.9424,3.9424,3.9424,3.9424,3.9424,3.9424,3.9424,3.9424,3.9424,3.9424,3.9424,3.9424,3.9424,3.9424,3.9424,3.9424,3.9424,3.9424,3.9424,3.9424,3.9424,3.9424,3.9424,3.9424,3.9424,3.9424,3.9424,3.9424,3.9424,3.9424,3.9424,3.9424,0.0,0.0,0.0,0.0,0.0,0.0,0.0,0.0,0.0,0.0,0.0,0.0,2.0625,2.1036,2.132,2.1289,2.1895,2.2869,2.4145,2.5363,2.6691,2.8128,2.9197,2.9792,2.9792,2.9792,2.9792,2.9792,2.9792,2.9792,2.9792,2.9792,2.9792,2.9792,2.9792,2.9792,2.9792,2.9842,3.0118,3.062,3.0721,3.1273,3.2215,3.2215,3.224,3.2328,3.2855,3.3081,3.3081,3.3081,3.3081,3.3081,3.3081,3.3081,3.3081,3.3081,3.3081,3.3081,3.3081,3.3081,3.3081,3.3081,3.3081,3.3081,3.3081,3.3081,3.3081,3.3081,3.3081,3.3081,3.3081,3.3154,3.3713,3.5734,3.7724,3.9177,3.9337,3.9424,3.9424,3.9424,3.9424,3.9424,3.9424,3.9424,3.9424,3.9424,3.9424,3.9424,3.9424,3.9424,3.9424,3.9424,3.9424,3.9424,3.9424,3.9424,3.9424,3.9424,3.9424,3.9424,3.9424,3.9424,3.9424,3.9424,3.9424,3.9424,3.9424,3.9424,3.9424,3.9424,3.9424,3.9424,0.0,0.0,0.0,0.0,0.0,0.0,0.0,0.0,0.0,0.0,0.0,2.0674,2.1025,2.1847,2.2336,2.1843,2.432,2.6086,2.5561,2.7455,2.9073,2.9353,2.9624,2.9792,2.9792,2.9792,2.9792,2.9792,2.9792,2.9792,2.9792,2.9792,2.9792,2.9792,2.9792,2.9792,2.9792,3.0218,3.0507,3.062,3.1461,3.1989,3.2215,3.2215,3.2466,3.2893,3.3018,3.3081,3.3081,3.3081,3.3081,3.3081,3.3081,3.3081,3.3081,3.3081,3.3081,3.3081,3.3081,3.3081,3.3081,3.3081,3.3081,3.3081,3.3081,3.3081,3.3081,3.3081,3.3081,3.3081,3.3081,3.3713,3.4664,3.5894,3.6526,3.7329,3.9017,3.9424,3.9424,3.9424,3.9424,3.9424,3.9424,3.9424,3.9424,3.9424,3.9424,3.9424,3.9424,3.9424,3.9424,3.9424,3.9424,3.9424,3.9424,3.9424,3.9424,3.9424,3.9424,3.9424,3.9424,3.9424,3.9424,3.9424,3.9424,3.9424,3.9424,3.9424,3.9424,3.9424,3.9424,3.9424,0.0,0.0,0.0,0.0,0.0,0.0,0.0,0.0,0.0,0.0,2.0889,2.1025,2.1465,2.2179,2.2778,2.2939,2.4783,2.6392,2.6806,2.81,2.9197,2.9714,2.9792,2.9792,2.9792,2.9792,2.9792,2.9792,2.9792,2.9792,2.9792,2.9792,2.9792,2.9792,2.9792,2.9792,2.9792,3.0331,3.0746,3.0997,3.1825,3.2353,3.2629,3.2629,3.2792,3.3081,3.3081,3.3081,3.3081,3.3081,3.3081,3.3081,3.3081,3.3081,3.3081,3.3081,3.3081,3.3081,3.3081,3.3081,3.3081,3.3081,3.3081,3.3081,3.3081,3.3081,3.3081,3.3081,3.3081,3.3081,3.3081,3.3471,3.4191,3.5197,3.6225,3.7405,3.9017,3.9424,3.9424,3.9424,3.9424,3.9424,3.9424,3.9424,3.9424,3.9424,3.9424,3.9424,3.9424,3.9424,3.9424,3.9424,3.9424,3.9424,3.9424,3.9424,3.9424,3.9424,3.9424,3.9424,3.9424,3.9424,3.9424,3.9424,3.9424,3.9424,3.9424,3.9424,3.9424,3.9424,3.9424,3.9424,0.0,0.0,0.0,0.0,0.0,0.0,0.0,0.0,0.0,0.0,2.1467,2.1556,2.2152,2.2758,2.3429,2.4386,2.5204,2.6191,2.7844,2.8255,2.8767,2.9702,2.9792,2.9792,2.9792,2.9792,2.9792,2.9792,2.9792,2.9792,2.9792,2.9792,2.9792,2.9792,2.9792,2.9842,2.993,3.0482,3.1009,3.1537,3.2089,3.2616,3.3081,3.3081,3.3081,3.3081,3.3081,3.3081,3.3081,3.3081,3.3081,3.3081,3.3081,3.3081,3.3081,3.3081,3.3081,3.3081,3.3081,3.3081,3.3081,3.3081,3.3081,3.3081,3.3081,3.3081,3.3081,3.3081,3.3081,3.3081,3.3081,3.3081,3.3398,3.4428,3.616,3.7829,3.887,3.9265,3.9424,3.9424,3.9424,3.9424,3.9424,3.9424,3.9424,3.9424,3.9424,3.9424,3.9424,3.9424,3.9424,3.9424,3.9424,3.9424,3.9424,3.9424,3.9424,3.9424,3.9424,3.9424,3.9424,3.9424,3.9424,3.9424,3.9424,3.9424,3.9424,3.9424,3.9424,3.9424,3.9424,3.9424,0.0,0.0,0.0,0.0,0.0,0.0,0.0,0.0,0.0,0.0,2.2766,2.2244,2.3629,2.4729,2.5544,2.614,2.7832,2.887,2.8176,2.8937,2.9624,2.9792,2.9792,2.9792,2.9792,2.9792,2.9792,2.9792,2.9792,2.9792,2.9792,2.9792,2.9792,2.9792,2.9792,3.0018,3.0507,3.1022,3.1562,3.2102,3.2692,3.3006,3.3081,3.3081,3.3081,3.3081,3.3081,3.3081,3.3081,3.3081,3.3081,3.3081,3.3081,3.3081,3.3081,3.3081,3.3081,3.3081,3.3081,3.3081,3.3081,3.3081,3.3081,3.3081,3.3081,3.3081,3.3081,3.3081,3.3081,3.3081,3.3081,3.3081,3.3398,3.4428,3.5601,3.6682,3.7753,3.8708,3.9424,3.9424,3.9424,3.9424,3.9424,3.9424,3.9424,3.9424,3.9424,3.9424,3.9424,3.9424,3.9424,3.9424,3.9424,3.9424,3.9424,3.9424,3.9424,3.9424,3.9424,3.9424,3.9424,3.9424,3.9424,3.9424,3.9424,3.9424,3.9424,3.9424,3.9424,3.9424,3.9424,3.9424,0.0,0.0,0.0,0.0,0.0,0.0,0.0,0.0,0.0,2.3979,2.4333,2.4687,2.5376,2.5902,2.6459,2.7256,2.8187,2.8858,2.9028,2.9443,2.9792,2.9792,2.9792,2.9792,2.9792,2.9792,2.9792,2.9792,2.9792,2.9792,2.9792,2.9792,2.9792,2.9792,3.0093,3.0369,3.062,3.1436,3.2139,3.2704,3.2955,3.3081,3.3081,3.3081,3.3081,3.3081,3.3081,3.3081,3.3081,3.3081,3.3081,3.3081,3.3081,3.3081,3.3081,3.3081,3.3081,3.3081,3.3081,3.3081,3.3081,3.3081,3.3081,3.3081,3.3081,3.3081,3.3081,3.3081,3.3081,3.3081,3.3081,3.3081,3.324,3.3713,3.4581,3.5521,3.5922,3.7829,3.9424,3.9424,3.9424,3.9424,3.9424,3.9424,3.9424,3.9424,3.9424,3.9424,3.9424,3.9424,3.9424,3.9424,3.9424,3.9424,3.9424,3.9424,3.9424,3.9424,3.9424,3.9424,3.9424,3.9424,3.9424,3.9424,3.9424,3.9424,3.9424,3.9424,3.9424,3.9424,3.9424,3.9424,0.0,0.0,0.0,0.0,0.0,0.0,0.0,0.0,2.4282,0.0,2.6132,2.6964,2.7302,2.7128,2.729,2.8347,2.8518,2.8858,2.9702,2.9792,2.9792,2.9792,2.9792,2.9792,2.9792,2.9792,2.9792,2.9792,2.9792,2.9792,2.9792,2.9792,2.9854,2.9993,3.0407,3.0746,3.1022,3.1951,3.2654,3.3081,3.3081,3.3081,3.3081,3.3081,3.3081,3.3081,3.3081,3.3081,3.3081,3.3081,3.3081,3.3081,3.3081,3.3081,3.3081,3.3081,3.3081,3.3081,3.3081,3.3081,3.3081,3.3081,3.3081,3.3081,3.3081,3.3081,3.3081,3.3081,3.3081,3.3081,3.3081,3.3081,3.3081,3.3081,3.3953,3.4828,3.5386,3.7357,3.9104,3.9337,3.9424,3.9424,3.9424,3.9424,3.9424,3.9424,3.9424,3.9424,3.9424,3.9424,3.9424,3.9424,3.9424,3.9424,3.9424,3.9424,3.9424,3.9424,3.9424,3.9424,3.9424,3.9424,3.9424,3.9424,3.9424,3.9424,3.9424,3.9424,3.9424,3.9424,3.9424,3.9424,0.0,0.0,0.0,0.0,0.0,0.0,0.0,0.0,2.6063,2.7622,2.7992,2.8347,2.9456,2.8767,2.8347,2.9534,2.9702,2.9702,2.9792,2.9792,2.9792,2.9792,2.9792,2.9792,2.9792,2.9792,2.9792,2.9792,2.9792,2.9792,2.9792,2.9792,3.003,3.0557,3.0608,3.111,3.2127,3.2729,3.3056,3.3081,3.3081,3.3081,3.3081,3.3081,3.3081,3.3081,3.3081,3.3081,3.3081,3.3081,3.3081,3.3081,3.3081,3.3081,3.3081,3.3081,3.3081,3.3081,3.3081,3.3081,3.3081,3.3081,3.3081,3.3081,3.3081,3.3081,3.3081,3.3081,3.3081,3.3081,3.3081,3.3081,3.3081,3.3081,3.3953,3.5224,3.7204,3.7753,3.8144,3.9177,3.9424,3.9424,3.9424,3.9424,3.9424,3.9424,3.9424,3.9424,3.9424,3.9424,3.9424,3.9424,3.9424,3.9424,3.9424,3.9424,3.9424,3.9424,3.9424,3.9424,3.9424,3.9424,3.9424,3.9424,3.9424,3.9424,3.9424,3.9424,3.9424,3.9424,3.9424,3.9424,0.0,0.0,0.0,0.0,0.0,0.0,0.0,2.5995,2.7152,2.7909,2.8676,2.9287,2.9702,2.9456,2.9287,2.9702,2.9792,2.9792,2.9792,2.9792,2.9792,2.9792,2.9792,2.9792,2.9792,2.9792,2.9792,2.9792,2.9792,2.9792,2.9792,3.0131,3.0407,3.0608,3.1286,3.2001,3.2754,3.2968,3.3081,3.3081,3.3081,3.3081,3.3081,3.3081,3.3081,3.3081,3.3081,3.3081,3.3081,3.3081,3.3081,3.3081,3.3081,3.3081,3.3081,3.3081,3.3081,3.3081,3.3081,3.3081,3.3081,3.3081,3.3081,3.3081,3.3081,3.3081,3.3081,3.3081,3.3081,3.3081,3.3081,3.3081,3.3081,3.3081,3.3398,3.4037,3.5534,3.7434,3.8943,3.9337,3.9424,3.9424,3.9424,3.9424,3.9424,3.9424,3.9424,3.9424,3.9424,3.9424,3.9424,3.9424,3.9424,3.9424,3.9424,3.9424,3.9424,3.9424,3.9424,3.9424,3.9424,3.9424,3.9424,3.9424,3.9424,3.9424,3.9424,3.9424,3.9424,3.9424,3.9424,3.9424,2.0566,0.0,0.0,0.0,0.0,0.0,0.0,0.0,2.8354,2.8615,2.9275,2.9792,2.9792,2.9792,2.9792,2.9792,2.9792,2.9792,2.9792,2.9792,2.9792,2.9792,2.9792,2.9792,2.9792,2.9792,2.9792,2.9792,2.9792,2.9792,2.9792,3.0319,3.0783,3.1135,3.2026,3.2692,3.3081,3.3081,3.3081,3.3081,3.3081,3.3081,3.3081,3.3081,3.3081,3.3081,3.3081,3.3081,3.3081,3.3081,3.3081,3.3081,3.3081,3.3081,3.3081,3.3081,3.3081,3.3081,3.3081,3.3081,3.3081,3.3081,3.3081,3.3081,3.3081,3.3081,3.3081,3.3081,3.3081,3.3081,3.3081,3.3081,3.3081,3.3081,3.3398,3.3797,3.4594,3.6632,3.8457,3.8782,3.9177,3.9424,3.9424,3.9424,3.9424,3.9424,3.9424,3.9424,3.9424,3.9424,3.9424,3.9424,3.9424,3.9424,3.9424,3.9424,3.9424,3.9424,3.9424,3.9424,3.9424,3.9424,3.9424,3.9424,3.9424,3.9424,3.9424,3.9424,3.9424,3.9424,3.9424,3.9544,0.0,0.0,0.0,0.0,0.0,0.0,2.5802,0.0,2.9792,2.9792,2.9792,2.9792,2.9792,2.9792,2.9792,2.9792,2.9792,2.9792,2.9792,2.9792,2.9792,2.9792,2.9792,2.9792,2.9792,2.9792,2.9792,2.9792,2.9792,2.9804,2.9817,3.0357,3.1148,3.2202,3.278,3.3081,3.3081,3.3081,3.3081,3.3081,3.3081,3.3081,3.3081,3.3081,3.3081,3.3081,3.3081,3.3081,3.3081,3.3081,3.3081,3.3081,3.3081,3.3081,3.3081,3.3081,3.3081,3.3081,3.3081,3.3081,3.3081,3.3081,3.3081,3.3081,3.3081,3.3081,3.3081,3.3081,3.3081,3.3081,3.3081,3.3081,3.3081,3.3081,3.3869,3.4664,3.4664,3.544,3.6526,3.7587,3.8708,3.9424,3.9424,3.9424,3.9424,3.9424,3.9424,3.9424,3.9424,3.9424,3.9424,3.9424,3.9424,3.9424,3.9424,3.9424,3.9424,3.9424,3.9424,3.9424,3.9424,3.9439,3.9454,3.9454,3.9469,3.9484,3.9484,3.9454,3.9454,3.9454,3.9469,3.9813,2.0566,0.0,0.0,0.0,0.0,0.0,0.0,0.0,2.8767,2.9624,2.9792,2.9792,2.9792,2.9792,2.9792,2.9792,2.9792,2.9792,2.9792,2.9792,2.9792,2.9792,2.9792,2.9792,2.9792,2.9792,2.9792,2.9792,2.9792,2.9967,3.0369,3.1273,3.2102,3.2817,3.2993,3.3081,3.3081,3.3081,3.3081,3.3081,3.3081,3.3081,3.3081,3.3081,3.3081,3.3081,3.3081,3.3081,3.3081,3.3081,3.3081,3.3081,3.3081,3.3081,3.3081,3.3081,3.3081,3.3081,3.3081,3.3081,3.3081,3.3081,3.3081,3.3081,3.3081,3.3081,3.3081,3.3081,3.3081,3.3081,3.3081,3.3081,3.3081,3.3081,3.3313,3.3556,3.3556,3.4952,3.6526,3.7587,3.8708,3.9424,3.9424,3.9424,3.9424,3.9424,3.9424,3.9424,3.9424,3.9424,3.9424,3.9424,3.9424,3.9424,3.9424,3.9424,3.9424,3.9424,3.9424,3.9424,3.9424,3.9873,4.0127,4.0127,4.0591,4.0846,4.0846,4.0367,4.0127,4.0142,4.0621,4.1687,2.0566,2.0566,0.0,0.0,0.0,0.0,2.6691,2.8032,2.9028,2.9624,2.9792,2.9792,2.9792,2.9792,2.9792,2.9792,2.9792,2.9792,2.9792,2.9792,2.9792,2.9792,2.9792,2.9792,2.9792,2.9792,2.9792,2.9792,2.9792,3.0131,3.0896,3.175,3.2478,3.3056,3.3081,3.3081,3.3081,3.3081,3.3081,3.3081,3.3081,3.3081,3.3081,3.3081,3.3081,3.3081,3.3081,3.3081,3.3081,3.3081,3.3081,3.3081,3.3081,3.3081,3.3081,3.3081,3.3081,3.3081,3.3081,3.3081,3.3081,3.3081,3.3081,3.3081,3.3081,3.3081,3.3081,3.3081,3.3081,3.3081,3.3081,3.3081,3.3081,3.3081,3.3081,3.3144,3.337,3.509,3.6688,3.7078,3.8383,3.9424,3.9424,3.9424,3.9424,3.9424,3.9424,3.9424,3.9424,3.9424,3.9424,3.9424,3.9424,3.9424,3.9424,3.9679,3.9828,3.9828,4.0083,4.0232,4.0232,4.0606,4.0816,4.0816,4.119,4.1519,4.1788,4.113,4.0816,4.0816,4.1205,4.234,2.0566,2.0644,2.082,2.1273,2.3256,0.0,2.5859,2.783,2.9624,2.9792,2.9792,2.9792,2.9792,2.9792,2.9792,2.9792,2.9792,2.9792,2.9792,2.9792,2.9792,2.9792,2.9792,2.9792,2.9792,2.9792,2.9792,2.9792,2.9905,3.0382,3.1336,3.1976,3.2541,3.3056,3.3081,3.3081,3.3081,3.3081,3.3081,3.3081,3.3081,3.3081,3.3081,3.3081,3.3081,3.3081,3.3081,3.3081,3.3081,3.3081,3.3081,3.3081,3.3081,3.3081,3.3081,3.3081,3.3081,3.3081,3.3081,3.3081,3.3081,3.3081,3.3081,3.3081,3.3081,3.3081,3.3081,3.3081,3.3081,3.3081,3.3081,3.3081,3.3093,3.3156,3.3169,3.3319,3.3872,3.5698,3.7082,3.6515,3.8124,3.9514,3.9424,3.9424,3.9424,3.9424,3.9424,3.9454,3.9514,3.9529,3.9559,3.9634,3.9634,3.9634,3.9634,4.0172,4.0502,4.0502,4.1055,4.1384,4.1384,4.1444,4.1489,4.1489,4.1564,4.1878,4.2476,4.1803,4.1534,4.1594,4.1594,4.2455,0.0,0.0,0.0,0.0,0.0,0.0,2.6714,2.7727,2.8688,2.9624,2.9792,2.9792,2.9792,2.9792,2.9792,2.9792,2.9792,2.9792,2.9792,2.9792,2.9792,2.9792,2.9792,2.9792,2.9792,2.9792,2.9792,2.9792,3.0595,3.1173,3.1386,3.2353,3.2955,3.3081,3.3081,3.3081,3.3081,3.3081,3.3081,3.3081,3.3081,3.3081,3.3081,3.3081,3.3081,3.3081,3.3081,3.3081,3.3081,3.3081,3.3081,3.3081,3.3081,3.3081,3.3081,3.3081,3.3081,3.3081,3.3081,3.3081,3.3081,3.3081,3.3081,3.3081,3.3081,3.3081,3.3081,3.3081,3.3081,3.3081,3.3081,3.3081,3.3194,3.3633,3.3734,3.3884,3.4449,3.6293,3.7855,3.7744,3.903,4.0038,3.9514,3.9424,3.9424,3.9424,3.9424,3.9604,4.0142,4.0202,4.0412,4.0935,4.0995,4.0995,4.0995,4.1115,4.119,4.119,4.1309,4.1384,4.1384,4.1893,4.2162,4.2162,4.2686,4.3015,4.3135,4.2491,4.2432,4.2955,4.2955,4.3945,0.0,0.0,0.0,2.2321,0.0,0.0,0.0,2.8016,2.9106,2.9702,2.9792,2.9792,2.9792,2.9792,2.9792,2.9792,2.9792,2.9792,2.9792,2.9792,2.9792,2.9792,2.9792,2.9792,2.9792,2.9792,2.9792,2.9792,3.0783,3.1386,3.1386,3.2466,3.3081,3.3081,3.3081,3.3081,3.3081,3.3081,3.3081,3.3081,3.3081,3.3081,3.3081,3.3081,3.3081,3.3081,3.3081,3.3081,3.3081,3.3081,3.3081,3.3081,3.3081,3.3081,3.3081,3.3081,3.3081,3.3081,3.3081,3.3081,3.3081,3.3081,3.3081,3.3081,3.3081,3.3081,3.3081,3.3081,3.3081,3.3081,3.3081,3.3282,3.3558,3.3834,3.411,3.4462,3.5014,3.6902,3.8504,3.8532,4.0105,4.1175,4.0502,4.0397,4.0397,4.0397,4.0397,4.0516,4.0846,4.0891,4.101,4.1339,4.1384,4.1384,4.1384,4.1683,4.1878,4.1878,4.2177,4.2357,4.2357,4.2671,4.2851,4.2851,4.3165,4.3329,4.3329,4.3015,4.3015,4.3329,4.3849,4.484,0.0,0.0,0.0,0.0,0.0,2.659,0.0,0.0,0.0,2.9792,2.9792,0.0,0.0,2.9792,2.9754,2.9641,2.9716,2.9754,2.9641,2.9729,2.9792,2.9792,2.9792,2.9792,2.9792,2.9792,2.9792,2.9792,3.0783,3.1386,3.1386,3.2466,3.3081,3.3081,3.3081,3.3081,3.3081,3.3081,3.3081,3.3081,3.3081,3.3081,3.3081,3.3081,3.3081,3.3081,3.3081,3.3081,3.3081,3.3081,3.3081,3.3081,3.3081,3.3081,3.3081,3.3081,3.3081,3.3081,3.3081,3.3081,3.3081,3.3081,3.3081,3.3081,3.3081,3.3081,3.3081,3.3081,3.3081,3.3106,3.3206,3.3571,3.396,3.4161,3.4562,3.5027,3.5579,3.751,3.9139,3.9126,4.1001,4.2297,4.1519,4.1384,4.1384,4.1384,4.1384,4.1429,4.1549,4.1564,4.1624,4.1743,4.1758,4.1758,4.1758,4.2237,4.2551,4.2551,4.3045,4.3329,4.3329,4.3329,4.3329,4.3329,4.3329,4.3329,4.3329,4.3329,4.3409,4.363,4.4434,4.5431,0.0,0.0,0.0,0.0,2.4307,0.0,0.0,0.0,2.9792,2.9792,0.0,0.0,0.0,0.0,0.0,2.9114,2.9453,2.9616,2.9101,2.9465,2.9792,2.9792,2.9792,2.9792,2.9792,2.9792,2.9792,2.9792,3.0783,3.1386,3.1386,3.2466,3.3081,3.3081,3.3081,3.3081,3.3081,3.3081,3.3081,3.3081,3.3081,3.3081,3.3081,3.3081,3.3081,3.3081,3.3081,3.3081,3.3081,3.3081,3.3081,3.3081,3.3081,3.3081,3.3081,3.3081,3.3081,3.3081,3.3081,3.3081,3.3081,3.3081,3.3081,3.3081,3.3081,3.3081,3.3081,3.3081,3.3081,3.3194,3.3684,3.3847,3.4148,3.5127,3.5403,3.5604,3.6157,3.8119,3.9788,3.9788,4.1583,4.2836,4.1594,4.1384,4.1384,4.1384,4.1384,4.1594,4.2177,4.2252,4.2462,4.3045,4.3105,4.3105,4.3105,4.318,4.3225,4.3225,4.3284,4.3329,4.3329,4.3329,4.3329,4.3329,4.3329,4.3329,4.3329,4.3329,4.3771,4.4662,4.4737,4.5778,0.0,0.0,0.0,0.0,0.0,0.0,2.7545,0.0,2.9792,2.9792,0.0,0.0,0.0,0.0,0.0,0.0,2.9628,2.9704,2.9465,2.9641,2.9792,2.9792,2.9792,2.9792,2.9792,2.9792,2.9792,2.9792,3.0783,3.1386,3.1386,3.2466,3.3081,3.3081,3.3081,3.3081,3.3081,3.3081,3.3081,3.3081,3.3081,3.3081,3.3081,3.3081,3.3081,3.3081,3.3081,3.3081,3.3081,3.3081,3.3081,3.3081,3.3081,3.3081,3.3081,3.3081,3.3081,3.3081,3.3081,3.3081,3.3081,3.3081,3.3081,3.3081,3.3081,3.3081,3.3081,3.3081,3.3307,3.3608,3.3847,3.4374,3.4964,3.5349,3.5793,3.6081,3.632,3.8225,3.9899,3.9899,4.1699,4.3165,4.2611,4.2506,4.2506,4.2506,4.2506,4.2611,4.2895,4.2925,4.303,4.3299,4.3329,4.3329,4.3329,4.3329,4.3329,4.3329,4.3329,4.3329,4.3329,4.3329,4.3329,4.3329,4.3329,4.3329,4.3329,4.3329,4.3849,4.4812,4.5358,4.633,2.1011,0.0,0.0,0.0,0.0,0.0,2.7755,2.87,2.9603,2.9767,2.9792,0.0,0.0,0.0,2.9741,2.9578,0.0,2.9741,2.9578,2.9691,2.9792,2.9792,2.9792,2.9792,2.9792,2.9792,2.9792,2.9792,3.0783,3.1386,3.1386,3.2466,3.3081,3.3081,3.3081,3.3081,3.3081,3.3081,3.3081,3.3081,3.3081,3.3081,3.3081,3.3081,3.3081,3.3081,3.3081,3.3081,3.3081,3.3081,3.3081,3.3081,3.3081,3.3081,3.3081,3.3081,3.3081,3.3081,3.3081,3.3081,3.3081,3.3081,3.3081,3.3081,3.3081,3.3081,3.3081,3.3081,3.347,3.3935,3.4085,3.4826,3.5579,3.573,3.6069,3.6452,3.6803,3.8482,3.9899,3.9899,4.1532,4.282,4.282,4.3076,4.3329,4.3329,4.3329,4.3329,4.3329,4.3329,4.3329,4.3329,4.3329,4.3329,4.3329,4.3329,4.3329,4.3329,4.3329,4.3329,4.3329,4.3329,4.3329,4.3329,4.3329,4.3329,4.3329,4.3329,4.3989,4.5227,4.5905,4.6662,2.1952,2.2713,2.3316,2.2328,2.397,2.5993,2.6557,2.7814,2.9114,2.9679,2.9792,2.9792,2.9792,2.9792,2.9616,2.9051,2.9428,0.0,0.0,2.944,2.9792,2.9792,2.9792,2.9792,2.9792,2.9792,2.9792,2.9792,3.0783,3.1386,3.1386,3.2466,3.3081,3.3081,3.3081,3.3081,3.3081,3.3081,3.3081,3.3081,3.3081,3.3081,3.3081,3.3081,3.3081,3.3081,3.3081,3.3081,3.3081,3.3081,3.3081,3.3081,3.3081,3.3081,3.3081,3.3081,3.3081,3.3081,3.3081,3.3081,3.3081,3.3081,3.3081,3.3081,3.3081,3.3081,3.3081,3.3081,3.347,3.4022,3.4562,3.5115,3.568,3.6207,3.6358,3.6709,3.7848,3.9006,3.9899,3.9899,4.0831,4.167,4.167,4.2548,4.3329,4.3329,4.3329,4.3329,4.3329,4.3329,4.3329,4.3329,4.3329,4.3329,4.3329,4.3329,4.3329,4.3329,4.3329,4.3329,4.3329,4.3329,4.3329,4.3329,4.3329,4.3329,4.3329,4.3329,4.4251,4.6189,4.6173,4.6662,2.3029,2.457,2.5896,2.4825,2.6482,2.8311,2.7755,2.8587,2.9553,2.9754,2.9792,2.9792,2.9792,2.9792,2.9729,2.9528,2.9666,2.9729,0.0,2.9666,2.9792,2.9792,2.9792,0.0,2.9792,2.9792,2.9792,2.9792,3.0783,3.1386,3.1386,3.2466,3.3081,3.3081,3.3081,3.3081,3.3081,3.3081,3.3081,3.3081,3.3081,3.3081,3.3081,3.3081,3.3081,3.3081,3.3081,3.3081,3.3081,3.3081,3.3081,3.3081,3.3081,3.3081,3.3081,3.3081,3.3081,3.3081,3.3081,3.3081,3.3081,3.3081,3.3081,3.3081,3.3081,3.3081,3.3081,3.3081,3.3734,3.4487,3.4675,3.5391,3.6132,3.632,3.6358,3.6709,3.7848,3.8379,3.8917,3.9724,4.0232,4.0746,4.1504,4.1932,4.2452,4.317,4.3329,4.3329,4.3329,4.3329,4.3329,4.3329,4.3329,4.3329,4.3329,4.3329,4.3329,4.3329,4.3329,4.3329,4.3329,4.3329,4.3329,4.3329,4.3329,4.3329,4.3329,4.4004,4.4646,4.5285,4.6539,4.7655,2.3891,2.5542,2.6971,2.6268,2.7667,2.9051,2.8524,2.8963,2.9541,2.9754,2.9792,2.9792,2.9792,2.9792,2.9792,2.9792,2.9792,2.9792,0.0,2.9792,2.9792,2.9792,2.9792,0.0,0.0,2.9792,2.9792,2.9792,3.062,3.1198,3.1386,3.2265,3.2867,3.3068,3.3081,3.3081,3.3081,3.3081,3.3081,3.3081,3.3081,3.3081,3.3081,3.3081,3.3081,3.3081,3.3081,3.3081,3.3081,3.3081,3.3081,3.3081,3.3081,3.3081,3.3081,3.3081,3.3081,3.3081,3.3081,3.3081,3.3081,3.3081,3.3081,3.3081,3.3081,3.3081,3.3156,3.3558,3.4173,3.4813,3.5203,3.583,3.6358,3.6358,3.6358,3.6709,3.7848,3.8107,3.8289,3.9094,3.9637,4.0145,4.0831,4.1337,4.2029,4.3155,4.3329,4.3329,4.3329,4.3329,4.3329,4.3329,4.3329,4.3329,4.3329,4.3329,4.3329,4.3329,4.3329,4.3329,4.3329,4.3329,4.3329,4.3329,4.3329,4.3329,4.3329,4.4297,4.4946,4.5358,4.6884,4.808]},{"header":{"parameterUnit":"m.s-1","parameterCategory":1,"la1":30.6,"la2":29.2853,"lo1":-89.7004,"lo2":-87.6739,"dy":0.0162,"dx":0.0183,"nx":112,"ny":82,"refTime":"2023-02-22T18:00:00:Z","depth":0,"parameterNumber":3,"parameterNumberName":"V-component_of_WINDS"},"data":[0.0,0.0,0.0,0.0,0.0,0.0,0.0,0.0,0.0,0.0,0.0,0.0,0.0,0.0,0.0,0.0,0.0,0.0,0.0,0.0,0.0,0.0,0.0,0.0,0.0,0.0,0.0,0.0,0.0,0.0,0.0,0.0,0.0,0.0,0.0,0.0,0.0,0.0,0.0,0.0,0.0,0.0,0.0,0.0,0.0,0.0,0.0,0.0,0.0,0.0,0.0,0.0,0.0,0.0,0.0,0.0,0.0,0.0,0.0,0.0,0.0,0.0,0.0,0.0,0.0,0.0,0.0,0.0,0.0,0.0,0.0,0.0,0.0,0.0,0.0,0.0,0.0,0.0,0.0,0.0,0.0,0.0,0.0,0.0,0.0,0.0,0.0,0.0,0.0,0.0,1.5455,1.5455,1.4307,1.2863,1.1042,1.0351,0.7861,0.266,0.0,0.0,0.0,0.0,0.0,0.0,0.0,0.0,0.0,0.0,0.0,0.0,0.0,0.0,0.0,0.0,0.0,0.0,0.0,0.0,0.0,0.0,0.0,0.0,0.0,0.0,0.0,0.0,0.0,0.0,0.0,0.0,0.0,0.0,0.0,0.0,0.0,0.0,0.0,0.0,0.0,0.0,0.0,0.0,0.0,0.0,0.0,0.0,0.0,0.0,0.0,0.0,0.0,0.0,0.0,0.0,0.0,0.0,0.0,0.0,0.0,0.0,0.0,0.0,0.0,0.0,0.0,0.0,0.0,0.0,0.0,0.0,0.0,0.0,0.0,0.0,0.0,0.0,0.0,0.0,0.0,0.0,0.0,0.0,0.0,0.0,0.0,0.0,0.0,0.0,0.0,0.0,0.0,0.0,0.0,0.0,0.0,0.0,0.0,0.0,0.0,0.0,0.0,0.0,1.4328,1.4328,1.2425,1.1386,1.198,0.9305,0.5934,0.2019,0.0,0.0,0.0,0.0,0.0,0.0,0.0,0.0,0.0,0.0,0.0,0.0,0.0,0.0,0.0,0.0,0.0,0.0,0.0,0.0,0.0,0.0,0.0,0.0,0.0,0.0,0.0,0.0,0.0,0.0,0.0,0.0,0.0,0.0,0.0,0.0,0.0,0.0,0.0,0.0,0.0,0.0,0.0,0.0,0.0,0.0,0.0,0.0,0.0,0.0,0.0,0.0,0.0,0.0,0.0,0.0,0.0,0.0,0.0,0.0,0.0,0.0,0.0,0.0,0.0,0.0,0.0,0.0,0.0,0.0,0.0,0.0,0.0,0.0,0.0,0.0,0.0,0.0,0.0,0.0,0.0,0.0,0.0,0.0,0.0,0.0,0.0,0.0,0.0,0.0,0.0,0.0,0.0,0.0,0.0,0.0,0.0,0.0,0.0,0.0,0.0,0.0,0.0,1.5296,1.4734,1.4166,1.313,1.2169,1.1472,0.9918,0.6621,0.1143,0.0265,0.0,0.0,0.0,0.0,0.0,0.0,0.0,0.0,0.0,0.0,0.0,0.0,0.0,0.0,0.0,0.0,0.0,0.0,0.0,0.0,0.0,0.0,0.0,0.0,0.0,0.0,0.0,0.0,0.0,0.0,0.0,0.0,0.0,0.0,0.0,0.0,0.0,0.0,0.0,0.0,0.0,0.0,0.0,0.0,0.0,0.0,0.0,0.0,0.0,0.0,0.0,0.0,0.0,0.0,0.0,0.0,0.0,0.0,0.0,0.0,0.0,0.0,0.0,0.0,0.0,0.0,0.0,0.0,0.0,0.0,0.0,0.0,0.0,0.0,0.0,0.0,0.0,0.0,0.0,0.0,0.0,0.0,0.0,0.0,0.0,0.0,0.0,0.0,0.0,0.0,0.0,0.0,0.0,0.0,0.0,0.0,0.0,0.0,0.0,0.0,0.0,0.0,1.5538,1.5296,1.425,1.3822,1.2863,1.0783,1.0351,0.7313,0.0441,0.0,0.0,0.0,0.0,0.0,0.0,0.0,0.0,0.0,0.0,0.0,0.0,0.0,0.0,0.0,0.0,0.0,0.0,0.0,0.0,0.0,0.0,0.0,0.0,0.0,0.0,0.0,0.0,0.0,0.0,0.0,0.0,0.0,0.0,0.0,0.0,0.0,0.0,0.0,0.0,0.0,0.0,0.0,0.0,0.0,0.0,0.0,0.0,0.0,0.0,0.0,0.0,0.0,0.0,0.0,0.0,0.0,0.0,0.0,0.0,0.0,0.0,0.0,0.0,0.0,0.0,0.0,0.0,0.0,0.0,0.0,0.0,0.0,0.0,0.0,0.0,0.0,0.0,0.0,0.0,0.0,0.0,0.0,0.0,0.0,0.0,0.0,0.0,0.0,0.0,0.0,0.0,0.0,0.0,0.0,0.0,0.0,0.0,0.0,0.0,0.0,0.0,0.0,1.5054,1.5296,1.425,1.3118,1.1901,1.0697,0.9666,0.6455,0.0353,0.0,0.0,0.0,0.0,0.0,0.0,0.0,0.0,0.0,0.0,0.0,0.0,0.0,0.0,0.0,0.0,0.0,0.0,0.0,0.0,0.0,0.0,0.0,0.0,0.0,0.0,0.0,0.0,0.0,0.0,0.0,0.0,0.0,0.0,0.0,0.0,0.0,0.0,0.0,0.0,0.0,0.0,0.0,0.0,0.0,0.0,0.0,0.0,0.0,0.0,0.0,0.0,0.0,0.0,0.0,0.0,0.0,0.0,0.0,0.0,0.0,0.0,0.0,0.0,0.0,0.0,0.0,0.0,0.0,0.0,0.0,0.0,0.0,0.0,0.0,0.0,0.0,0.0,0.0,0.0,0.0,0.0,0.0,0.0,0.0,0.0,0.0,0.0,0.0,0.0,0.0,0.0,0.0,0.0,0.0,0.0,0.0,0.0,0.0,0.0,0.0,0.0,0.0,1.4489,1.4223,1.3112,1.2589,1.1552,0.9666,0.9148,0.6367,0.0353,0.0,0.0,0.0,0.0,0.0,0.0,0.0,0.0,0.0,0.0,0.0,0.0,0.0,0.0,0.0,0.0,0.0,0.0,0.0,0.0,0.0,0.0,0.0,0.0,0.0,0.0,0.0,0.0,0.0,0.0,0.0,0.0,0.0,0.0,0.0,0.0,0.0,0.0,0.0,0.0,0.0,0.0,0.0,0.0,0.0,0.0,0.0,0.0,0.0,0.0,0.0,0.0,0.0,0.0,0.0,0.0,0.0,0.0,0.0,0.0,0.0,0.0,0.0,0.0,0.0,0.0,0.0,0.0,0.0,0.0,0.0,0.0,0.0,0.0,0.0,0.0,0.0,0.0,0.0,0.0,0.0,0.0,0.0,0.0,0.0,0.0,0.0,0.0,0.0,0.0,0.0,0.0,0.0,0.0,0.0,0.0,0.0,0.0,0.0,0.0,0.0,0.0,1.4734,1.4573,1.4048,1.2498,1.2328,1.1381,0.9061,0.889,0.6367,0.0353,0.0,0.0,0.0,0.0,0.0,0.0,0.0,0.0,0.0,0.0,0.0,0.0,0.0,0.0,0.0,0.0,0.0,0.0,0.0,0.0,0.0,0.0,0.0,0.0,0.0,0.0,0.0,0.0,0.0,0.0,0.0,0.0,0.0,0.0,0.0,0.0,0.0,0.0,0.0,0.0,0.0,0.0,0.0,0.0,0.0,0.0,0.0,0.0,0.0,0.0,0.0,0.0,0.0,0.0,0.0,0.0,0.0,0.0,0.0,0.0,0.0,0.0,0.0,0.0,0.0,0.0,0.0,0.0,0.0,0.0,0.0,0.0,0.0,0.0,0.0,0.0,0.0,0.0,0.0,0.0,0.0,0.0,0.0,0.0,0.0,0.0,0.0,0.0,0.0,0.0,0.0,0.0,0.0,0.0,0.0,0.0,0.0,0.0,0.0,0.0,0.0,0.0,1.5779,1.5696,1.4851,1.2492,1.2242,1.1381,0.9065,0.889,0.637,0.0,0.0,0.0,0.0,0.0,0.0,0.0,0.0,0.0,0.0,0.0,0.0,0.0,0.0,0.0,0.0,0.0,0.0,0.0,0.0,0.0,0.0,0.0,0.0,0.0,0.0,0.0,0.0,0.0,0.0,0.0,0.0,0.0,0.0,0.0,0.0,0.0,0.0,0.0,0.0,0.0,0.0,0.0,0.0,0.0,0.0,0.0,0.0,0.0,0.0,0.0,0.0,0.0,0.0,0.0,0.0,0.0,0.0,0.0,0.0,0.0,0.0,0.0,0.0,0.0,0.0,0.0,0.0,0.0,0.0,0.0,0.0,0.0,0.0,0.0,0.0,0.0,0.0,0.0,0.0,0.0,0.0,0.0,0.0,0.0,0.0,0.0,0.0,0.0,0.0,0.0,0.0,0.0,0.0,0.0,0.0,0.0,0.0,0.0,0.0,0.0,0.0,0.0,1.4817,1.5213,1.4511,1.1466,1.1123,1.0173,0.7837,0.7595,0.5424,0.0353,0.0,0.0,0.0,0.0,0.0,0.0,0.0,0.0,0.0,0.0,0.0,0.0,0.0,0.0,0.0,0.0,0.0,0.0,0.0,0.0,0.0,0.0,0.0,0.0,0.0,0.0,0.0,0.0,0.0,0.0,0.0,0.0,0.0,0.0,0.0,0.0,0.0,0.0,0.0,0.0,0.0,0.0,0.0,0.0,0.0,0.0,0.0,0.0,0.0,0.0,0.0,0.0,0.0,0.0,0.0,0.0,0.0,0.0,0.0,0.0,0.0,0.0,0.0,0.0,0.0,0.0,0.0,0.0,0.0,0.0,0.0,0.0,0.0,0.0,0.0,0.0,0.0,0.0,0.0,0.0,0.0,0.0,0.0,0.0,0.0,0.0,0.0,0.0,0.0,0.0,0.0,0.0,0.0,0.0,0.0,0.0,0.0,0.0,0.0,0.0,0.0,0.0,1.5061,1.5711,1.483,1.1037,1.0611,0.9657,0.7312,0.7071,0.5354,0.124,0.0,0.0,0.0,0.0,0.0,0.0,0.0,0.0,0.0,0.0,0.0,0.0,0.0,0.0,0.0,0.0,0.0,0.0,0.0,0.0,0.0,0.0,0.0,0.0,0.0,0.0,0.0,0.0,0.0,0.0,0.0,0.0,0.0,0.0,0.0,0.0,0.0,0.0,0.0,0.0,0.0,0.0,0.0,0.0,0.0,0.0,0.0,0.0,0.0,0.0,0.0,0.0,0.0,0.0,0.0,0.0,0.0,0.0,0.0,0.0,0.0,0.0,0.0,0.0,0.0,0.0,0.0,0.0,0.0,0.0,0.0,0.0,0.0,0.0,0.0,0.0,0.0,0.0,0.0,0.0,0.0,0.0,0.0,0.0,0.0,0.0,0.0,0.0,0.0,0.0,0.0,0.0,0.0,0.0,0.0,0.0,0.0,0.0,0.0,0.0,0.0,0.0,1.5861,1.6519,1.5486,1.1031,1.0611,0.9657,0.7319,0.7074,0.5811,0.2668,0.0,0.0,0.0,0.0,0.0,0.0,0.0,0.0,0.0,0.0,0.0,0.0,0.0,0.0,0.0,0.0,0.0,0.0,0.0,0.0,0.0,0.0,0.0,0.0,0.0,0.0,0.0,0.0,0.0,0.0,0.0,0.0,0.0,0.0,0.0,0.0,0.0,0.0,0.0,0.0,0.0,0.0,0.0,0.0,0.0,0.0,0.0,0.0,0.0,0.0,0.0,0.0,0.0,0.0,0.0,0.0,0.0,0.0,0.0,0.0,4.0194,3.9986,0.0,0.0,0.0,0.0,0.0,0.0,0.0,0.0,0.0,0.0,0.0,0.0,0.0,0.0,0.0,0.0,0.0,0.0,0.0,0.0,0.0,0.0,0.0,0.0,0.0,0.0,0.0,0.0,0.0,0.0,0.0,0.0,0.0,0.0,0.0,0.0,0.0,0.0,0.0,0.0,1.4741,1.5379,1.4671,1.095,1.0611,0.9666,0.734,0.7091,0.6005,0.3479,0.0892,0.0,0.0,0.0,0.0,0.0,0.0,0.0,0.0,0.0,0.0,0.0,0.0,0.0,0.0,0.0,0.0,0.0,0.0,0.0,0.0,0.0,0.0,0.0,0.0,0.0,0.0,0.0,0.0,0.0,0.0,0.0,0.0,0.0,0.0,0.0,0.0,0.0,0.0,0.0,0.0,0.0,0.0,0.0,0.0,0.0,0.0,0.0,0.0,0.0,0.0,0.0,0.0,0.0,0.0,0.0,0.0,0.0,0.0,0.0,4.0563,4.0385,0.0,0.0,0.0,0.0,0.0,0.0,0.0,0.0,0.0,0.0,0.0,0.0,0.0,0.0,0.0,0.0,0.0,0.0,0.0,0.0,0.0,0.0,0.0,0.0,0.0,0.0,0.0,0.0,0.0,0.0,0.0,0.0,0.0,0.0,0.0,0.0,0.0,0.0,0.0,0.0,1.5061,1.5379,1.4427,1.095,1.0611,0.9671,0.7258,0.6091,0.5377,0.5292,0.0893,0.0,0.0,0.0,0.0,0.0,0.0,0.0,0.0,0.0,0.0,0.0,0.0,0.0,0.0,0.0,0.0,0.0,0.0,0.0,0.0,0.0,0.0,0.0,0.0,0.0,0.0,0.0,0.0,0.0,0.0,0.0,0.0,0.0,0.0,0.0,0.0,0.0,0.0,0.0,0.0,0.0,0.0,0.0,0.0,0.0,0.0,0.0,0.0,0.0,0.0,0.0,0.0,0.0,4.0582,4.0657,4.0801,4.0801,4.0855,4.0938,4.0789,4.0637,4.0535,4.0361,0.0,0.0,0.0,0.0,0.0,0.0,0.0,0.0,0.0,0.0,0.0,0.0,0.0,0.0,0.0,0.0,0.0,0.0,0.0,0.0,0.0,0.0,3.7173,3.6539,3.6374,3.5959,3.4317,0.0,0.0,0.0,0.0,0.0,0.0,0.0,0.0,0.0,0.0,0.0,1.5861,1.5538,1.4183,1.095,1.0712,0.9772,0.7351,0.528,0.4659,0.5768,-0.0446,-0.419,0.0,0.0,0.0,0.0,0.0,0.0,0.0,0.0,0.0,0.0,0.0,0.0,0.0,0.0,0.0,0.0,0.0,0.0,0.0,0.0,0.0,0.0,0.0,0.0,0.0,0.0,0.0,0.0,0.0,0.0,0.0,0.0,4.0949,4.0831,0.0,0.0,0.0,0.0,0.0,0.0,0.0,0.0,0.0,0.0,0.0,0.0,0.0,4.0473,4.0489,4.066,4.0742,4.0667,4.0848,4.0896,4.0801,4.0801,4.0785,4.0743,4.0762,0.0,4.0751,4.0731,0.0,0.0,0.0,0.0,0.0,0.0,0.0,0.0,0.0,0.0,0.0,0.0,0.0,0.0,0.0,0.0,0.0,0.0,0.0,0.0,0.0,0.0,3.756,3.6603,3.6374,3.6207,3.5498,3.435,3.3029,3.16,3.0675,2.9261,0.0,0.0,0.0,0.0,0.0,0.0,1.5861,1.4894,1.3372,1.0869,1.1197,1.045,0.7364,0.6844,0.5037,0.1168,-0.3862,-0.6662,-0.6637,-0.6907,0.0,0.0,0.0,0.0,0.0,0.0,0.0,0.0,0.0,0.0,0.0,0.0,0.0,0.0,0.0,0.0,0.0,0.0,0.0,0.0,0.0,0.0,0.0,0.0,0.0,0.0,0.0,0.0,0.0,4.0762,4.0652,4.0486,4.0258,4.0043,0.0,0.0,0.0,0.0,0.0,0.0,0.0,0.0,0.0,4.0269,4.0286,4.0356,4.0489,4.0584,4.0623,4.0582,4.0676,4.0743,4.0793,4.0771,4.0782,4.0879,4.0899,4.0915,4.0912,4.0905,4.087,4.0801,0.0,0.0,0.0,0.0,4.0308,4.0292,4.0136,4.0043,3.9948,4.0081,0.0,0.0,0.0,0.0,0.0,0.0,0.0,3.8596,3.8168,3.8201,3.8083,3.7097,3.6843,3.6603,3.5766,3.4847,3.3855,3.2786,3.0983,2.9024,2.7288,2.584,0.0,0.0,0.0,1.776,1.6756,1.5144,1.3215,1.0869,1.0906,0.9506,0.5455,0.5107,0.3676,0.018,-0.3227,-0.5741,-0.7012,-0.7078,-0.7068,0.0,0.0,0.0,0.0,0.0,0.0,0.0,0.0,0.0,0.0,0.0,0.0,0.0,0.0,0.0,0.0,0.0,0.0,0.0,0.0,0.0,0.0,0.0,0.0,0.0,0.0,0.0,0.0,4.063,4.0505,4.0352,4.0202,4.0024,0.0,0.0,0.0,0.0,0.0,0.0,3.9712,3.9731,3.9861,4.0195,4.0195,4.0304,4.0489,4.053,4.053,4.0504,4.0554,4.0653,4.077,4.0752,4.0807,4.0955,4.0988,4.0996,4.1003,4.1033,4.0992,4.0914,4.1,4.0992,4.0896,4.0818,4.0772,4.0752,4.0623,4.048,4.0384,4.0501,4.029,3.9986,3.9965,0.0,0.0,0.0,0.0,3.8707,3.8707,3.8707,3.8451,3.7451,3.719,3.6921,3.581,3.4958,3.4186,3.3684,3.16,2.9482,2.8136,2.6443,0.0,2.2691,2.0343,1.8461,1.7407,1.5636,1.3542,1.0869,1.0433,0.8765,0.4821,0.3393,0.1878,0.009,-0.2236,-0.465,-0.7012,-0.7071,-0.7061,-0.7084,0.0,0.0,0.0,0.0,0.0,0.0,0.0,0.0,0.0,0.0,0.0,0.0,0.0,0.0,0.0,0.0,0.0,0.0,0.0,0.0,0.0,0.0,0.0,0.0,0.0,0.0,0.0,0.0,0.0,4.0684,4.04,0.0,0.0,0.0,0.0,3.9599,3.9599,3.9754,4.0061,4.0081,4.0195,4.0473,4.0473,4.0489,4.0489,4.0636,4.0623,4.0504,4.0692,4.0771,4.0715,4.0761,4.0793,4.0809,4.093,4.0996,4.1019,4.113,4.1191,4.1171,4.1191,4.1191,4.1151,4.1026,4.0988,4.0979,4.0836,4.0785,4.0768,4.0718,4.0596,4.037,3.98,3.9599,0.0,0.0,3.8894,3.8707,3.8707,3.8707,3.8451,3.7451,3.719,3.6921,3.581,3.4544,3.3633,3.3582,3.2971,3.169,2.9352,0.0,2.5428,2.37,2.0854,1.855,1.7423,1.6355,1.4343,1.095,0.999,0.8877,0.7091,0.2772,0.009,0.0,-0.2236,-0.465,-0.7012,-0.7071,-0.7061,-0.7084,-0.7084,0.0,0.0,0.0,0.0,0.0,0.0,0.0,0.0,0.0,0.0,0.0,0.0,0.0,0.0,0.0,0.0,0.0,0.0,0.0,0.0,0.0,0.0,0.0,0.0,0.0,0.0,0.0,0.0,4.0422,4.0265,0.0,3.98,3.988,3.9922,3.9922,3.9922,4.0062,4.0339,4.0195,4.0213,4.0489,4.0489,4.0489,4.0489,4.0545,4.0545,4.0504,4.066,4.0762,4.0781,4.0777,4.085,4.0925,4.0988,4.0996,4.1019,4.1149,4.1191,4.1191,4.1191,4.1191,4.1171,4.1052,4.0996,4.0964,4.079,4.0752,4.0777,4.0729,4.061,4.0422,4.0023,3.9775,3.9529,3.9186,3.8894,3.8707,3.8707,3.8446,3.8032,3.736,3.696,3.6498,3.5783,3.4911,3.4137,3.3684,3.2275,3.0659,2.924,2.7459,2.5595,2.3795,2.1445,1.9298,1.7496,1.6355,1.4427,1.095,1.0829,0.9901,0.7276,0.5568,0.3232,0.018,-0.2236,-0.465,-0.7012,-0.7071,-0.7064,-0.7094,-0.5638,-0.1779,0.0,0.0,0.0,0.0,0.0,0.0,0.0,0.0,0.0,0.0,0.0,0.0,0.0,0.0,0.0,0.0,0.0,0.0,0.0,0.0,0.0,0.0,0.0,0.0,0.0,0.0,4.0703,4.043,4.0404,4.0294,3.9986,4.0173,4.0264,4.0232,4.0232,4.0321,4.0489,4.0339,4.0321,4.0489,4.0489,4.0489,4.0489,4.0489,4.0489,4.0504,4.066,4.0762,4.0801,4.0883,4.0988,4.1077,4.1077,4.1077,4.1077,4.1151,4.1191,4.1191,4.1191,4.1191,4.1191,4.1103,4.1049,4.0964,4.079,4.0742,4.0762,4.0707,4.0549,4.0356,4.025,3.9861,3.9414,3.9289,3.899,3.8658,3.8465,3.8183,3.772,3.7097,3.6643,3.6207,3.5436,3.4752,3.4087,3.3391,3.183,3.0271,2.9192,2.7207,2.5284,2.3722,2.1769,1.969,1.7568,1.6332,1.44,1.0945,1.0753,0.9454,0.618,0.5927,0.422,0.027,-0.2236,-0.465,-0.7012,-0.7071,-0.7068,-0.7101,-0.321,0.2318,0.9429,0.0,0.0,0.0,0.0,0.0,0.0,0.0,0.0,0.0,0.0,0.0,0.0,0.0,0.0,0.0,0.0,0.0,0.0,0.0,0.0,0.0,0.0,0.0,4.0857,4.0809,4.0809,4.0801,4.0801,4.0779,4.0696,4.0703,4.0642,4.0519,4.0504,4.0489,4.0489,4.0489,4.0489,4.0489,4.0489,4.0504,4.0504,4.0504,4.0504,4.0519,4.0713,4.0801,4.0809,4.108,4.1191,4.1191,4.1191,4.1191,4.1191,4.1191,4.1191,4.1191,4.1191,4.1191,4.1191,4.1191,4.1105,4.0964,4.085,4.0752,4.0692,4.0692,4.0408,4.0139,4.0389,3.9844,3.9178,3.9481,3.9154,3.8596,3.8032,3.7893,3.7649,3.6643,3.6392,3.6062,3.4861,3.4087,3.3391,3.2749,3.183,3.0734,2.9226,2.6675,2.4543,2.3649,2.1897,0.0,1.7577,1.6366,1.4345,1.0945,0.9579,0.7467,0.4014,0.357,0.2503,0.018,-0.2325,-0.4739,-0.7012,-0.7071,-0.7068,-0.6917,0.0089,0.7084,1.3951,0.0,0.0,0.0,0.0,0.0,0.0,0.0,0.0,0.0,0.0,0.0,0.0,0.0,0.0,0.0,0.0,0.0,0.0,0.0,0.0,0.0,0.0,4.1171,4.1103,4.1082,4.1052,4.0959,4.095,4.0902,4.0779,4.077,4.0742,4.0642,4.041,4.0354,4.0489,4.0321,4.0304,4.0489,4.0489,4.0545,4.063,4.0649,4.0672,4.0723,4.0864,4.095,4.0955,4.1126,4.1191,4.1191,4.1191,4.1191,4.1191,4.1191,4.1191,4.1191,4.1191,4.1149,4.1052,4.1052,4.0933,4.0772,4.0731,4.0648,4.0559,4.0559,4.0353,4.0081,3.9903,3.951,3.909,3.8998,3.8851,3.8596,3.8032,3.7649,3.721,3.658,3.6097,3.5616,3.4783,3.4087,3.3391,3.2749,3.1013,2.9524,2.9052,2.7274,2.5354,2.3722,2.2403,2.0566,1.7649,1.7074,1.5216,1.1031,0.9826,0.844,0.6361,0.2949,0.0716,0.0,-0.3862,-0.6394,-0.7039,-0.7101,-0.5455,-0.2049,0.3285,0.7867,0.0,0.0,0.0,0.0,0.0,0.0,0.0,0.0,0.0,0.0,0.0,0.0,0.0,0.0,0.0,0.0,0.0,0.0,0.0,0.0,0.0,0.0,4.1191,4.1191,4.1191,4.1191,4.1171,4.1082,4.108,4.1026,4.0902,4.0877,4.0843,4.0742,4.056,4.0513,4.0629,4.0486,4.0467,4.0629,4.0629,4.0665,4.0732,4.0732,4.0752,4.0801,4.0944,4.0996,4.0996,4.1149,4.1191,4.1191,4.1191,4.1191,4.1191,4.1149,4.1126,4.1126,0.0,0.0,0.0,0.0,4.08,4.0692,4.0636,4.0574,4.0489,4.0372,4.0139,3.984,3.9645,3.9301,3.8905,3.8884,3.8615,3.8234,3.7738,3.7248,3.6724,3.6182,3.5599,3.5005,3.4333,3.3633,3.2986,3.2272,3.0466,0.0,2.9002,2.6873,2.4767,2.3661,2.2339,2.042,1.7649,1.6895,1.5043,1.1031,0.9826,0.8627,0.718,0.3664,0.0,0.0,0.0,-0.3044,-0.4115,-0.4109,0.0,0.0,0.0,0.9625,1.296,1.3662,0.0,0.0,2.1963,2.3519,0.0,0.0,0.0,0.0,0.0,0.0,0.0,0.0,0.0,0.0,0.0,0.0,0.0,0.0,0.0,0.0,4.1191,4.1191,4.1171,4.1191,4.1191,4.1191,4.1191,4.115,4.1026,4.1023,4.0964,4.0824,4.0816,4.0809,4.0801,4.0801,0.0,0.0,0.0,4.0801,4.0816,4.0816,4.0824,4.085,4.0959,4.1007,4.0994,4.1112,4.1171,4.115,4.115,4.115,4.115,4.1026,4.0964,4.0974,4.0974,4.0974,4.0939,4.0761,4.0667,4.0655,4.053,0.0,0.0,4.0177,3.9859,3.9534,3.9534,3.9109,3.8652,3.8896,3.8394,3.772,3.7248,3.6764,3.6284,3.5841,3.5232,3.453,3.396,3.3329,3.2542,3.1734,3.0287,2.9182,2.8972,2.6039,2.3661,2.3514,2.1973,1.9904,1.7577,1.6456,1.4435,1.094,0.9666,0.0,0.717,0.5186,0.2857,0.0179,0.2508,0.3041,0.0889,0.08,0.2214,0.5205,0.8249,1.1807,1.5943,1.4977,1.7072,2.1945,2.4399,2.5865,0.0,0.0,0.0,0.0,0.0,0.0,0.0,0.0,0.0,0.0,0.0,0.0,0.0,0.0,0.0,4.1055,4.1128,4.1151,4.1052,4.1128,4.1191,4.1191,4.1191,4.1191,4.1151,4.1151,4.1105,4.0964,4.0959,4.0914,4.0801,4.0801,4.0801,4.0801,4.0801,4.0857,4.0959,4.0959,4.1019,4.1126,4.115,0.0,4.1001,4.1033,4.0988,4.087,4.087,4.087,4.087,4.0857,4.0816,4.0761,4.0761,4.0761,4.074,4.0596,4.053,4.053,4.0504,4.0356,4.0158,4.012,3.969,3.9205,3.9205,3.8656,0.0,3.8111,3.7737,3.721,3.6684,3.6498,3.6422,3.652,3.5969,3.5397,3.5326,3.4675,3.3704,3.2284,3.1174,3.0088,2.8799,2.642,2.4409,2.3599,2.2478,2.0643,1.7649,1.7082,1.5306,1.1031,1.0438,0.941,0.7258,0.6729,0.4565,0.0268,0.4037,0.6215,0.5754,0.5733,0.6602,0.8548,1.0661,1.262,1.4455,1.6742,1.9229,2.1934,2.3798,2.6298,0.0,0.0,0.0,0.0,0.0,0.0,0.0,0.0,0.0,0.0,0.0,4.0996,0.0,0.0,4.0988,4.0914,4.0955,4.0988,4.0914,4.0959,4.1052,4.1171,4.1191,4.1191,4.1191,4.1191,4.1171,4.1103,4.1103,4.1045,4.0908,4.0908,4.0874,4.0801,4.0801,4.0839,4.0908,4.0908,4.094,4.0996,4.0996,4.0959,4.0908,4.0908,4.0864,4.0801,4.0801,4.0801,4.0793,4.0752,4.0622,4.0412,4.0412,4.0472,4.0582,4.0515,4.0425,4.0304,4.0304,4.0101,3.9819,3.9645,3.9364,3.9026,3.8608,3.8223,3.7859,3.7614,3.7438,3.7283,3.7012,3.7042,3.7081,3.6829,3.6189,3.5529,3.5173,3.4527,3.3592,3.2333,3.1411,3.0432,2.9194,2.6758,2.4631,2.3666,2.2264,2.0343,1.7658,1.7342,1.5569,1.1117,1.0611,0.9662,0.733,0.6355,0.4739,0.1964,0.5109,0.7111,0.7111,0.7701,0.8644,1.0043,1.2031,1.3955,1.5659,1.8347,2.0688,2.2752,2.4972,2.721,0.0,0.0,0.0,0.0,0.0,0.0,0.0,0.0,4.0959,4.0959,4.087,4.0801,4.0801,4.0801,4.0793,4.0788,4.0785,4.0793,4.0788,4.0785,4.0877,4.1103,4.1126,4.1126,4.1126,4.1126,4.1126,4.1126,4.1126,4.1077,4.0964,4.0959,4.0914,4.0801,4.0801,4.0801,4.0801,4.0801,4.0801,4.0801,4.0801,4.0785,4.0788,4.0788,4.0742,4.0655,4.0604,4.0574,4.0563,4.052,4.0293,4.0002,4.0002,4.0139,4.0336,4.0336,4.0194,4.0002,4.0002,3.9775,3.9438,3.9088,3.8925,3.8726,3.8011,3.7792,3.7757,3.7347,3.7411,3.755,3.7384,3.7488,3.7484,3.6828,3.6158,3.5545,3.5043,3.4364,3.3547,3.2436,3.1629,3.0774,2.9508,2.7022,2.4836,2.394,2.2018,1.9878,1.7686,1.7383,1.5651,1.1375,1.0697,0.9657,0.7323,0.5983,0.5001,0.4289,0.6088,0.7262,0.7528,0.8468,0.9579,1.0864,1.3128,1.5313,1.7342,1.9809,2.1954,2.3845,2.6527,2.8292,4.0967,4.1082,4.1171,4.1191,4.1105,4.1023,0.0,0.0,4.0816,4.0816,4.0809,4.0801,4.0801,4.0801,4.0788,4.0729,4.0752,4.0779,4.0718,4.0752,4.0809,4.085,4.0831,4.0831,4.0831,4.0831,4.0831,4.0831,4.0831,4.085,4.0816,4.0816,4.0809,4.0801,4.0801,4.0801,4.0801,4.0801,4.0801,4.0801,4.0801,4.0761,4.0707,4.0707,4.0524,4.0156,3.9867,3.9724,3.9724,3.9719,3.9694,3.9645,3.9645,3.9668,3.9712,3.9712,3.969,3.9645,3.9645,3.9457,3.908,3.8641,3.8282,3.7943,3.7433,3.7418,3.7513,3.7488,3.7659,3.7689,3.7003,3.6786,3.6828,3.6699,3.6127,3.567,3.6243,3.5778,3.4699,3.2905,3.247,3.1667,2.9336,2.715,2.5543,2.4915,2.2704,2.0329,1.8245,1.754,1.5996,1.2492,1.1209,0.9666,0.7344,0.69,0.6815,0.6735,0.6999,0.7705,0.9205,0.8995,0.9923,1.2072,1.4282,1.6032,1.7334,2.1273,2.3666,2.4732,2.7512,2.9219,4.1074,4.1151,0.0,0.0,4.1049,4.0988,4.0908,4.0805,4.0732,4.0732,4.0688,4.0629,4.0629,4.0629,4.0623,0.0,4.0617,4.0623,4.0582,4.0597,4.0629,4.0629,4.0629,4.0679,4.0785,4.0801,4.0801,4.0801,4.0801,4.0768,4.0732,4.0732,4.0721,4.0629,4.0629,4.0559,4.0391,4.0391,4.0292,4.0087,4.0087,4.0074,4.0061,4.0061,3.9967,3.9797,3.9668,3.9599,3.9599,3.9599,3.9505,3.9314,3.9314,3.9223,3.9127,3.9457,3.9481,3.9314,3.9314,3.8925,3.8382,3.8172,3.8129,3.8036,3.7532,3.7746,3.8052,3.7809,3.8129,3.8368,3.7564,3.7653,3.7747,3.6875,3.6362,3.6107,3.6009,3.5285,3.4259,3.289,3.2177,3.1249,2.9682,2.764,2.6102,2.5889,2.3471,2.1009,1.9459,1.8371,1.63,1.2674,1.0697,0.924,0.8204,0.7503,0.7068,0.7071,0.7068,0.768,0.9087,0.9589,1.0945,1.3237,1.5471,1.7429,1.9122,2.205,2.4013,2.498,2.7709,2.915,4.1126,0.0,0.0,4.0964,4.0939,4.0883,4.0788,4.071,4.063,4.063,4.0574,4.0489,4.0489,4.0489,4.0489,4.0489,4.0489,4.0489,4.0489,4.0441,4.0389,4.0389,4.0319,4.0307,4.0442,4.0613,4.0723,4.0723,4.0643,4.0595,4.0544,4.0448,4.0358,4.0266,4.0248,4.0176,3.9963,3.9943,3.984,3.9599,3.9599,3.9599,3.9599,3.9486,3.9462,3.9457,3.9383,3.9352,3.9352,3.9352,3.9197,3.8971,3.8849,3.8651,3.851,3.8822,3.8961,3.8971,3.8802,3.851,3.8149,3.7882,3.8043,3.8298,3.7785,3.8143,3.8591,3.8046,3.8388,3.8721,3.7758,3.7841,3.793,3.6615,3.6275,3.6165,3.5619,3.4691,3.3739,3.282,3.1815,3.0895,2.9934,2.7971,2.6483,2.6483,2.4086,2.1822,2.0555,1.8837,1.6345,1.2801,1.0702,0.938,0.8894,0.7753,0.7228,0.7577,0.7577,0.8273,0.9749,1.0945,1.2468,1.4413,1.6659,1.8674,2.043,2.251,2.4169,2.5392,2.7617,2.9022,0.0,0.0,4.0809,4.0801,4.0752,4.0715,4.0703,4.0596,4.0504,4.0504,4.0504,4.0489,4.0489,4.0489,4.0489,4.0489,4.0489,4.0489,4.0489,4.0286,4.012,4.012,3.9819,3.9645,0.0,4.0156,4.0519,4.0519,4.0267,4.012,4.012,3.9819,3.9645,3.9622,3.9622,3.9622,3.9622,3.9622,3.9599,3.9599,3.9599,3.9599,3.9599,3.9264,3.9125,3.9099,3.8844,3.8719,3.8719,3.8719,3.8719,3.8658,3.8132,3.7928,3.7859,3.7415,3.7877,3.8658,3.8132,3.8381,3.8797,3.7831,3.7992,3.8501,3.8027,3.8427,3.8839,3.8046,3.8331,3.8531,3.7037,3.6645,3.6508,3.5733,3.5504,3.5504,3.5504,3.4691,3.3739,3.282,3.1815,3.0895,2.9934,2.7971,2.6483,2.6483,2.4532,2.2495,2.1099,1.8518,1.582,1.3079,1.1728,1.0406,0.899,0.7753,0.7577,0.8803,0.8803,0.9836,1.2072,1.3315,1.4406,1.5613,1.7811,1.9404,2.043,2.251,2.4411,2.6276,2.7298,2.8971,0.0,0.0,4.0785,4.0742,4.0718,4.0667,4.0602,4.053,4.0457,4.0267,4.0372,4.0457,4.0286,4.0372,4.0489,4.0489,4.0489,4.0489,4.0489,4.0406,4.0304,4.012,4.0002,0.0,0.0,0.0,0.0,3.9905,3.9819,3.9775,3.9775,3.9668,3.9599,3.9599,3.9599,3.9486,3.9264,3.9264,3.9171,3.8998,3.8998,3.8998,3.8998,3.8902,3.8844,3.8815,3.8346,3.8183,3.815,3.7826,3.7703,3.7685,3.7524,3.7433,3.7468,3.7813,3.8142,3.842,3.8217,3.8093,3.8035,3.8183,3.8511,3.8853,3.8664,3.914,3.9548,3.8739,3.8727,3.8564,3.7008,3.6615,3.6384,3.5668,3.5504,3.5294,3.4624,3.3754,3.282,3.1815,3.0908,2.996,2.8846,2.7452,2.5975,2.4478,2.3551,2.2261,1.9982,1.8941,1.7313,1.455,1.3171,1.2322,1.179,1.0563,0.9948,1.0303,1.0173,1.1031,1.3315,1.3814,1.5231,1.7811,1.9219,2.0757,2.2435,2.3806,2.5373,2.7012,2.7803,2.9174,0.0,4.0723,4.069,4.0642,4.0636,4.0582,4.0406,4.0356,4.0267,3.9983,4.0062,4.0157,4.012,4.0139,4.023,4.0339,4.0248,4.0175,4.0175,4.0082,3.9945,3.9757,3.966,3.9519,0.0,0.0,0.0,3.9576,3.9505,3.9414,3.9414,3.9327,3.9294,3.9294,3.9294,3.9189,3.8961,3.8961,3.8759,3.8415,3.8415,3.8318,3.8168,3.8168,3.8168,3.8135,3.7808,3.7649,3.7614,3.7323,3.719,3.7208,3.7298,3.7325,3.7374,3.7934,3.8188,3.8171,3.8362,3.8353,3.8338,3.8659,3.9054,3.9377,3.9377,3.9531,3.9506,3.8761,3.8286,3.7758,3.6508,3.6228,3.6117,3.5619,3.5504,3.5213,3.4245,3.3241,3.2321,3.1389,3.0419,2.9534,2.8858,2.7452,2.5724,2.3474,2.3135,2.2309,2.0156,1.9507,1.8385,1.6019,1.4358,1.3318,1.3223,1.1961,1.142,1.1785,1.1645,1.2586,1.49,1.5411,1.6758,1.9372,2.04,2.1724,2.3427,2.45,2.5656,2.7052,2.7933,2.9201,4.0692,4.0596,4.0489,4.0489,4.0473,4.0406,4.0139,4.0081,3.9982,3.9645,3.9599,3.9712,0.0,0.0,3.9712,4.0022,3.9797,3.9599,3.9599,3.9314,3.9125,0.0,0.0,0.0,0.0,0.0,0.0,3.9505,3.9257,3.9072,3.9072,3.8844,3.8707,3.8707,3.8707,3.8676,3.8658,3.8627,3.8382,3.7859,3.7859,3.7649,3.719,3.719,3.719,3.719,3.7173,3.7152,3.7152,3.7188,3.7167,3.72,3.7408,3.7508,3.7569,3.784,3.7973,3.8051,3.8522,3.9133,3.96,3.92,3.9512,4.007,4.007,3.9489,3.8745,3.7978,3.7203,3.6446,3.5668,3.5504,3.5504,3.5504,3.5504,3.5213,3.4177,3.3241,3.2321,3.1315,3.0343,2.9714,2.9624,2.7879,2.5641,2.3474,2.3135,2.2677,2.148,2.0215,1.8902,1.7394,1.5186,1.371,1.3368,1.2312,1.221,1.332,1.3399,1.4456,1.6843,1.7975,1.9093,2.0289,2.1422,2.2493,2.3402,2.4602,2.5647,2.6621,2.7693,2.8937,4.0588,4.0534,4.0457,4.025,4.0195,4.012,3.9797,3.9731,3.9622,3.9289,3.9622,3.9859,0.0,0.0,0.0,3.9754,3.9645,0.0,3.9599,3.9529,0.0,3.9125,0.0,3.8923,3.8719,3.8707,0.0,0.0,3.8844,3.8803,3.8803,3.875,3.8707,3.8707,3.8707,3.8496,3.8099,3.7738,3.7524,3.736,3.736,3.734,3.719,3.719,3.719,3.719,3.6764,3.6603,3.6615,3.6801,3.6884,3.697,3.7558,3.7819,3.7857,3.8478,3.8717,3.8834,3.9506,3.9486,3.9251,3.9664,3.9935,4.002,3.9385,3.9086,3.8619,3.7247,3.6737,3.6446,3.5668,3.5504,3.5504,3.5504,3.5504,3.5067,3.3325,3.2749,3.2105,3.0495,2.925,2.8267,2.7464,2.613,2.4713,2.3299,2.3135,2.2677,2.148,2.0215,1.9007,1.7742,1.6168,1.5207,1.5136,1.4651,1.4878,1.6126,1.6002,1.6915,1.9255,1.9604,2.0298,2.1441,2.3273,2.4298,2.4602,2.6387,2.7618,2.8249,2.8562,2.95,4.0138,4.012,4.0063,3.9922,3.988,3.9797,3.9457,3.9364,3.9308,3.899,3.9216,0.0,0.0,0.0,0.0,0.0,0.0,0.0,3.9208,3.9208,3.9154,0.0,3.8905,0.0,3.8719,3.8707,3.8707,0.0,3.8465,3.835,3.835,3.8168,3.805,3.805,3.805,3.7895,3.7578,3.7323,3.7058,3.6843,3.6843,3.6724,3.6481,3.6481,3.6481,3.6481,3.6165,3.626,3.6576,3.6724,3.6975,3.7347,3.8091,3.8379,3.8464,3.9191,3.9462,3.9529,3.9935,3.9817,3.9529,3.9952,3.985,3.9489,3.9032,3.8453,3.77,3.6828,3.6399,3.5991,3.5619,3.5504,3.5504,3.5504,3.5133,3.4409,3.289,3.2321,3.1536,3.0075,2.8858,2.7775,2.6719,2.5546,2.4372,2.3299,2.3135,2.2862,2.2217,2.1033,1.9852,1.8588,1.7404,1.6669,1.6669,1.6514,1.6948,1.8099,1.81,1.8789,2.0634,2.0721,2.1256,2.2432,2.4032,2.4908,2.4908,2.7061,2.8255,2.8549,2.906,2.9758,3.9599,3.9599,3.9599,3.9534,3.9529,3.9457,3.9125,3.9063,3.8971,3.8732,0.0,3.8815,3.9008,3.8884,3.8833,3.9008,0.0,3.8707,3.8707,3.8707,3.8707,3.8707,3.8627,3.8578,3.8578,3.8546,3.8515,3.8515,3.7998,3.7755,3.7893,3.747,3.719,3.719,3.7152,3.7097,3.7097,3.702,3.6746,3.6291,3.6291,3.6054,3.5622,3.5622,3.5673,3.5774,3.5774,3.6214,3.6941,3.7026,3.7466,3.8125,3.8853,3.914,3.9208,3.9834,4.002,3.9952,3.9952,3.9901,3.9799,3.9901,3.9489,3.8854,3.8674,3.7642,3.6615,3.6492,3.6006,3.5504,3.5504,3.5504,3.5504,3.5504,3.4765,3.3868,3.2931,3.193,3.0979,3.0136,2.9224,2.8137,2.6911,2.5855,2.4721,2.3388,2.3174,2.3135,2.3135,2.2031,2.0935,1.9852,1.868,1.7963,1.7963,1.7963,1.8411,1.967,1.9761,2.0305,2.148,2.1569,2.2031,2.3047,2.4211,2.4787,2.4787,2.7012,2.8096,2.8096,2.9275,2.9792,3.9599,3.9599,3.9529,3.9257,3.9205,3.9099,3.8815,3.8762,0.0,0.0,0.0,3.8971,3.8803,3.8923,0.0,3.8803,0.0,0.0,0.0,0.0,3.8707,0.0,0.0,0.0,0.0,0.0,0.0,0.0,3.6943,3.7002,3.7859,3.747,3.719,3.719,3.6764,3.6539,3.6539,3.6097,3.581,3.5739,3.5739,3.5694,3.5622,3.5622,3.596,3.6586,3.6586,3.7009,3.7753,3.8362,3.8684,3.887,3.9597,3.9884,3.9901,4.002,3.9662,3.9086,3.9086,3.8707,3.8318,3.8924,3.9016,3.8674,3.7408,3.6843,3.6508,3.5831,3.5619,3.5504,3.5504,3.5504,3.5504,3.5504,3.5116,3.4469,3.3498,3.2262,3.1339,3.1191,3.0935,3.0162,2.8014,2.726,2.6141,2.4019,2.3369,2.3135,2.3135,2.2031,2.1203,2.1025,1.9943,1.9222,1.9222,1.9222,1.967,2.0935,2.1025,2.1569,2.2765,2.2775,2.2872,2.3135,2.4211,2.4787,2.4787,2.7012,2.8096,2.8096,2.9275,2.9792,3.9127,3.9127,3.91,3.8923,3.8894,3.8855,3.8719,0.0,0.0,0.0,0.0,3.8855,3.8719,0.0,0.0,0.0,0.0,0.0,0.0,0.0,0.0,0.0,0.0,0.0,0.0,0.0,3.719,3.719,3.6684,3.6603,3.7079,3.6626,3.6357,3.6357,3.6139,3.5968,3.5968,3.5739,3.5622,3.5622,3.5622,3.5622,3.5639,3.6045,3.6434,3.6806,3.7195,3.7787,3.8497,3.8853,3.9225,3.9597,3.9935,3.9833,3.9489,3.9489,3.8978,3.8302,3.8302,3.8092,3.7806,3.7716,3.77,3.7584,3.6843,3.6322,3.5943,3.5619,3.5504,3.5579,3.5923,3.6013,3.5955,3.5781,3.4754,3.354,3.2564,3.1883,3.1386,3.1386,3.0964,3.0013,2.8189,2.7304,2.62,2.4374,2.3935,2.373,2.3506,2.2914,2.2274,2.1409,2.0755,2.0486,2.0486,2.0486,2.0935,2.2129,2.2217,2.2492,2.3047,2.3135,2.3387,2.3963,2.5136,2.5953,2.6521,2.8187,2.8937,2.9028,2.9534,2.9792,3.8707,3.8707,3.8707,3.8707,3.8707,3.8707,3.8707,3.8707,0.0,0.0,0.0,3.8707,3.8707,0.0,0.0,0.0,0.0,0.0,0.0,0.0,0.0,0.0,0.0,0.0,0.0,0.0,0.0,3.6865,3.6457,3.6224,3.6224,3.581,3.5622,3.5622,3.5622,3.5622,3.5622,3.5622,3.5622,3.5622,3.5791,3.5876,3.5893,3.6671,3.711,3.728,3.7872,3.8548,3.9225,3.9225,3.9496,3.985,4.002,3.961,3.8908,3.8908,3.8414,3.7764,3.7573,3.7456,3.7175,3.6569,3.6508,3.6554,3.6384,3.6049,3.5714,3.5714,3.5804,3.6028,3.6552,3.6686,3.655,3.5928,3.4548,3.3054,3.1959,3.175,3.175,3.175,3.106,3.0095,2.8854,2.7624,2.6409,2.5095,2.4657,2.4297,2.3965,2.3926,2.3409,2.2141,2.1768,2.1667,2.1667,2.1667,2.212,2.3047,2.3135,2.3135,2.3135,2.3135,2.3551,2.4457,2.5305,2.6295,2.7429,2.853,2.9209,2.9443,2.9702,2.9792,3.8707,3.8707,3.8707,3.8707,3.8707,3.8707,3.8707,0.0,0.0,0.0,3.8707,3.8707,3.8707,0.0,0.0,0.0,0.0,0.0,0.0,0.0,0.0,0.0,0.0,0.0,0.0,3.6011,3.5739,3.5739,3.5694,3.565,3.565,3.5622,3.5622,3.5622,3.5622,3.5622,3.5622,3.5622,3.5622,3.5622,3.6332,3.6671,3.6688,3.7449,3.8159,3.8785,3.887,3.9309,3.9969,3.9969,3.9612,3.9086,3.9833,3.961,3.8908,3.8908,3.8414,3.7706,3.6964,3.629,3.5668,3.5619,3.6054,3.6508,3.5782,3.5974,3.6402,3.6402,3.6806,3.724,3.73,3.733,3.698,3.5653,3.5182,3.4643,3.3288,3.2918,3.2918,3.2918,3.2832,3.2364,3.108,2.9619,2.8175,2.6823,2.539,2.4404,2.4365,2.4355,2.4254,2.4113,2.3415,2.295,2.295,2.295,2.296,2.3047,2.3135,2.3135,2.3135,2.3135,2.3135,2.3212,2.3387,2.3963,2.5126,2.6224,2.729,2.8255,2.9287,2.9792,3.8707,3.8707,3.8627,3.83,3.8465,3.8627,3.83,0.0,0.0,3.8707,3.8707,3.8707,3.8707,0.0,0.0,0.0,0.0,0.0,0.0,0.0,0.0,0.0,0.0,0.0,0.0,0.0,3.5622,3.5622,3.5622,3.5622,3.5622,3.5622,3.5622,3.5622,3.5622,3.5622,3.5622,3.5622,3.5859,3.6315,3.6637,3.7009,3.7483,3.8227,3.8717,3.9005,3.9462,3.9817,4.007,4.007,3.961,3.8908,3.9262,3.8619,3.7526,3.7526,3.704,3.6368,3.607,3.5989,3.6088,3.6088,3.6577,3.6985,3.6325,3.6537,3.7045,3.7045,3.7225,3.7494,3.7898,3.736,3.6557,3.5967,3.4862,3.3835,3.3189,3.3081,3.3081,3.3081,3.3081,3.2711,3.14,3.0065,2.8763,2.7492,2.6148,2.5117,2.4844,2.4805,2.4707,2.4443,2.3887,2.3525,2.3525,2.3291,2.3135,2.3135,2.3135,2.3135,2.3135,2.38,2.4467,2.5136,2.5786,2.6696,2.7787,2.8291,2.8712,2.9106,2.9624,2.9792,3.8707,3.8578,3.8382,3.798,3.8183,3.8382,0.0,0.0,0.0,3.8707,3.8707,3.8707,3.8707,0.0,0.0,0.0,0.0,0.0,0.0,0.0,0.0,0.0,0.0,3.5622,0.0,3.5622,3.5622,3.5622,3.5622,3.5622,3.5622,3.5622,3.5622,3.5622,3.5622,3.5622,3.5622,3.5859,3.6231,3.6789,3.7229,3.7719,3.8261,3.8988,3.9326,3.9343,3.9851,3.9952,3.9731,3.9731,3.9139,3.8286,3.8728,3.7987,3.66,3.6843,3.6461,3.5812,3.5779,3.6088,3.6522,3.6701,3.718,3.7629,3.718,3.736,3.7704,3.7704,3.7853,3.8108,3.8571,3.7692,3.6604,3.629,3.4884,3.3471,3.3154,3.3081,3.3081,3.3081,3.3081,3.2797,3.1965,3.0765,2.9498,2.8319,2.703,2.5991,2.5398,2.5264,2.5146,2.4844,2.4424,2.4111,2.3984,2.3691,2.3516,2.3516,2.3516,2.3457,2.333,2.4079,2.4859,2.5473,2.6532,2.7765,2.9034,2.9364,2.9766,3.0269,3.0269,3.0269,3.8707,3.83,3.7911,3.7893,3.7893,3.7911,0.0,0.0,0.0,3.8707,3.8707,3.8707,3.8707,0.0,0.0,0.0,0.0,0.0,0.0,0.0,0.0,0.0,0.0,3.5622,3.5622,3.5622,3.5622,3.5622,3.5622,3.5622,3.5622,3.5622,3.5622,3.5622,3.5622,3.5622,3.5622,3.6383,3.6772,3.6806,3.8261,3.8971,3.9005,3.9732,4.007,4.007,4.007,3.9662,3.8908,3.8908,3.7987,3.6783,3.827,3.7987,3.6737,3.7515,3.7279,3.66,3.6537,3.6477,3.6596,3.721,3.7838,3.8377,3.8377,3.8377,3.8377,3.8377,3.8871,3.9394,3.9409,3.862,3.751,3.6448,3.544,3.4428,3.3313,3.3081,3.3081,3.3081,3.3081,3.3081,3.3068,3.2052,3.0765,2.959,2.8319,2.7125,2.582,2.5732,2.5723,2.5723,2.5322,2.4883,2.4443,2.4404,2.4404,2.4404,2.4404,2.4219,2.3799,2.3779,2.3584,2.3144,2.4211,2.5689,2.7369,2.8362,2.9731,3.1373,3.1373,3.1373,3.8707,3.8596,3.835,3.798,3.8183,3.835,3.798,0.0,0.0,0.0,3.8707,3.8707,3.8707,3.8707,0.0,0.0,0.0,0.0,0.0,0.0,0.0,0.0,0.0,3.5622,0.0,0.0,3.5622,3.5622,3.5622,3.5622,3.5622,3.5622,3.5622,3.5622,3.6129,3.6417,3.6417,3.7161,3.7804,3.8294,3.8768,3.9242,3.9732,3.9969,4.007,4.007,4.007,3.9952,3.9731,3.9731,3.8816,3.7456,3.7978,3.7219,3.5955,3.6651,3.6755,3.6617,3.6948,3.7419,3.7823,3.8018,3.8542,3.9095,3.9095,3.9095,3.9095,3.9095,3.9245,3.9424,3.9424,3.862,3.751,3.6448,3.544,3.4428,3.3313,3.3081,3.3081,3.3081,3.3081,3.3081,3.3081,3.2052,3.1033,3.0676,2.8866,2.7494,2.704,2.6197,2.5742,2.5742,2.5605,2.5342,2.4902,2.459,2.4414,2.4414,2.4414,2.4703,2.5447,2.6218,2.6933,2.764,2.8726,2.9581,3.0104,3.0446,3.0872,3.1386,3.1386,3.1599,0.0,3.8546,3.83,3.798,3.815,0.0,0.0,0.0,0.0,0.0,0.0,3.8707,3.8707,3.8707,3.8596,0.0,0.0,0.0,0.0,0.0,0.0,0.0,0.0,0.0,0.0,3.5622,3.5622,3.5622,3.5622,3.5622,3.5622,3.5893,3.6062,3.6062,3.6535,3.6924,3.7195,3.7939,3.8548,3.8988,3.9276,3.9514,3.9662,3.9952,3.9952,3.9662,3.9969,3.9782,0.0,3.9226,3.8318,3.6951,3.7219,3.6755,3.5989,3.6678,3.6863,3.6926,3.7569,3.8048,3.8437,3.8691,3.9065,3.9424,3.9424,3.9424,3.9424,3.9424,3.9424,3.9424,3.9424,3.862,3.751,3.6448,3.544,3.4428,3.3313,3.3081,3.3081,3.3081,3.3081,3.3081,3.3081,3.2426,3.1777,3.1311,2.9498,2.8132,2.7683,2.6476,2.5742,2.5742,2.5742,2.5625,2.5352,2.5068,2.4912,2.4912,2.4912,2.5375,2.6445,2.7155,2.8042,2.9168,3.0276,3.0897,3.1095,3.1747,3.2026,3.2026,3.2026,3.2215,0.0,0.0,0.0,0.0,0.0,0.0,0.0,0.0,0.0,0.0,0.0,3.8707,3.8707,3.8658,3.8318,0.0,0.0,0.0,0.0,0.0,0.0,0.0,3.5656,0.0,3.569,3.5707,3.5707,3.5707,3.574,3.5774,3.5774,3.6468,3.6874,3.6924,3.6941,3.728,3.7973,3.8652,3.9006,3.9089,3.9699,3.9662,3.9016,3.9782,3.9662,3.8962,3.9662,3.9172,3.7822,3.7822,3.689,3.5683,3.6383,3.6624,3.661,3.7394,3.7562,3.7569,3.8242,3.8467,3.8571,3.9215,3.9424,3.9424,3.9424,3.9424,3.9424,3.9424,3.9424,3.9424,3.9424,3.862,3.751,3.6448,3.544,3.4428,3.3313,3.3081,3.3081,3.3081,3.3081,3.3081,3.3081,3.3081,3.2698,3.15,3.0316,2.9131,2.8049,2.6658,2.583,2.583,2.5732,2.5742,2.5742,2.5742,2.5742,2.5742,2.583,2.62,2.6959,2.7112,2.7536,2.8313,2.9444,3.0289,3.0793,3.2364,3.3081,3.3081,3.3081,3.3081,0.0,0.0,0.0,0.0,0.0,0.0,0.0,0.0,0.0,0.0,0.0,3.8707,3.8707,3.8382,0.0,0.0,0.0,0.0,0.0,0.0,0.0,0.0,3.5977,3.5859,3.6451,3.6502,3.6502,3.6502,3.7043,3.7364,3.7364,3.755,3.7905,3.8464,3.8464,3.8565,3.8734,3.8872,3.9239,3.9834,3.9406,3.9437,3.9833,4.002,3.9662,3.8908,3.9086,3.8652,3.7822,3.7822,3.7219,3.6445,3.7126,3.7036,3.6663,3.7828,3.8211,3.8257,3.8931,3.917,3.92,3.9364,3.9424,3.9424,3.9424,3.9424,3.9424,3.9424,3.9424,3.9424,3.9424,3.862,3.751,3.6448,3.544,3.4428,3.3313,3.3081,3.3081,3.3081,3.3081,3.3081,3.3081,3.3081,3.2982,3.2698,3.1589,3.0676,3.0406,2.8495,2.7125,2.7125,2.6294,2.5742,2.5742,2.5742,2.5742,2.5742,2.6562,2.7263,2.7432,2.9228,3.0252,3.0502,3.1686,3.2388,3.2512,3.292,3.3081,3.3081,3.3081,3.3081,0.0,0.0,0.0,0.0,0.0,0.0,0.0,0.0,0.0,0.0,0.0,0.0,3.8332,0.0,0.0,0.0,0.0,0.0,0.0,0.0,0.0,3.6721,3.6705,3.6705,3.6772,3.7094,3.7297,3.7297,3.7669,3.7905,3.7905,3.8227,3.8582,3.8988,3.9326,3.9495,3.9495,3.9478,3.9662,4.007,3.9262,3.8978,3.9049,3.9049,3.8596,3.7873,3.8246,3.7962,3.7263,3.7263,3.6985,3.6606,3.6972,3.7192,3.7449,3.8138,3.8586,3.8916,3.929,3.9424,3.9424,3.9424,3.9424,3.9424,3.9424,3.9424,3.9424,3.9424,3.9424,3.9424,3.9424,3.862,3.751,3.6448,3.544,3.4428,3.3313,3.3081,3.3081,3.3081,3.3081,3.3081,3.3081,3.3081,3.3081,3.3081,3.2052,3.1223,3.1223,2.959,2.8226,2.7683,2.6935,2.6294,2.5732,2.5742,2.5742,2.5742,2.639,2.722,2.8412,2.9681,3.0956,3.2052,3.2797,3.3081,3.3081,3.3081,3.3081,3.3081,3.3081,3.3081,0.0,0.0,0.0,0.0,0.0,0.0,0.0,0.0,0.0,0.0,0.0,0.0,0.0,0.0,0.0,0.0,0.0,0.0,0.0,0.0,0.0,3.6924,3.7415,3.7584,3.7144,3.7702,3.8075,3.8075,3.8176,3.8179,3.8065,3.8654,3.8925,3.8824,3.9412,3.9731,3.9731,3.9731,3.9731,3.9731,3.8908,3.8302,3.7822,3.7822,3.7338,3.6676,3.7338,3.716,3.6446,3.6554,3.6542,3.6507,3.6701,3.7434,3.8407,3.8497,3.8916,3.9424,3.9424,3.9424,3.9424,3.9424,3.9424,3.9424,3.9424,3.9424,3.9424,3.9424,3.9424,3.9424,3.9424,3.862,3.751,3.6448,3.544,3.4428,3.3313,3.3081,3.3081,3.3081,3.3081,3.3081,3.3081,3.3081,3.3081,3.3081,3.2152,3.15,3.15,3.0406,2.9315,2.8226,2.7955,2.74,2.638,2.6284,2.6197,2.6014,2.6197,2.7389,2.9863,2.9772,3.0777,3.3081,3.3081,3.3081,3.3081,3.3081,3.3081,3.3081,3.3081,3.3081,3.8707,0.0,0.0,0.0,0.0,0.0,0.0,0.0,0.0,0.0,0.0,0.0,0.0,0.0,0.0,0.0,0.0,0.0,0.0,0.0,3.6282,3.7584,0.0,3.7398,3.8548,3.8751,3.8819,3.8819,3.9394,3.9463,3.8755,3.8854,3.8652,3.7988,3.8101,3.8149,3.8149,3.8149,3.8149,3.8149,3.7322,3.7263,3.7822,3.7822,3.7338,3.6615,3.6737,3.6337,3.5714,3.627,3.6505,3.6596,3.7674,3.8227,3.8467,3.905,3.9334,3.9424,3.9424,3.9424,3.9424,3.9424,3.9424,3.9424,3.9424,3.9424,3.9424,3.9424,3.9424,3.9424,3.9424,3.862,3.751,3.6448,3.544,3.4428,3.3313,3.3081,3.3081,3.3081,3.3081,3.3081,3.3081,3.3081,3.3081,3.3081,3.2884,3.2797,3.2797,3.1689,3.0855,3.0676,2.9772,2.9039,2.8855,2.8855,2.8402,2.74,2.8319,2.9954,3.2426,3.15,3.1601,3.3068,3.3081,3.3081,3.3081,3.3081,3.3081,3.3081,3.3081,3.3081,3.8707,3.8707,0.0,0.0,0.0,0.0,0.0,0.0,0.0,0.0,0.0,0.0,0.0,0.0,0.0,0.0,0.0,3.5774,3.618,3.6603,3.7127,0.0,3.8294,3.8667,3.8954,3.9343,3.958,3.958,3.9495,3.9315,3.8908,3.8525,3.8149,3.7806,3.7822,3.7573,3.716,3.7144,3.7397,3.7806,3.6964,3.6783,3.716,3.6768,3.6368,3.6006,3.6006,3.6042,3.6058,3.6357,3.6896,3.7569,3.8167,3.8616,3.899,3.9305,3.9424,3.9424,3.9424,3.9424,3.9424,3.9424,3.9424,3.9424,3.9424,3.9424,3.9424,3.9424,3.9424,3.9424,3.9424,3.862,3.751,3.6448,3.544,3.4428,3.3313,3.3081,3.3081,3.3081,3.3081,3.3081,3.3081,3.3081,3.3081,3.3081,3.3081,3.3081,3.3081,3.2612,3.1965,3.1311,3.0676,3.0135,2.9498,2.9407,2.9131,2.8588,2.9131,3.0226,3.1965,3.214,3.2513,3.3081,3.3081,3.3081,3.3081,3.3081,3.3081,3.3081,3.3081,3.3081,3.8707,3.8707,3.8707,0.0,0.0,0.0,0.0,0.0,0.0,0.0,0.0,0.0,0.0,0.0,0.0,0.0,3.5622,3.5825,3.6417,3.7161,3.7719,3.7889,3.9039,3.9614,3.9042,3.9463,3.9731,3.9558,3.8978,3.858,3.8398,3.7847,3.7456,3.7294,3.7235,3.6935,3.6337,3.6337,3.6631,3.7235,3.6631,3.6337,3.6337,3.5782,3.5504,3.5519,3.5669,3.6028,3.6507,3.6806,3.7509,3.8407,3.8571,3.896,3.9424,3.9424,3.9424,3.9424,3.9424,3.9424,3.9424,3.9424,3.9424,3.9424,3.9424,3.9424,3.9424,3.9424,3.9424,3.9424,3.9424,3.8782,3.7829,3.6526,3.5588,3.465,3.3398,3.3081,3.3081,3.3081,3.3081,3.3081,3.3081,3.3081,3.3081,3.3081,3.3081,3.3081,3.3081,3.3081,3.2711,3.1777,3.1677,3.1235,3.0316,2.9954,2.9954,3.0226,3.0226,3.0586,3.1134,3.2426,3.3081,3.3081,3.3081,3.3081,3.3081,3.3081,3.3081,3.3081,3.3081,3.3081,3.8707,3.8707,0.0,0.0,0.0,0.0,0.0,0.0,0.0,0.0,0.0,0.0,0.0,0.0,0.0,0.0,3.5622,3.5639,3.569,0.0,3.711,3.7821,3.8599,3.9026,3.89,3.8945,3.869,3.8035,3.7921,3.7557,3.6783,3.6722,3.6399,3.5683,3.5683,3.5619,3.5554,3.5554,3.5619,3.5683,3.5619,3.5554,3.5554,3.5504,3.5504,3.5534,3.6148,3.6447,3.6582,3.7764,3.8302,3.8452,3.9095,3.9379,3.9424,3.9424,3.9424,3.9424,3.9424,3.9424,3.9424,3.9424,3.9424,3.9424,3.9424,3.9424,3.9424,3.9424,3.9424,3.9424,3.9424,3.9337,3.8767,3.6682,3.6119,3.5574,3.3543,3.3081,3.3081,3.3081,3.3081,3.3081,3.3081,3.3081,3.3081,3.3081,3.3081,3.3081,3.3081,3.3081,3.3068,3.2982,3.2982,3.2896,3.2797,3.1777,3.1589,3.2797,3.2797,3.2326,3.1223,3.2426,3.3081,3.3081,3.3081,3.3081,3.3081,3.3081,3.3081,3.3081,3.3081,3.3081,3.8707,3.8707,0.0,0.0,0.0,0.0,0.0,0.0,0.0,0.0,0.0,0.0,0.0,0.0,0.0,3.5622,3.5622,3.5791,3.6282,3.6992,3.7593,3.7819,3.8484,3.8751,3.8286,3.8206,3.8092,3.7822,3.7338,3.6904,3.6615,3.6165,3.5782,3.5504,3.5504,3.5504,3.5504,3.5504,3.5504,3.5504,3.5504,3.5504,3.5504,3.5504,3.5729,3.6133,3.6372,3.6941,3.7704,3.8182,3.8646,3.905,3.932,3.9424,3.9424,3.9424,3.9424,3.9424,3.9424,3.9424,3.9424,3.9424,3.9424,3.9424,3.9424,3.9424,3.9424,3.9424,3.9424,3.9424,3.9424,3.8943,3.8055,3.6526,3.5734,3.4897,3.3386,3.3081,3.3081,3.3081,3.3081,3.3081,3.3081,3.3081,3.3081,3.3081,3.3081,3.3081,3.3081,3.3081,3.3081,3.3081,3.3081,3.3081,3.3081,3.2698,3.2239,3.1965,3.1965,3.2052,3.2339,3.2797,3.3081,3.3081,3.3081,3.3081,3.3081,3.3081,3.3081,3.3081,3.3081,3.3081,3.8707,3.8596,0.0,0.0,0.0,0.0,0.0,0.0,0.0,0.0,0.0,0.0,0.0,0.0,0.0,0.0,3.5622,3.5893,3.6671,3.7208,3.7603,3.7771,3.8264,3.8246,3.7499,3.7397,3.7338,3.7055,3.6585,3.6275,3.6275,3.5782,3.5504,3.5504,3.5504,3.5504,3.5504,3.5504,3.5504,3.5504,3.5504,3.5504,3.5519,3.5729,3.6058,3.6507,3.6911,3.7584,3.8407,3.8631,3.899,3.9424,3.9424,3.9424,3.9424,3.9424,3.9424,3.9424,3.9424,3.9424,3.9424,3.9424,3.9424,3.9424,3.9424,3.9424,3.9424,3.9424,3.9424,3.9424,3.9424,3.862,3.751,3.6448,3.544,3.4428,3.3313,3.3081,3.3081,3.3081,3.3081,3.3081,3.3081,3.3081,3.3081,3.3081,3.3081,3.3081,3.3081,3.3081,3.3081,3.3081,3.3081,3.3081,3.3081,3.3081,3.2698,3.1865,3.1777,3.2052,3.2513,3.2896,3.3081,3.3081,3.3081,3.3081,3.3081,3.3081,3.3081,3.3081,3.3081,3.3081,3.8707,0.0,0.0,0.0,0.0,0.0,0.0,0.0,0.0,0.0,0.0,0.0,0.0,0.0,0.0,3.5622,3.5577,3.5893,3.6688,3.6753,3.6979,3.7719,3.7785,3.7456,3.6676,3.6615,3.6275,3.5554,3.5504,3.5504,3.5504,3.5504,3.5504,3.5504,3.5504,3.5504,3.5504,3.5504,3.5504,3.5504,3.5519,3.5519,3.5534,3.6193,3.6492,3.6567,3.7838,3.8392,3.8452,3.914,3.9424,3.9424,3.9424,3.9424,3.9424,3.9424,3.9424,3.9424,3.9424,3.9424,3.9424,3.9424,3.9424,3.9424,3.9424,3.9424,3.9424,3.9424,3.9424,3.9424,3.9424,3.862,3.751,3.6448,3.544,3.4428,3.3313,3.3081,3.3081,3.3081,3.3081,3.3081,3.3081,3.3081,3.3081,3.3081,3.3081,3.3081,3.3081,3.3081,3.3081,3.3081,3.3081,3.3081,3.3081,3.3081,3.3081,3.3081,3.3081,3.2513,3.1311,3.2426,3.3081,3.3081,3.3081,3.3081,3.3081,3.3081,3.3081,3.3081,3.3081,3.3081,3.8707,0.0,0.0,0.0,0.0,0.0,0.0,0.0,0.0,0.0,0.0,0.0,0.0,0.0,0.0,3.5622,3.5613,3.5843,3.6622,3.6698,3.6742,3.6927,3.6958,3.6631,3.5894,3.5846,3.5733,3.5504,3.5504,3.5504,3.5504,3.5504,3.5504,3.5504,3.5504,3.5504,3.5504,3.5504,3.5504,3.5504,3.5968,3.6193,3.6207,3.6402,3.6971,3.7853,3.8227,3.8661,3.9125,3.9334,3.9424,3.9424,3.9424,3.9424,3.9424,3.9424,3.9424,3.9424,3.9424,3.9424,3.9424,3.9424,3.9424,3.9424,3.9424,3.9424,3.9424,3.9424,3.9424,3.9424,3.9424,3.8055,3.6604,3.629,3.544,3.4428,3.3313,3.3081,3.3081,3.3081,3.3081,3.3081,3.3081,3.3081,3.3081,3.3081,3.3081,3.3081,3.3081,3.3081,3.3081,3.3081,3.3081,3.3081,3.3081,3.3081,3.3081,3.3081,3.3081,3.2896,3.2513,3.2896,3.3081,3.3081,3.3081,3.3081,3.3081,3.3081,3.3081,3.3081,3.3081,3.3081,3.8168,0.0,0.0,0.0,0.0,0.0,0.0,0.0,0.0,0.0,0.0,0.0,3.5622,3.5876,0.0,3.6079,3.6296,3.6655,3.7096,3.6864,3.6663,3.6583,3.6337,3.6006,3.5554,3.5504,3.5504,3.5504,3.5504,3.5504,3.5504,3.5504,3.5504,3.5504,3.5504,3.5504,3.5504,3.5504,3.5639,3.5893,3.6297,3.6746,3.724,3.724,3.7659,3.8407,3.8676,3.9035,3.9424,3.9424,3.9424,3.9424,3.9424,3.9424,3.9424,3.9424,3.9424,3.9424,3.9424,3.9424,3.9424,3.9424,3.9424,3.9424,3.9424,3.9424,3.9424,3.9424,3.9424,3.9424,3.9424,3.8457,3.7252,3.6434,3.5116,3.3869,3.324,3.3081,3.3081,3.3081,3.3081,3.3081,3.3081,3.3081,3.3081,3.3081,3.3081,3.3081,3.3081,3.3081,3.3081,3.3081,3.3081,3.3081,3.3081,3.3081,3.3081,3.3081,3.3081,3.3081,3.3081,3.3081,3.3081,3.3081,3.3081,3.3081,3.3081,3.3081,3.3081,3.3081,3.3081,3.3081,0.0,0.0,0.0,0.0,0.0,0.0,0.0,0.0,0.0,0.0,0.0,0.0,3.5723,3.6253,3.6743,3.6874,3.7357,3.7686,3.7719,3.7077,3.6569,3.6492,3.5894,3.5504,3.5504,3.5504,3.5504,3.5504,3.5504,3.5504,3.5504,3.5504,3.5504,3.5504,3.5504,3.5504,3.5504,3.5564,3.5893,3.6492,3.6611,3.727,3.8392,3.8392,3.8422,3.8527,3.9155,3.9424,3.9424,3.9424,3.9424,3.9424,3.9424,3.9424,3.9424,3.9424,3.9424,3.9424,3.9424,3.9424,3.9424,3.9424,3.9424,3.9424,3.9424,3.9424,3.9424,3.9424,3.9424,3.9424,3.9424,3.9337,3.8782,3.6682,3.4719,3.3313,3.3154,3.3081,3.3081,3.3081,3.3081,3.3081,3.3081,3.3081,3.3081,3.3081,3.3081,3.3081,3.3081,3.3081,3.3081,3.3081,3.3081,3.3081,3.3081,3.3081,3.3081,3.3081,3.3081,3.3081,3.3081,3.3081,3.3081,3.3081,3.3081,3.3081,3.3081,3.3081,3.3081,3.3081,3.3081,3.3081,0.0,0.0,0.0,0.0,0.0,0.0,0.0,0.0,0.0,0.0,0.0,3.5808,3.6417,3.6181,3.6272,3.7455,3.6743,3.6235,3.6846,3.6269,3.5743,3.5767,3.5619,3.5504,3.5504,3.5504,3.5504,3.5504,3.5504,3.5504,3.5504,3.5504,3.5504,3.5504,3.5504,3.5504,3.5504,3.6013,3.6357,3.6492,3.7494,3.8123,3.8392,3.8392,3.8691,3.92,3.9349,3.9424,3.9424,3.9424,3.9424,3.9424,3.9424,3.9424,3.9424,3.9424,3.9424,3.9424,3.9424,3.9424,3.9424,3.9424,3.9424,3.9424,3.9424,3.9424,3.9424,3.9424,3.9424,3.9424,3.9424,3.8782,3.7829,3.6526,3.5894,3.5116,3.3471,3.3081,3.3081,3.3081,3.3081,3.3081,3.3081,3.3081,3.3081,3.3081,3.3081,3.3081,3.3081,3.3081,3.3081,3.3081,3.3081,3.3081,3.3081,3.3081,3.3081,3.3081,3.3081,3.3081,3.3081,3.3081,3.3081,3.3081,3.3081,3.3081,3.3081,3.3081,3.3081,3.3081,3.3081,3.3081,0.0,0.0,0.0,0.0,0.0,0.0,0.0,0.0,0.0,0.0,3.618,3.6417,3.7178,3.728,3.7353,3.7803,3.7443,3.7001,3.6727,3.6291,3.5894,3.5569,3.5504,3.5504,3.5504,3.5504,3.5504,3.5504,3.5504,3.5504,3.5504,3.5504,3.5504,3.5504,3.5504,3.5504,3.5504,3.6148,3.6641,3.6941,3.7928,3.8556,3.8886,3.8886,3.908,3.9424,3.9424,3.9424,3.9424,3.9424,3.9424,3.9424,3.9424,3.9424,3.9424,3.9424,3.9424,3.9424,3.9424,3.9424,3.9424,3.9424,3.9424,3.9424,3.9424,3.9424,3.9424,3.9424,3.9424,3.9424,3.9424,3.9017,3.8308,3.7252,3.6225,3.5034,3.3471,3.3081,3.3081,3.3081,3.3081,3.3081,3.3081,3.3081,3.3081,3.3081,3.3081,3.3081,3.3081,3.3081,3.3081,3.3081,3.3081,3.3081,3.3081,3.3081,3.3081,3.3081,3.3081,3.3081,3.3081,3.3081,3.3081,3.3081,3.3081,3.3081,3.3081,3.3081,3.3081,3.3081,3.3081,3.3081,0.0,0.0,0.0,0.0,0.0,0.0,0.0,0.0,0.0,0.0,3.6996,3.7148,3.7795,3.8254,3.842,3.7912,3.8079,3.793,3.6783,3.6492,3.6165,3.5554,3.5504,3.5504,3.5504,3.5504,3.5504,3.5504,3.5504,3.5504,3.5504,3.5504,3.5504,3.5504,3.5504,3.5564,3.5669,3.6327,3.6956,3.7584,3.8242,3.8871,3.9424,3.9424,3.9424,3.9424,3.9424,3.9424,3.9424,3.9424,3.9424,3.9424,3.9424,3.9424,3.9424,3.9424,3.9424,3.9424,3.9424,3.9424,3.9424,3.9424,3.9424,3.9424,3.9424,3.9424,3.9424,3.9424,3.9424,3.9424,3.9424,3.9424,3.9104,3.8069,3.6318,3.4664,3.3641,3.324,3.3081,3.3081,3.3081,3.3081,3.3081,3.3081,3.3081,3.3081,3.3081,3.3081,3.3081,3.3081,3.3081,3.3081,3.3081,3.3081,3.3081,3.3081,3.3081,3.3081,3.3081,3.3081,3.3081,3.3081,3.3081,3.3081,3.3081,3.3081,3.3081,3.3081,3.3081,3.3081,3.3081,3.3081,0.0,0.0,0.0,0.0,0.0,0.0,0.0,0.0,0.0,0.0,3.7703,3.7764,3.7814,3.7362,3.7166,3.768,3.6767,3.6133,3.6554,3.6054,3.5619,3.5504,3.5504,3.5504,3.5504,3.5504,3.5504,3.5504,3.5504,3.5504,3.5504,3.5504,3.5504,3.5504,3.5504,3.5774,3.6357,3.6971,3.7614,3.8257,3.896,3.9334,3.9424,3.9424,3.9424,3.9424,3.9424,3.9424,3.9424,3.9424,3.9424,3.9424,3.9424,3.9424,3.9424,3.9424,3.9424,3.9424,3.9424,3.9424,3.9424,3.9424,3.9424,3.9424,3.9424,3.9424,3.9424,3.9424,3.9424,3.9424,3.9424,3.9424,3.9104,3.8069,3.6866,3.5734,3.4746,3.3797,3.3081,3.3081,3.3081,3.3081,3.3081,3.3081,3.3081,3.3081,3.3081,3.3081,3.3081,3.3081,3.3081,3.3081,3.3081,3.3081,3.3081,3.3081,3.3081,3.3081,3.3081,3.3081,3.3081,3.3081,3.3081,3.3081,3.3081,3.3081,3.3081,3.3081,3.3081,3.3081,3.3081,3.3081,0.0,0.0,0.0,0.0,0.0,0.0,0.0,0.0,0.0,3.764,3.783,3.7834,3.7799,3.7512,3.7265,3.7172,3.6569,3.6117,3.6006,3.5718,3.5504,3.5504,3.5504,3.5504,3.5504,3.5504,3.5504,3.5504,3.5504,3.5504,3.5504,3.5504,3.5504,3.5504,3.5863,3.6193,3.6492,3.7464,3.8302,3.8975,3.9275,3.9424,3.9424,3.9424,3.9424,3.9424,3.9424,3.9424,3.9424,3.9424,3.9424,3.9424,3.9424,3.9424,3.9424,3.9424,3.9424,3.9424,3.9424,3.9424,3.9424,3.9424,3.9424,3.9424,3.9424,3.9424,3.9424,3.9424,3.9424,3.9424,3.9424,3.9424,3.9265,3.8782,3.7904,3.6944,3.6554,3.4664,3.3081,3.3081,3.3081,3.3081,3.3081,3.3081,3.3081,3.3081,3.3081,3.3081,3.3081,3.3081,3.3081,3.3081,3.3081,3.3081,3.3081,3.3081,3.3081,3.3081,3.3081,3.3081,3.3081,3.3081,3.3081,3.3081,3.3081,3.3081,3.3081,3.3081,3.3081,3.3081,3.3081,3.3081,0.0,0.0,0.0,0.0,0.0,0.0,0.0,0.0,3.6861,0.0,3.7495,3.7456,3.7235,3.7338,3.7219,3.6446,3.6337,3.6117,3.5554,3.5504,3.5504,3.5504,3.5504,3.5504,3.5504,3.5504,3.5504,3.5504,3.5504,3.5504,3.5504,3.5504,3.5579,3.5744,3.6237,3.6641,3.6971,3.8078,3.8916,3.9424,3.9424,3.9424,3.9424,3.9424,3.9424,3.9424,3.9424,3.9424,3.9424,3.9424,3.9424,3.9424,3.9424,3.9424,3.9424,3.9424,3.9424,3.9424,3.9424,3.9424,3.9424,3.9424,3.9424,3.9424,3.9424,3.9424,3.9424,3.9424,3.9424,3.9424,3.9424,3.9424,3.9424,3.9424,3.8546,3.7677,3.7127,3.5142,3.3398,3.3154,3.3081,3.3081,3.3081,3.3081,3.3081,3.3081,3.3081,3.3081,3.3081,3.3081,3.3081,3.3081,3.3081,3.3081,3.3081,3.3081,3.3081,3.3081,3.3081,3.3081,3.3081,3.3081,3.3081,3.3081,3.3081,3.3081,3.3081,3.3081,3.3081,3.3081,3.3081,3.3081,0.0,0.0,0.0,0.0,0.0,0.0,0.0,0.0,3.6708,3.6656,3.6645,3.6446,3.5733,3.6165,3.6446,3.5668,3.5554,3.5554,3.5504,3.5504,3.5504,3.5504,3.5504,3.5504,3.5504,3.5504,3.5504,3.5504,3.5504,3.5504,3.5504,3.5504,3.5789,3.6417,3.6477,3.7075,3.8287,3.9005,3.9394,3.9424,3.9424,3.9424,3.9424,3.9424,3.9424,3.9424,3.9424,3.9424,3.9424,3.9424,3.9424,3.9424,3.9424,3.9424,3.9424,3.9424,3.9424,3.9424,3.9424,3.9424,3.9424,3.9424,3.9424,3.9424,3.9424,3.9424,3.9424,3.9424,3.9424,3.9424,3.9424,3.9424,3.9424,3.9424,3.8546,3.7281,3.5305,3.4746,3.4345,3.3313,3.3081,3.3081,3.3081,3.3081,3.3081,3.3081,3.3081,3.3081,3.3081,3.3081,3.3081,3.3081,3.3081,3.3081,3.3081,3.3081,3.3081,3.3081,3.3081,3.3081,3.3081,3.3081,3.3081,3.3081,3.3081,3.3081,3.3081,3.3081,3.3081,3.3081,3.3081,3.3081,0.0,0.0,0.0,0.0,0.0,0.0,0.0,3.6276,3.6032,3.6537,3.6212,3.5846,3.5554,3.5733,3.5846,3.5554,3.5504,3.5504,3.5504,3.5504,3.5504,3.5504,3.5504,3.5504,3.5504,3.5504,3.5504,3.5504,3.5504,3.5504,3.5504,3.5908,3.6237,3.6477,3.7285,3.8138,3.9035,3.929,3.9424,3.9424,3.9424,3.9424,3.9424,3.9424,3.9424,3.9424,3.9424,3.9424,3.9424,3.9424,3.9424,3.9424,3.9424,3.9424,3.9424,3.9424,3.9424,3.9424,3.9424,3.9424,3.9424,3.9424,3.9424,3.9424,3.9424,3.9424,3.9424,3.9424,3.9424,3.9424,3.9424,3.9424,3.9424,3.9424,3.9104,3.8472,3.6958,3.5061,3.3556,3.3154,3.3081,3.3081,3.3081,3.3081,3.3081,3.3081,3.3081,3.3081,3.3081,3.3081,3.3081,3.3081,3.3081,3.3081,3.3081,3.3081,3.3081,3.3081,3.3081,3.3081,3.3081,3.3081,3.3081,3.3081,3.3081,3.3081,3.3081,3.3081,3.3081,3.3081,3.3081,3.3081,3.5622,0.0,0.0,0.0,0.0,0.0,0.0,0.0,3.5645,3.6136,3.5831,3.5504,3.5504,3.5504,3.5504,3.5504,3.5504,3.5504,3.5504,3.5504,3.5504,3.5504,3.5504,3.5504,3.5504,3.5504,3.5504,3.5504,3.5504,3.5504,3.5504,3.6133,3.6686,3.7105,3.8167,3.896,3.9424,3.9424,3.9424,3.9424,3.9424,3.9424,3.9424,3.9424,3.9424,3.9424,3.9424,3.9424,3.9424,3.9424,3.9424,3.9424,3.9424,3.9424,3.9424,3.9424,3.9424,3.9424,3.9424,3.9424,3.9424,3.9424,3.9424,3.9424,3.9424,3.9424,3.9424,3.9424,3.9424,3.9424,3.9424,3.9424,3.9424,3.9424,3.9104,3.8708,3.7919,3.5842,3.4024,3.3713,3.3313,3.3081,3.3081,3.3081,3.3081,3.3081,3.3081,3.3081,3.3081,3.3081,3.3081,3.3081,3.3081,3.3081,3.3081,3.3081,3.3081,3.3081,3.3081,3.3081,3.3081,3.3081,3.3081,3.3081,3.3081,3.3081,3.3081,3.3081,3.3081,3.3081,3.3081,3.3181,0.0,0.0,0.0,0.0,0.0,0.0,3.651,0.0,3.5504,3.5504,3.5504,3.5504,3.5504,3.5504,3.5504,3.5504,3.5504,3.5504,3.5504,3.5504,3.5504,3.5504,3.5504,3.5504,3.5504,3.5504,3.5504,3.5504,3.5504,3.5519,3.5534,3.6178,3.712,3.8377,3.9065,3.9424,3.9424,3.9424,3.9424,3.9424,3.9424,3.9424,3.9424,3.9424,3.9424,3.9424,3.9424,3.9424,3.9424,3.9424,3.9424,3.9424,3.9424,3.9424,3.9424,3.9424,3.9424,3.9424,3.9424,3.9424,3.9424,3.9424,3.9424,3.9424,3.9424,3.9424,3.9424,3.9424,3.9424,3.9424,3.9424,3.9424,3.9424,3.9424,3.862,3.7829,3.7829,3.7021,3.5894,3.4897,3.3797,3.3081,3.3081,3.3081,3.3081,3.3081,3.3081,3.3081,3.3081,3.3081,3.3081,3.3081,3.3081,3.3081,3.3081,3.3081,3.3081,3.3081,3.3081,3.3081,3.3081,3.3093,3.3106,3.3106,3.3119,3.3131,3.3131,3.3106,3.3106,3.3106,3.3119,3.3407,3.5622,0.0,0.0,0.0,0.0,0.0,0.0,0.0,3.6165,3.5619,3.5504,3.5504,3.5504,3.5504,3.5504,3.5504,3.5504,3.5504,3.5504,3.5504,3.5504,3.5504,3.5504,3.5504,3.5504,3.5504,3.5504,3.5504,3.5504,3.5714,3.6193,3.727,3.8257,3.911,3.932,3.9424,3.9424,3.9424,3.9424,3.9424,3.9424,3.9424,3.9424,3.9424,3.9424,3.9424,3.9424,3.9424,3.9424,3.9424,3.9424,3.9424,3.9424,3.9424,3.9424,3.9424,3.9424,3.9424,3.9424,3.9424,3.9424,3.9424,3.9424,3.9424,3.9424,3.9424,3.9424,3.9424,3.9424,3.9424,3.9424,3.9424,3.9424,3.9424,3.9177,3.8943,3.8943,3.7482,3.5894,3.4897,3.3797,3.3081,3.3081,3.3081,3.3081,3.3081,3.3081,3.3081,3.3081,3.3081,3.3081,3.3081,3.3081,3.3081,3.3081,3.3081,3.3081,3.3081,3.3081,3.3081,3.3081,3.3458,3.3671,3.3671,3.406,3.4274,3.4274,3.3872,3.3671,3.3684,3.4085,3.3308,3.5622,3.5622,0.0,0.0,0.0,0.0,3.6569,3.6368,3.6006,3.5619,3.5504,3.5504,3.5504,3.5504,3.5504,3.5504,3.5504,3.5504,3.5504,3.5504,3.5504,3.5504,3.5504,3.5504,3.5504,3.5504,3.5504,3.5504,3.5504,3.5908,3.6821,3.7838,3.8706,3.9394,3.9424,3.9424,3.9424,3.9424,3.9424,3.9424,3.9424,3.9424,3.9424,3.9424,3.9424,3.9424,3.9424,3.9424,3.9424,3.9424,3.9424,3.9424,3.9424,3.9424,3.9424,3.9424,3.9424,3.9424,3.9424,3.9424,3.9424,3.9424,3.9424,3.9424,3.9424,3.9424,3.9424,3.9424,3.9424,3.9424,3.9424,3.9424,3.9424,3.9424,3.9424,3.9499,3.9768,3.8127,3.6369,3.5494,3.4108,3.3081,3.3081,3.3081,3.3081,3.3081,3.3081,3.3081,3.3081,3.3081,3.3081,3.3081,3.3081,3.3081,3.3081,3.3294,3.342,3.342,3.3633,3.3759,3.3759,3.4073,3.4248,3.4248,3.4562,3.4839,3.5064,3.4512,3.4248,3.4248,3.4575,3.3679,3.5622,3.5577,3.5701,3.6477,3.6155,0.0,3.6421,3.6105,3.5619,3.5504,3.5504,3.5504,3.5504,3.5504,3.5504,3.5504,3.5504,3.5504,3.5504,3.5504,3.5504,3.5504,3.5504,3.5504,3.5504,3.5504,3.5504,3.5504,3.5639,3.6207,3.7345,3.8108,3.8781,3.9394,3.9424,3.9424,3.9424,3.9424,3.9424,3.9424,3.9424,3.9424,3.9424,3.9424,3.9424,3.9424,3.9424,3.9424,3.9424,3.9424,3.9424,3.9424,3.9424,3.9424,3.9424,3.9424,3.9424,3.9424,3.9424,3.9424,3.9424,3.9424,3.9424,3.9424,3.9424,3.9424,3.9424,3.9424,3.9424,3.9424,3.9424,3.9424,3.9439,3.9514,3.9529,3.9709,4.0367,3.8788,3.7082,3.6515,3.4629,3.3156,3.3081,3.3081,3.3081,3.3081,3.3081,3.3106,3.3156,3.3169,3.3194,3.3257,3.3257,3.3257,3.3257,3.3709,3.3985,3.3985,3.4449,3.4726,3.4726,3.4776,3.4813,3.4813,3.4876,3.514,3.5642,3.5077,3.4851,3.4901,3.4901,3.4379,0.0,0.0,0.0,0.0,0.0,0.0,3.5775,3.6135,3.6228,3.5619,3.5504,3.5504,3.5504,3.5504,3.5504,3.5504,3.5504,3.5504,3.5504,3.5504,3.5504,3.5504,3.5504,3.5504,3.5504,3.5504,3.5504,3.5504,3.6462,3.715,3.7404,3.8556,3.9275,3.9424,3.9424,3.9424,3.9424,3.9424,3.9424,3.9424,3.9424,3.9424,3.9424,3.9424,3.9424,3.9424,3.9424,3.9424,3.9424,3.9424,3.9424,3.9424,3.9424,3.9424,3.9424,3.9424,3.9424,3.9424,3.9424,3.9424,3.9424,3.9424,3.9424,3.9424,3.9424,3.9424,3.9424,3.9424,3.9424,3.9424,3.9424,3.9424,3.9559,4.0083,4.0202,4.0382,4.1055,3.9434,3.7855,3.7744,3.5608,3.3596,3.3156,3.3081,3.3081,3.3081,3.3081,3.3232,3.3684,3.3734,3.3909,3.4349,3.4399,3.4399,3.4399,3.45,3.4562,3.4562,3.4663,3.4726,3.4726,3.5152,3.5378,3.5378,3.5818,3.6094,3.6194,3.5655,3.5604,3.6044,3.6044,3.4799,0.0,0.0,0.0,3.5037,0.0,0.0,0.0,3.5539,3.5943,3.5554,3.5504,3.5504,3.5504,3.5504,3.5504,3.5504,3.5504,3.5504,3.5504,3.5504,3.5504,3.5504,3.5504,3.5504,3.5504,3.5504,3.5504,3.5504,3.6686,3.7404,3.7404,3.8691,3.9424,3.9424,3.9424,3.9424,3.9424,3.9424,3.9424,3.9424,3.9424,3.9424,3.9424,3.9424,3.9424,3.9424,3.9424,3.9424,3.9424,3.9424,3.9424,3.9424,3.9424,3.9424,3.9424,3.9424,3.9424,3.9424,3.9424,3.9424,3.9424,3.9424,3.9424,3.9424,3.9424,3.9424,3.9424,3.9424,3.9424,3.9424,3.9424,3.9664,3.9993,4.0322,4.0651,4.107,4.1728,4.0095,3.8504,3.8532,3.6429,3.455,3.3985,3.3897,3.3897,3.3897,3.3897,3.3997,3.4274,3.4311,3.4412,3.4688,3.4726,3.4726,3.4726,3.4977,3.514,3.514,3.5391,3.5542,3.5542,3.5805,3.5956,3.5956,3.6219,3.6358,3.6358,3.6094,3.6094,3.6358,3.5667,3.4252,0.0,0.0,0.0,0.0,0.0,3.4496,0.0,0.0,0.0,3.5504,3.5504,0.0,0.0,3.5504,3.5459,3.5325,3.5415,3.5459,3.5325,3.5429,3.5504,3.5504,3.5504,3.5504,3.5504,3.5504,3.5504,3.5504,3.6686,3.7404,3.7404,3.8691,3.9424,3.9424,3.9424,3.9424,3.9424,3.9424,3.9424,3.9424,3.9424,3.9424,3.9424,3.9424,3.9424,3.9424,3.9424,3.9424,3.9424,3.9424,3.9424,3.9424,3.9424,3.9424,3.9424,3.9424,3.9424,3.9424,3.9424,3.9424,3.9424,3.9424,3.9424,3.9424,3.9424,3.9424,3.9424,3.9424,3.9424,3.9454,3.9574,4.0008,4.0472,4.0711,4.119,4.1743,4.2402,4.0756,3.9139,3.9126,3.7243,3.5491,3.4839,3.4726,3.4726,3.4726,3.4726,3.4763,3.4864,3.4876,3.4926,3.5027,3.5039,3.5039,3.5039,3.5441,3.5705,3.5705,3.6119,3.6358,3.6358,3.6358,3.6358,3.6358,3.6358,3.6358,3.6358,3.6358,3.6263,3.5966,3.4872,3.3464,0.0,0.0,0.0,0.0,3.4553,0.0,0.0,0.0,3.5504,3.5504,0.0,0.0,0.0,0.0,0.0,3.4696,3.51,3.5295,3.4681,3.5115,3.5504,3.5504,3.5504,3.5504,3.5504,3.5504,3.5504,3.5504,3.6686,3.7404,3.7404,3.8691,3.9424,3.9424,3.9424,3.9424,3.9424,3.9424,3.9424,3.9424,3.9424,3.9424,3.9424,3.9424,3.9424,3.9424,3.9424,3.9424,3.9424,3.9424,3.9424,3.9424,3.9424,3.9424,3.9424,3.9424,3.9424,3.9424,3.9424,3.9424,3.9424,3.9424,3.9424,3.9424,3.9424,3.9424,3.9424,3.9424,3.9424,3.9559,4.0142,4.0337,4.0696,4.1863,4.2192,4.2432,4.309,4.1417,3.9788,3.9788,3.7938,3.5943,3.4901,3.4726,3.4726,3.4726,3.4726,3.4901,3.5391,3.5454,3.5629,3.6119,3.6169,3.6169,3.6169,3.6232,3.627,3.627,3.632,3.6358,3.6358,3.6358,3.6358,3.6358,3.6358,3.6358,3.6358,3.6358,3.5763,3.4581,3.4483,3.2955,0.0,0.0,0.0,0.0,0.0,0.0,3.4015,0.0,3.5504,3.5504,0.0,0.0,0.0,0.0,0.0,0.0,3.531,3.54,3.5115,3.5325,3.5504,3.5504,3.5504,3.5504,3.5504,3.5504,3.5504,3.5504,3.6686,3.7404,3.7404,3.8691,3.9424,3.9424,3.9424,3.9424,3.9424,3.9424,3.9424,3.9424,3.9424,3.9424,3.9424,3.9424,3.9424,3.9424,3.9424,3.9424,3.9424,3.9424,3.9424,3.9424,3.9424,3.9424,3.9424,3.9424,3.9424,3.9424,3.9424,3.9424,3.9424,3.9424,3.9424,3.9424,3.9424,3.9424,3.9424,3.9424,3.9694,4.0053,4.0337,4.0965,4.1669,4.2314,4.2656,4.3,4.3284,4.1532,3.9899,3.9899,3.8043,3.6219,3.5755,3.5667,3.5667,3.5667,3.5667,3.5755,3.5994,3.6019,3.6107,3.6332,3.6358,3.6358,3.6358,3.6358,3.6358,3.6358,3.6358,3.6358,3.6358,3.6358,3.6358,3.6358,3.6358,3.6358,3.6358,3.6358,3.5667,3.4385,3.3563,3.214,3.5316,0.0,0.0,0.0,0.0,0.0,3.3819,3.4508,3.528,3.5474,3.5504,0.0,0.0,0.0,3.5444,3.525,0.0,3.5444,3.525,3.5385,3.5504,3.5504,3.5504,3.5504,3.5504,3.5504,3.5504,3.5504,3.6686,3.7404,3.7404,3.8691,3.9424,3.9424,3.9424,3.9424,3.9424,3.9424,3.9424,3.9424,3.9424,3.9424,3.9424,3.9424,3.9424,3.9424,3.9424,3.9424,3.9424,3.9424,3.9424,3.9424,3.9424,3.9424,3.9424,3.9424,3.9424,3.9424,3.9424,3.9424,3.9424,3.9424,3.9424,3.9424,3.9424,3.9424,3.9424,3.9424,3.9888,4.0442,4.0621,4.1504,4.2402,4.2581,4.2985,4.325,4.29,4.1267,3.9899,3.9899,3.8225,3.6896,3.6896,3.6628,3.6358,3.6358,3.6358,3.6358,3.6358,3.6358,3.6358,3.6358,3.6358,3.6358,3.6358,3.6358,3.6358,3.6358,3.6358,3.6358,3.6358,3.6358,3.6358,3.6358,3.6358,3.6358,3.6358,3.6358,3.5463,3.3773,3.2744,3.1622,3.4624,3.4153,3.3767,3.4382,3.4074,3.3723,3.4299,3.4501,3.4696,3.537,3.5504,3.5504,3.5504,3.5504,3.5295,3.4622,3.507,0.0,0.0,3.5085,3.5504,3.5504,3.5504,3.5504,3.5504,3.5504,3.5504,3.5504,3.6686,3.7404,3.7404,3.8691,3.9424,3.9424,3.9424,3.9424,3.9424,3.9424,3.9424,3.9424,3.9424,3.9424,3.9424,3.9424,3.9424,3.9424,3.9424,3.9424,3.9424,3.9424,3.9424,3.9424,3.9424,3.9424,3.9424,3.9424,3.9424,3.9424,3.9424,3.9424,3.9424,3.9424,3.9424,3.9424,3.9424,3.9424,3.9424,3.9424,3.9888,4.0546,4.119,4.1848,4.2521,4.315,4.3329,4.2981,4.185,4.0746,3.9899,3.9899,3.8917,3.8017,3.8017,3.715,3.6358,3.6358,3.6358,3.6358,3.6358,3.6358,3.6358,3.6358,3.6358,3.6358,3.6358,3.6358,3.6358,3.6358,3.6358,3.6358,3.6358,3.6358,3.6358,3.6358,3.6358,3.6358,3.6358,3.6358,3.5041,3.2342,3.2331,3.1622,3.5975,3.5417,3.4679,3.4013,3.4357,3.4651,3.397,3.4525,3.522,3.5459,3.5504,3.5504,3.5504,3.5504,3.5429,3.519,3.5355,3.5429,0.0,3.5355,3.5504,3.5504,3.5504,0.0,3.5504,3.5504,3.5504,3.5504,3.6686,3.7404,3.7404,3.8691,3.9424,3.9424,3.9424,3.9424,3.9424,3.9424,3.9424,3.9424,3.9424,3.9424,3.9424,3.9424,3.9424,3.9424,3.9424,3.9424,3.9424,3.9424,3.9424,3.9424,3.9424,3.9424,3.9424,3.9424,3.9424,3.9424,3.9424,3.9424,3.9424,3.9424,3.9424,3.9424,3.9424,3.9424,3.9424,3.9424,4.0202,4.11,4.1324,4.2177,4.306,4.3284,4.3329,4.2981,4.185,4.1337,4.0831,4.0073,3.9536,3.9006,3.8198,3.7756,3.723,3.6546,3.6358,3.6358,3.6358,3.6358,3.6358,3.6358,3.6358,3.6358,3.6358,3.6358,3.6358,3.6358,3.6358,3.6358,3.6358,3.6358,3.6358,3.6358,3.6358,3.6358,3.6358,3.5475,3.4569,3.3662,3.1836,3.0214,3.644,3.5808,3.4991,3.4079,3.4319,3.4622,3.3993,3.4517,3.5205,3.5459,3.5504,3.5504,3.5504,3.5504,3.5504,3.5504,3.5504,3.5504,0.0,3.5504,3.5504,3.5504,3.5504,0.0,0.0,3.5504,3.5504,3.5504,3.6492,3.718,3.7404,3.8452,3.917,3.9409,3.9424,3.9424,3.9424,3.9424,3.9424,3.9424,3.9424,3.9424,3.9424,3.9424,3.9424,3.9424,3.9424,3.9424,3.9424,3.9424,3.9424,3.9424,3.9424,3.9424,3.9424,3.9424,3.9424,3.9424,3.9424,3.9424,3.9424,3.9424,3.9424,3.9424,3.9424,3.9424,3.9514,3.9993,4.0726,4.1489,4.1953,4.2701,4.3329,4.3329,4.3329,4.2981,4.185,4.1587,4.142,4.0661,4.0159,3.9623,3.8917,3.8379,3.7678,3.6534,3.6358,3.6358,3.6358,3.6358,3.6358,3.6358,3.6358,3.6358,3.6358,3.6358,3.6358,3.6358,3.6358,3.6358,3.6358,3.6358,3.6358,3.6358,3.6358,3.6358,3.6358,3.5078,3.4178,3.3563,3.1327,2.9608]}]]